[[{"header":{"parameterUnit":"m.s-1","parameterCategory":1,"la1":31.0,"la2":29.5877,"lo1":-88.7671,"lo2":-86.6584,"dy":0.0162,"dx":0.0185,"nx":115,"ny":88,"refTime":"2024-08-10T06:00:00:Z","depth":0,"parameterNumber":2,"parameterNumberName":"U-component_of_WINDS"},"data":[0.0,0.0,0.0,0.0,0.0,0.0,0.0,0.0,0.0,0.0,0.0,0.0,0.0,0.0,0.0,0.0,0.0,0.0,0.0,0.0,0.0,0.0,0.0,0.0,0.0,0.0,0.0,0.0,0.0,0.0,0.0,0.0,0.0,0.0,0.0,0.0,0.0,0.0,0.0,0.0,0.0,0.0,0.0,0.0,0.0,0.0,0.0,0.0,0.0,0.0,0.0,0.0,0.0,0.0,0.0,0.0,0.0,0.0,0.0,0.0,0.0,0.0,0.0,0.0,0.0,0.0,0.0,0.0,0.0,0.0,0.0,0.0,0.0,0.0,0.0,0.0,0.0,0.0,0.0,0.0,0.0,0.0,0.0,0.0,0.0,0.0,0.0,0.0,0.0,0.0,0.0,0.0,0.0,0.0,0.0,0.0,0.0,0.0,0.0,0.0,0.0,0.0,0.0,0.0,0.0,0.0,0.0,0.0,0.0,0.0,0.0,0.0,0.0,0.0,0.0,0.0,0.0,0.0,0.0,0.0,0.0,0.0,0.0,0.0,0.0,0.0,0.0,0.0,0.0,0.0,0.0,0.0,0.0,0.0,0.0,0.0,0.0,0.0,0.0,0.0,0.0,0.0,0.0,0.0,0.0,0.0,0.0,0.0,0.0,0.0,0.0,0.0,0.0,0.0,0.0,0.0,0.0,0.0,0.0,0.0,0.0,0.0,0.0,0.0,0.0,0.0,0.0,0.0,0.0,0.0,0.0,0.0,0.0,0.0,0.0,0.0,0.0,0.0,0.0,0.0,0.0,0.0,0.0,0.0,0.0,0.0,0.0,0.0,0.0,0.0,0.0,0.0,0.0,0.0,0.0,0.0,0.0,0.0,0.0,0.0,0.0,0.0,0.0,0.0,0.0,0.0,0.0,0.0,0.0,0.0,0.0,0.0,0.0,0.0,0.0,0.0,0.0,0.0,0.0,0.0,0.0,0.0,0.0,0.0,0.0,0.0,0.0,0.0,0.0,0.0,0.0,0.0,0.0,0.0,0.0,0.0,0.0,0.0,0.0,0.0,0.0,0.0,0.0,0.0,0.0,0.0,0.0,0.0,0.0,0.0,0.0,0.0,0.0,0.0,0.0,0.0,0.0,0.0,0.0,0.0,0.0,0.0,0.0,0.0,0.0,0.0,0.0,0.0,0.0,0.0,0.0,0.0,0.0,0.0,0.0,0.0,0.0,0.0,0.0,0.0,0.0,0.0,0.0,0.0,0.0,0.0,0.0,0.0,0.0,0.0,0.0,0.0,0.0,0.0,0.0,0.0,0.0,0.0,0.0,0.0,0.0,0.0,0.0,0.0,0.0,0.0,0.0,0.0,0.0,0.0,0.0,0.0,0.0,0.0,0.0,0.0,0.0,0.0,0.0,0.0,0.0,0.0,0.0,0.0,0.0,0.0,0.0,0.0,0.0,0.0,0.0,0.0,0.0,0.0,0.0,0.0,0.0,0.0,0.0,0.0,0.0,0.0,0.0,0.0,0.0,0.0,0.0,0.0,0.0,0.0,0.0,0.0,0.0,0.0,0.0,0.0,0.0,0.0,0.0,0.0,0.0,0.0,0.0,0.0,0.0,0.0,0.0,0.0,0.0,0.0,0.0,0.0,0.0,0.0,0.0,0.0,0.0,0.0,0.0,0.0,0.0,0.0,0.0,0.0,0.0,0.0,0.0,0.0,0.0,0.0,0.0,0.0,0.0,0.0,0.0,0.0,0.0,0.0,0.0,0.0,0.0,0.0,0.0,0.0,0.0,0.0,0.0,0.0,0.0,0.0,0.0,0.0,0.0,0.0,0.0,0.0,0.0,0.0,0.0,0.0,0.0,0.0,0.0,0.0,0.0,0.0,0.0,0.0,0.0,0.0,0.0,0.0,0.0,0.0,0.0,0.0,0.0,0.0,0.0,0.0,0.0,0.0,0.0,0.0,0.0,0.0,0.0,0.0,0.0,0.0,0.0,0.0,0.0,0.0,0.0,0.0,0.0,0.0,0.0,0.0,0.0,0.0,0.0,0.0,0.0,0.0,0.0,0.0,0.0,0.0,0.0,0.0,0.0,0.0,0.0,0.0,0.0,0.0,0.0,0.0,0.0,0.0,0.0,0.0,0.0,0.0,0.0,0.0,0.0,0.0,0.0,0.0,0.0,0.0,0.0,0.0,0.0,0.0,0.0,0.0,0.0,0.0,0.0,0.0,0.0,0.0,0.0,0.0,0.0,0.0,0.0,0.0,0.0,0.0,0.0,0.0,0.0,0.0,0.0,0.0,0.0,0.0,0.0,0.0,0.0,0.0,0.0,0.0,0.0,0.0,0.0,0.0,0.0,0.0,0.0,0.0,0.0,0.0,0.0,0.0,0.0,0.0,0.0,0.0,0.0,0.0,0.0,0.0,0.0,0.0,0.0,0.0,0.0,0.0,0.0,0.0,0.0,0.0,0.0,0.0,0.0,0.0,0.0,0.0,0.0,0.0,0.0,0.0,0.0,0.0,0.0,0.0,0.0,0.0,0.0,0.0,0.0,0.0,0.0,0.0,0.0,0.0,0.0,0.0,0.0,0.0,0.0,0.0,0.0,0.0,0.0,0.0,0.0,0.0,0.0,0.0,0.0,0.0,0.0,0.0,0.0,0.0,0.0,0.0,0.0,0.0,0.0,0.0,0.0,0.0,0.0,0.0,0.0,0.0,0.0,0.0,0.0,0.0,0.0,0.0,0.0,0.0,0.0,0.0,0.0,0.0,0.0,0.0,0.0,0.0,0.0,0.0,0.0,0.0,0.0,0.0,0.0,0.0,0.0,0.0,0.0,0.0,0.0,0.0,0.0,0.0,0.0,0.0,0.0,0.0,0.0,0.0,0.0,0.0,0.0,0.0,0.0,0.0,0.0,0.0,0.0,0.0,0.0,0.0,0.0,0.0,0.0,0.0,0.0,0.0,0.0,0.0,0.0,0.0,0.0,0.0,0.0,0.0,0.0,0.0,0.0,0.0,0.0,0.0,0.0,0.0,0.0,0.0,0.0,0.0,0.0,0.0,0.0,0.0,0.0,0.0,0.0,0.0,0.0,0.0,0.0,0.0,0.0,0.0,0.0,0.0,0.0,0.0,0.0,0.0,0.0,0.0,0.0,0.0,0.0,0.0,0.0,0.0,0.0,0.0,0.0,0.0,0.0,0.0,0.0,0.0,0.0,0.0,0.0,0.0,0.0,0.0,0.0,0.0,0.0,0.0,0.0,0.0,0.0,0.0,0.0,0.0,0.0,0.0,0.0,0.0,0.0,0.0,0.0,0.0,0.0,0.0,0.0,0.0,0.0,0.0,0.0,0.0,0.0,0.0,0.0,0.0,0.0,0.0,0.0,0.0,0.0,0.0,0.0,0.0,0.0,0.0,0.0,0.0,0.0,0.0,0.0,0.0,0.0,0.0,0.0,0.0,0.0,0.0,0.0,0.0,0.0,0.0,0.0,0.0,0.0,0.0,0.0,0.0,0.0,0.0,0.0,0.0,0.0,0.0,0.0,0.0,0.0,0.0,0.0,0.0,0.0,0.0,0.0,0.0,0.0,0.0,0.0,0.0,0.0,0.0,0.0,0.0,0.0,0.0,0.0,0.0,0.0,0.0,0.0,0.0,0.0,0.0,0.0,0.0,0.0,0.0,0.0,0.0,0.0,0.0,0.0,0.0,0.0,0.0,0.0,0.0,0.0,0.0,0.0,0.0,0.0,0.0,0.0,0.0,0.0,0.0,0.0,0.0,0.0,0.0,0.0,0.0,0.0,0.0,0.0,0.0,0.0,0.0,0.0,0.0,0.0,0.0,0.0,0.0,0.0,0.0,0.0,0.0,0.0,0.0,0.0,0.0,0.0,0.0,0.0,0.0,0.0,0.0,0.0,0.0,0.0,0.0,0.0,0.0,0.0,0.0,0.0,0.0,0.0,0.0,0.0,0.0,0.0,0.0,0.0,0.0,0.0,0.0,0.0,0.0,0.0,0.0,0.0,0.0,0.0,0.0,0.0,0.0,0.0,0.0,0.0,0.0,0.0,0.0,0.0,0.0,0.0,0.0,0.0,0.0,0.0,0.0,0.0,0.0,0.0,0.0,0.0,0.0,0.0,0.0,0.0,0.0,0.0,0.0,0.0,0.0,0.0,0.0,0.0,0.0,0.0,0.0,0.0,0.0,0.0,0.0,0.0,0.0,0.0,0.0,0.0,0.0,0.0,0.0,0.0,0.0,0.0,0.0,0.0,0.0,-1.2796,0.0,0.0,0.0,0.0,0.0,0.0,0.0,0.0,0.0,0.0,0.0,0.0,0.0,0.0,0.0,0.0,0.0,0.0,0.0,0.0,0.0,0.0,0.0,0.0,0.0,0.0,0.0,0.0,0.0,0.0,0.0,0.0,0.0,0.0,0.0,0.0,0.0,0.0,0.0,0.0,0.0,0.0,0.0,0.0,0.0,0.0,0.0,0.0,0.0,0.0,0.0,0.0,0.0,0.0,0.0,0.0,0.0,0.0,0.0,0.0,0.0,0.0,0.0,0.0,0.0,0.0,0.0,0.0,0.0,0.0,0.0,0.0,0.0,0.0,0.0,0.0,0.0,0.0,0.0,0.0,0.0,0.0,0.0,0.0,0.0,0.0,0.0,0.0,0.0,0.0,0.0,0.0,0.0,0.0,0.0,0.0,0.0,0.0,0.0,0.0,0.0,0.0,0.0,0.0,0.0,0.0,0.0,0.0,0.0,0.0,-1.3104,-1.3052,-1.3013,-1.2922,-1.2727,0.0,0.0,0.0,0.0,0.0,0.0,0.0,0.0,0.0,0.0,0.0,0.0,0.0,0.0,0.0,0.0,0.0,0.0,0.0,0.0,0.0,0.0,0.0,0.0,0.0,0.0,0.0,0.0,0.0,0.0,0.0,0.0,0.0,0.0,0.0,0.0,0.0,0.0,0.0,0.0,0.0,0.0,0.0,0.0,0.0,0.0,0.0,0.0,0.0,0.0,0.0,0.0,0.0,0.0,0.0,0.0,0.0,0.0,0.0,0.0,0.0,0.0,0.0,0.0,0.0,0.0,0.0,0.0,0.0,0.0,0.0,0.0,0.0,0.0,0.0,0.0,0.0,0.0,0.0,0.0,0.0,0.0,0.0,0.0,0.0,0.0,0.0,0.0,0.0,0.0,0.0,0.0,0.0,0.0,0.0,0.0,0.0,0.0,0.0,0.0,0.0,0.0,0.0,0.0,0.0,0.0,0.0,0.0,0.0,0.0,0.0,0.0,-1.2832,-1.2738,-1.2501,0.0,0.0,0.0,0.0,0.0,0.0,0.0,0.0,0.0,0.0,0.0,0.0,0.0,0.0,0.0,0.0,0.0,0.0,0.0,0.0,0.0,0.0,0.0,0.0,0.0,0.0,0.0,0.0,0.0,0.0,0.0,0.0,0.0,0.0,0.0,0.0,0.0,0.0,0.0,0.0,0.0,0.0,0.0,0.0,0.0,0.0,0.0,0.0,0.0,0.0,0.0,0.0,0.0,0.0,0.0,0.0,0.0,0.0,0.0,0.0,0.0,0.0,0.0,0.0,0.0,0.0,0.0,0.0,0.0,0.0,0.0,0.0,0.0,0.0,0.0,0.0,0.0,0.0,0.0,0.0,0.0,0.0,0.0,0.0,0.0,0.0,0.0,0.0,0.0,0.0,0.0,0.0,0.0,0.0,0.0,0.0,0.0,0.0,0.0,0.0,0.0,0.0,0.0,0.0,0.0,0.0,0.0,0.0,0.0,0.0,-1.2848,-1.2722,-1.2665,0.0,-1.2249,0.0,0.0,0.0,0.0,0.0,0.0,0.0,0.0,0.0,0.0,0.0,0.0,0.0,0.0,0.0,0.0,0.0,0.0,0.0,0.0,0.0,0.0,0.0,0.0,0.0,0.0,0.0,0.0,0.0,0.0,0.0,0.0,0.0,0.0,0.0,0.0,0.0,0.0,0.0,0.0,0.0,0.0,0.0,0.0,0.0,0.0,0.0,0.0,0.0,0.0,0.0,0.0,0.0,0.0,0.0,0.0,0.0,0.0,0.0,0.0,0.0,0.0,0.0,0.0,0.0,0.0,0.0,0.0,0.0,0.0,0.0,0.0,0.0,0.0,0.0,0.0,0.0,0.0,0.0,0.0,0.0,0.0,0.0,0.0,0.0,0.0,0.0,0.0,0.0,0.0,0.0,0.0,0.0,0.0,0.0,0.0,0.0,0.0,0.0,0.0,0.0,0.0,0.0,0.0,0.0,0.0,0.0,0.0,0.0,0.0,0.0,-1.2597,-1.2443,-1.2323,0.0,0.0,0.0,0.0,0.0,0.0,0.0,0.0,0.0,0.0,0.0,0.0,0.0,0.0,0.0,0.0,0.0,0.0,0.0,0.0,0.0,0.0,0.0,0.0,0.0,0.0,0.0,0.0,0.0,0.0,0.0,0.0,0.0,0.0,0.0,0.0,0.0,0.0,0.0,0.0,0.0,0.0,0.0,0.0,0.0,0.0,0.0,0.0,0.0,0.0,0.0,0.0,0.0,0.0,0.0,0.0,0.0,0.0,0.0,0.0,0.0,0.0,0.0,0.0,0.0,0.0,0.0,0.0,0.0,0.0,0.0,0.0,0.0,0.0,0.0,0.0,0.0,0.0,0.0,0.0,0.0,0.0,0.0,0.0,0.0,0.0,0.0,0.0,0.0,0.0,0.0,0.0,0.0,0.0,0.0,0.0,0.0,0.0,0.0,0.0,0.0,0.0,0.0,0.0,0.0,0.0,0.0,0.0,0.0,0.0,-1.2577,0.0,-1.2399,-1.2252,-1.2133,-1.2091,0.0,0.0,0.0,0.0,0.0,0.0,0.0,0.0,0.0,0.0,0.0,0.0,0.0,0.0,0.0,0.0,0.0,0.0,0.0,0.0,0.0,0.0,0.0,0.0,0.0,0.0,0.0,0.0,0.0,0.0,0.0,0.0,0.0,0.0,0.0,0.0,0.0,0.0,0.0,0.0,0.0,0.0,0.0,0.0,0.0,0.0,0.0,0.0,0.0,0.0,0.0,0.0,0.0,0.0,0.0,0.0,0.0,0.0,0.0,0.0,0.0,0.0,0.0,0.0,0.0,0.0,0.0,0.0,0.0,0.0,0.0,0.0,0.0,0.0,0.0,0.0,0.0,0.0,0.0,0.0,0.0,0.0,0.0,0.0,0.0,0.0,0.0,0.0,0.0,0.0,0.0,0.0,0.0,0.0,0.0,0.0,0.0,0.0,0.0,0.0,0.0,0.0,0.0,0.0,0.0,0.0,0.0,0.0,0.0,-1.2435,-1.2374,-1.2231,-1.2091,-1.1949,0.0,0.0,0.0,0.0,0.0,0.0,0.0,0.0,0.0,0.0,0.0,0.0,0.0,0.0,0.0,0.0,0.0,0.0,0.0,0.0,0.0,0.0,0.0,0.0,0.0,0.0,0.0,0.0,0.0,0.0,0.0,0.0,0.0,0.0,0.0,0.0,0.0,0.0,0.0,0.0,0.0,0.0,0.0,0.0,0.0,0.0,0.0,0.0,0.0,0.0,0.0,0.0,0.0,0.0,0.0,0.0,0.0,0.0,0.0,0.0,0.0,0.0,0.0,0.0,0.0,0.0,0.0,0.0,0.0,0.0,0.0,0.0,0.0,0.0,0.0,0.0,0.0,0.0,0.0,0.0,0.0,0.0,0.0,0.0,0.0,0.0,0.0,0.0,0.0,0.0,0.0,0.0,0.0,0.0,0.0,0.0,0.0,0.0,0.0,0.0,0.0,0.0,0.0,0.0,0.0,0.0,0.0,0.0,0.0,-1.2919,-1.3259,-1.3191,0.0,-1.2584,-1.2283,0.0,0.0,0.0,0.0,0.0,0.0,0.0,0.0,0.0,0.0,0.0,0.0,0.0,0.0,0.0,0.0,0.0,0.0,0.0,0.0,0.0,0.0,0.0,0.0,0.0,0.0,0.0,0.0,0.0,0.0,0.0,0.0,0.0,0.0,0.0,0.0,0.0,0.0,0.0,0.0,0.0,0.0,0.0,0.0,0.0,0.0,0.0,0.0,0.0,0.0,0.0,0.0,0.0,0.0,0.0,0.0,0.0,0.0,0.0,0.0,0.0,0.0,0.0,0.0,0.0,0.0,0.0,0.0,0.0,0.0,0.0,0.0,0.0,0.0,0.0,0.0,0.0,0.0,0.0,0.0,0.0,0.0,0.0,0.0,0.0,0.0,0.0,0.0,0.0,0.0,0.0,0.0,0.0,0.0,0.0,0.0,0.0,0.0,0.0,0.0,0.0,0.0,0.0,0.0,0.0,0.0,0.0,0.0,0.0,-1.3459,0.0,-1.3733,0.0,-1.2912,-1.249,0.0,0.0,0.0,0.0,0.0,0.0,0.0,0.0,0.0,0.0,0.0,0.0,0.0,0.0,0.0,0.0,0.0,0.0,0.0,0.0,0.0,0.0,0.0,0.0,0.0,0.0,0.0,0.0,0.0,0.0,0.0,0.0,0.0,0.0,0.0,0.0,0.0,0.0,0.0,0.0,0.0,0.0,0.0,0.0,0.0,0.0,0.0,0.0,0.0,0.0,0.0,0.0,0.0,0.0,0.0,0.0,0.0,0.0,0.0,0.0,0.0,0.0,0.0,0.0,0.0,0.0,0.0,0.0,0.0,0.0,0.0,0.0,0.0,0.0,0.0,0.0,0.0,0.0,0.0,0.0,0.0,0.0,0.0,0.0,0.0,0.0,0.0,0.0,0.0,0.0,0.0,0.0,0.0,0.0,0.0,0.0,0.0,0.0,0.0,0.0,0.0,0.0,0.0,0.0,0.0,0.0,0.0,0.0,0.0,-1.397,-1.3956,-1.3935,-1.3795,-1.3065,-1.2575,0.0,0.0,0.0,0.0,0.0,0.0,0.0,0.0,0.0,0.0,0.0,0.0,0.0,0.0,0.0,0.0,0.0,0.0,0.0,0.0,0.0,0.0,0.0,0.0,0.0,0.0,0.0,0.0,0.0,0.0,0.0,0.0,0.0,0.0,0.0,0.0,0.0,0.0,0.0,0.0,0.0,0.0,0.0,0.0,0.0,0.0,0.0,0.0,0.0,0.0,0.0,0.0,0.0,0.0,0.0,0.0,0.0,0.0,0.0,0.0,0.0,0.0,0.0,0.0,0.0,0.0,0.0,0.0,0.0,0.0,0.0,0.0,0.0,0.0,0.0,0.0,0.0,0.0,0.0,0.0,0.0,0.0,0.0,0.0,0.0,0.0,0.0,0.0,0.0,0.0,0.0,0.0,0.0,0.0,0.0,0.0,0.0,0.0,0.0,0.0,0.0,0.0,0.0,0.0,0.0,0.0,0.0,0.0,0.0,-1.4604,-1.4932,-1.485,-1.4418,-1.4009,-1.3336,0.0,0.0,0.0,0.0,0.0,0.0,0.0,0.0,0.0,0.0,0.0,0.0,0.0,0.0,0.0,0.0,0.0,0.0,0.0,0.0,0.0,0.0,0.0,0.0,0.0,0.0,0.0,0.0,0.0,0.0,0.0,0.0,0.0,0.0,0.0,0.0,0.0,0.0,0.0,0.0,0.0,0.0,0.0,0.0,0.0,0.0,0.0,0.0,0.0,0.0,0.0,0.0,0.0,0.0,0.0,0.0,0.0,0.0,0.0,0.0,0.0,0.0,0.0,0.0,0.0,0.0,0.0,0.0,0.0,0.0,0.0,0.0,0.0,0.0,0.0,0.0,0.0,0.0,0.0,0.0,0.0,0.0,0.0,0.0,0.0,0.0,0.0,0.0,0.0,0.0,0.0,0.0,0.0,0.0,0.0,0.0,0.0,0.0,0.0,0.0,0.0,0.0,0.0,0.0,0.0,0.0,0.0,0.0,0.0,-1.5544,-1.5817,-1.5773,-1.5372,-1.4921,-1.4024,-1.2639,0.0,0.0,0.0,0.0,0.0,0.0,0.0,0.0,0.0,0.0,0.0,0.0,0.0,0.0,0.0,0.0,0.0,0.0,0.0,0.0,0.0,0.0,0.0,0.0,0.0,0.0,0.0,0.0,0.0,0.0,0.0,0.0,0.0,0.0,0.0,0.0,0.0,0.0,0.0,0.0,0.0,0.0,0.0,0.0,0.0,0.0,0.0,0.0,0.0,0.0,0.0,0.0,0.0,0.0,0.0,0.0,0.0,0.0,0.0,0.0,0.0,0.0,0.0,0.0,0.0,0.0,0.0,0.0,0.0,0.0,0.0,0.0,0.0,0.0,0.0,0.0,0.0,0.0,0.0,0.0,0.0,0.0,0.0,0.0,0.0,0.0,0.0,0.0,0.0,0.0,0.0,0.0,0.0,0.0,0.0,0.0,0.0,0.0,0.0,0.0,0.0,0.0,0.0,0.0,0.0,0.0,0.0,0.0,-1.6677,-1.6692,-1.6646,-1.6509,-1.5737,-1.4688,0.0,0.0,0.0,0.0,0.0,0.0,0.0,0.0,0.0,0.0,0.0,0.0,0.0,0.0,0.0,0.0,0.0,0.0,0.0,0.0,0.0,0.0,0.0,0.0,0.0,0.0,0.0,0.0,0.0,0.0,0.0,0.0,0.0,0.0,0.0,0.0,0.0,0.0,0.0,0.0,0.0,0.0,0.0,0.0,0.0,0.0,0.0,0.0,0.0,0.0,0.0,0.0,0.0,0.0,0.0,0.0,0.0,0.0,0.0,0.0,0.0,0.0,0.0,0.0,0.0,0.0,0.0,0.0,0.0,0.0,0.0,0.0,0.0,0.0,0.0,0.0,0.0,0.0,0.0,0.0,0.0,0.0,0.0,0.0,0.0,0.0,0.0,0.0,0.0,0.0,0.0,0.0,0.0,0.0,0.0,0.0,0.0,0.0,0.0,0.0,0.0,0.0,0.0,0.0,0.0,0.0,0.0,0.0,0.0,-1.8015,-1.7939,-1.7602,-1.71,-1.6265,-1.5415,0.0,0.0,0.0,0.0,0.0,0.0,0.0,0.0,0.0,0.0,0.0,0.0,0.0,0.0,0.0,0.0,0.0,0.0,0.0,0.0,0.0,0.0,0.0,0.0,0.0,0.0,0.0,0.0,0.0,0.0,0.0,0.0,0.0,0.0,0.0,0.0,0.0,0.0,0.0,0.0,0.0,0.0,0.0,0.0,0.0,0.0,0.0,0.0,0.0,0.0,0.0,0.0,0.0,0.0,0.0,0.0,0.0,0.0,0.0,0.0,0.0,0.0,0.0,0.0,0.0,0.0,0.0,0.0,0.0,0.0,0.0,0.0,0.0,0.0,0.0,0.0,0.0,0.0,0.0,0.0,0.0,0.0,0.0,0.0,0.0,0.0,0.0,0.0,0.0,0.0,0.0,0.0,0.0,0.0,0.0,0.0,0.0,0.0,0.0,0.0,0.0,0.0,0.0,0.0,0.0,0.0,0.0,0.0,-1.7607,-1.8823,-1.8958,-1.8819,-1.8419,-1.7102,-1.5951,0.0,0.0,0.0,0.0,0.0,0.0,0.0,0.0,0.0,0.0,0.0,0.0,0.0,0.0,0.0,0.0,0.0,0.0,0.0,0.0,0.0,0.0,0.0,0.0,0.0,0.0,0.0,0.0,0.0,0.0,0.0,0.0,0.0,0.0,0.0,0.0,0.0,0.0,0.0,0.0,0.0,0.0,0.0,0.0,0.0,0.0,0.0,0.0,0.0,0.0,0.0,0.0,0.0,0.0,0.0,0.0,0.0,0.0,0.0,0.0,0.0,0.0,0.0,0.0,0.0,0.0,0.0,0.0,0.0,0.0,0.0,0.0,0.0,0.0,0.0,0.0,0.0,0.0,0.0,0.0,0.0,0.0,0.0,0.0,0.0,0.0,0.0,0.0,0.0,0.0,0.0,0.0,0.0,0.0,0.0,0.0,0.0,0.0,0.0,0.0,0.0,0.0,0.0,0.0,0.0,0.0,0.0,0.0,-1.815,-1.9249,-1.9812,-2.0023,-1.9843,-1.8092,-1.6454,0.0,0.0,0.0,0.0,0.0,0.0,0.0,0.0,0.0,0.0,0.0,0.0,0.0,0.0,0.0,0.0,0.0,0.0,0.0,0.0,0.0,0.0,0.0,0.0,0.0,0.0,0.0,0.0,0.0,0.0,0.0,0.0,0.0,0.0,0.0,0.0,0.0,0.0,0.0,0.0,0.0,0.0,0.0,0.0,0.0,0.0,0.0,0.0,0.0,0.0,0.0,0.0,0.0,0.0,0.0,0.0,0.0,0.0,0.0,0.0,0.0,0.0,0.0,0.0,0.0,0.0,0.0,0.0,0.0,0.0,0.0,0.0,0.0,0.0,0.0,0.0,0.0,0.0,0.0,0.0,0.0,0.0,0.0,0.0,0.0,0.0,0.0,0.0,0.0,0.0,0.0,0.0,0.0,0.0,0.0,0.0,0.0,0.0,0.0,0.0,0.0,0.0,0.0,0.0,0.0,0.0,0.0,0.0,-1.8673,-1.9773,-2.0344,-2.0323,-1.9689,-1.8705,-1.7548,0.0,0.0,0.0,0.0,0.0,0.0,0.0,0.0,0.0,0.0,0.0,0.0,0.0,0.0,0.0,0.0,0.0,0.0,0.0,0.0,0.0,0.0,0.0,0.0,0.0,0.0,0.0,0.0,0.0,0.0,0.0,0.0,0.0,0.0,0.0,0.0,0.0,0.0,0.0,0.0,0.0,0.0,0.0,0.0,0.0,0.0,0.0,0.0,-0.8993,0.0,0.0,0.0,0.0,0.0,0.0,0.0,0.0,0.0,0.0,0.0,0.0,0.0,0.0,0.0,0.0,0.0,0.0,0.0,0.0,0.0,0.0,0.0,0.0,0.0,0.0,0.0,0.0,0.0,0.0,0.0,0.0,0.0,0.0,0.0,0.0,0.0,0.0,0.0,0.0,0.0,0.0,0.0,0.0,0.0,0.0,0.0,0.0,0.0,0.0,0.0,0.0,0.0,0.0,0.0,0.0,0.0,0.0,0.0,-1.9142,-2.0263,-2.0784,-2.0685,-2.002,-1.9419,-1.8256,0.0,0.0,0.0,0.0,0.0,0.0,0.0,0.0,0.0,0.0,0.0,0.0,0.0,0.0,0.0,0.0,0.0,0.0,0.0,0.0,0.0,0.0,0.0,0.0,0.0,0.0,0.0,0.0,0.0,0.0,0.0,0.0,0.0,0.0,0.0,0.0,0.0,0.0,0.0,0.0,0.0,0.0,0.0,0.0,0.0,0.0,0.0,0.0,0.0,0.0,0.0,0.0,0.0,0.0,0.0,0.0,0.0,0.0,0.0,0.0,0.0,0.0,0.0,0.0,0.0,0.0,0.0,0.0,0.0,0.0,0.0,0.0,0.0,0.0,0.0,0.0,0.0,0.0,0.0,0.0,0.0,0.0,0.0,0.0,0.0,0.0,0.0,0.0,0.0,0.0,0.0,0.0,0.0,0.0,0.0,0.0,0.0,0.0,0.0,0.0,0.0,0.0,0.0,0.0,0.0,0.0,0.0,-1.8366,-1.9538,-2.0613,-2.1091,-2.1016,-2.0386,-1.9871,-1.8563,0.0,0.0,0.0,0.0,0.0,0.0,0.0,0.0,0.0,0.0,0.0,0.0,0.0,0.0,0.0,0.0,0.0,0.0,0.0,0.0,0.0,0.0,0.0,0.0,0.0,0.0,0.0,0.0,0.0,0.0,0.0,0.0,0.0,0.0,0.0,0.0,0.0,0.0,0.0,-0.85,-0.8988,0.0,0.0,0.0,0.0,0.0,0.0,0.0,0.0,-0.9432,0.0,0.0,0.0,0.0,0.0,0.0,0.0,0.0,0.0,0.0,0.0,0.0,0.0,0.0,0.0,0.0,0.0,0.0,0.0,0.0,0.0,0.0,0.0,0.0,0.0,0.0,0.0,0.0,0.0,0.0,0.0,0.0,0.0,0.0,0.0,0.0,0.0,0.0,0.0,0.0,0.0,0.0,0.0,0.0,0.0,0.0,0.0,0.0,0.0,0.0,0.0,0.0,0.0,0.0,0.0,0.0,-1.6947,-1.8541,-1.9737,-2.0387,-2.1349,-2.1314,-2.0126,-1.9343,-1.8058,-1.6109,0.0,0.0,0.0,0.0,0.0,0.0,0.0,0.0,0.0,0.0,0.0,0.0,0.0,0.0,0.0,0.0,0.0,0.0,0.0,0.0,0.0,0.0,0.0,0.0,0.0,0.0,0.0,0.0,0.0,0.0,0.0,0.0,0.0,0.0,0.0,0.0,0.0,0.0,0.0,-0.9203,-0.9675,0.0,0.0,0.0,0.0,0.0,0.0,0.0,0.0,-1.0106,0.0,0.0,0.0,0.0,0.0,0.0,0.0,0.0,0.0,0.0,0.0,0.0,0.0,0.0,0.0,0.0,0.0,0.0,0.0,0.0,0.0,0.0,0.0,0.0,0.0,0.0,0.0,0.0,0.0,0.0,0.0,0.0,0.0,0.0,0.0,0.0,0.0,0.0,0.0,0.0,0.0,0.0,0.0,0.0,0.0,0.0,0.0,0.0,0.0,0.0,0.0,0.0,0.0,0.0,0.0,-1.6768,-1.881,-1.995,-2.0142,-2.1125,-2.1088,-1.9864,-1.9019,-1.7719,0.0,0.0,0.0,0.0,0.0,0.0,0.0,0.0,0.0,0.0,0.0,0.0,0.0,0.0,0.0,0.0,0.0,0.0,0.0,0.0,0.0,0.0,0.0,0.0,0.0,0.0,0.0,0.0,0.0,0.0,0.0,0.0,0.0,0.0,0.0,0.0,0.0,0.0,0.0,0.0,-0.9829,-1.0342,-1.0293,0.0,0.0,0.0,0.0,0.0,0.0,-1.1126,-1.09,0.0,0.0,0.0,0.0,0.0,0.0,0.0,0.0,0.0,0.0,0.0,0.0,0.0,0.0,0.0,0.0,0.0,0.0,0.0,0.0,0.0,0.0,0.0,0.0,0.0,0.0,0.0,0.0,0.0,0.0,0.0,0.0,0.0,0.0,0.0,0.0,0.0,0.0,0.0,0.0,0.0,0.0,0.0,0.0,0.0,0.0,0.0,0.0,0.0,0.0,0.0,0.0,0.0,0.0,0.0,-1.6571,-1.8877,-2.0041,-1.9952,-2.0813,-2.0759,-1.9642,-1.8712,-1.7422,0.0,0.0,0.0,0.0,0.0,0.0,0.0,0.0,0.0,0.0,0.0,0.0,0.0,0.0,0.0,0.0,0.0,0.0,0.0,0.0,0.0,0.0,0.0,0.0,0.0,0.0,0.0,0.0,0.0,0.0,0.0,0.0,0.0,0.0,0.0,0.0,0.0,0.0,0.0,0.0,0.0,-1.0937,-1.1025,-1.1416,0.0,0.0,0.0,0.0,-1.1699,-1.1665,0.0,0.0,0.0,0.0,0.0,0.0,0.0,0.0,0.0,0.0,0.0,0.0,0.0,0.0,0.0,0.0,0.0,0.0,0.0,0.0,0.0,0.0,0.0,0.0,0.0,0.0,0.0,0.0,0.0,0.0,0.0,0.0,0.0,0.0,0.0,0.0,0.0,0.0,0.0,0.0,0.0,0.0,0.0,0.0,0.0,0.0,0.0,0.0,0.0,0.0,0.0,0.0,0.0,0.0,0.0,0.0,-1.6286,-1.8508,-1.9646,-1.9611,-2.0542,-2.0487,-1.9373,-1.8166,-1.689,0.0,0.0,0.0,0.0,0.0,0.0,0.0,0.0,0.0,0.0,0.0,0.0,0.0,0.0,0.0,0.0,0.0,0.0,0.0,0.0,0.0,0.0,0.0,0.0,0.0,0.0,0.0,0.0,0.0,0.0,0.0,0.0,0.0,0.0,0.0,0.0,0.0,0.0,0.0,0.0,0.0,-1.1055,-1.1469,-1.1865,-1.2148,0.0,0.0,0.0,-1.2158,-1.1826,0.0,0.0,0.0,0.0,0.0,0.0,0.0,0.0,0.0,0.0,0.0,0.0,0.0,0.0,0.0,0.0,0.0,0.0,0.0,0.0,0.0,0.0,0.0,0.0,0.0,0.0,0.0,0.0,0.0,0.0,0.0,0.0,0.0,0.0,0.0,0.0,0.0,0.0,0.0,0.0,0.0,0.0,0.0,0.0,0.0,0.0,0.0,0.0,0.0,0.0,0.0,0.0,0.0,0.0,0.0,-1.4984,-1.6141,-1.8313,-1.9423,-1.9431,-2.0276,-2.0233,-1.9159,-1.7813,-1.6554,0.0,0.0,0.0,0.0,0.0,0.0,0.0,0.0,0.0,0.0,0.0,0.0,0.0,0.0,0.0,0.0,0.0,0.0,0.0,0.0,0.0,0.0,0.0,0.0,0.0,0.0,0.0,0.0,0.0,0.0,0.0,0.0,0.0,0.0,0.0,0.0,0.0,0.0,0.0,0.0,0.0,0.0,-1.2153,-1.2638,0.0,0.0,0.0,-1.326,-1.326,0.0,0.0,0.0,0.0,0.0,0.0,0.0,0.0,0.0,0.0,0.0,0.0,0.0,0.0,0.0,0.0,0.0,0.0,0.0,0.0,0.0,0.0,0.0,0.0,0.0,0.0,0.0,0.0,0.0,0.0,0.0,0.0,0.0,0.0,0.0,0.0,0.0,0.0,0.0,0.0,0.0,0.0,0.0,0.0,0.0,0.0,0.0,0.0,0.0,0.0,0.0,0.0,0.0,0.0,0.0,0.0,0.0,-1.5895,-1.806,-1.9165,-1.9178,-2.0035,-1.9989,-1.8943,-1.7738,0.0,0.0,0.0,0.0,0.0,0.0,0.0,0.0,0.0,0.0,0.0,0.0,0.0,0.0,0.0,0.0,0.0,0.0,0.0,0.0,0.0,0.0,0.0,0.0,0.0,0.0,0.0,0.0,0.0,0.0,0.0,0.0,0.0,0.0,0.0,0.0,0.0,0.0,0.0,0.0,0.0,0.0,-1.2254,-1.2723,-1.3246,-1.3717,0.0,0.0,-1.4087,-1.4087,-1.3867,-1.3555,0.0,0.0,0.0,0.0,0.0,0.0,0.0,0.0,0.0,0.0,0.0,0.0,0.0,0.0,0.0,0.0,0.0,0.0,0.0,0.0,0.0,0.0,0.0,0.0,0.0,0.0,0.0,0.0,0.0,0.0,0.0,0.0,0.0,0.0,0.0,0.0,0.0,0.0,0.0,0.0,0.0,0.0,0.0,0.0,0.0,0.0,0.0,0.0,0.0,0.0,0.0,0.0,0.0,0.0,0.0,-1.5689,-1.7817,-1.8904,-1.8766,-1.9693,-1.9707,-1.8678,-1.8003,-1.6833,0.0,0.0,0.0,0.0,0.0,0.0,0.0,0.0,0.0,0.0,0.0,0.0,0.0,0.0,0.0,0.0,0.0,0.0,0.0,0.0,0.0,0.0,0.0,0.0,0.0,0.0,0.0,0.0,0.0,0.0,0.0,0.0,0.0,0.0,0.0,0.0,0.0,0.0,0.0,0.0,0.0,-1.2516,-1.2991,-1.3556,-1.3888,0.0,0.0,-1.4087,-1.4087,-1.4068,-1.4082,-1.4053,0.0,0.0,0.0,0.0,0.0,0.0,0.0,0.0,0.0,0.0,0.0,0.0,0.0,0.0,0.0,0.0,0.0,0.0,0.0,0.0,0.0,0.0,0.0,0.0,0.0,0.0,0.0,0.0,0.0,0.0,0.0,0.0,0.0,0.0,0.0,0.0,0.0,0.0,0.0,0.0,0.0,0.0,0.0,0.0,0.0,0.0,0.0,0.0,0.0,0.0,0.0,0.0,0.0,-1.5168,-1.6023,-1.7782,-1.884,-1.9127,-1.9736,-1.9571,-1.8512,-1.7847,-1.6713,0.0,0.0,0.0,0.0,0.0,0.0,0.0,0.0,0.0,0.0,0.0,0.0,0.0,0.0,0.0,0.0,0.0,0.0,0.0,0.0,0.0,0.0,0.0,0.0,0.0,0.0,0.0,0.0,-0.6074,-0.6401,-0.6721,0.0,0.0,0.0,0.0,0.0,0.0,0.0,0.0,0.0,0.0,-1.288,-1.3596,-1.4213,0.0,0.0,-1.5321,-1.5507,-1.5361,-1.5098,-1.4834,-1.458,-1.418,0.0,0.0,0.0,0.0,0.0,0.0,0.0,0.0,0.0,0.0,0.0,0.0,0.0,0.0,0.0,0.0,0.0,0.0,0.0,0.0,0.0,0.0,0.0,0.0,0.0,0.0,0.0,0.0,0.0,0.0,0.0,0.0,0.0,0.0,0.0,0.0,0.0,0.0,0.0,0.0,0.0,0.0,0.0,0.0,0.0,0.0,0.0,0.0,0.0,0.0,0.0,0.0,-1.5361,-1.6464,-1.7843,-1.8801,-1.9326,-1.9737,-1.9485,-1.8611,-1.7962,-1.6923,0.0,0.0,0.0,0.0,0.0,0.0,0.0,0.0,0.0,0.0,0.0,0.0,0.0,0.0,0.0,0.0,0.0,0.0,0.0,0.0,0.0,0.0,0.0,0.0,0.0,0.0,0.0,0.0,-0.6514,-0.7013,-0.7623,0.0,0.0,0.0,0.0,0.0,0.0,0.0,0.0,0.0,0.0,-1.3424,-1.405,-1.4753,-1.5374,-1.579,-1.6138,-1.6287,-1.6237,-1.5945,-1.5634,-1.541,0.0,0.0,0.0,0.0,0.0,0.0,0.0,0.0,0.0,0.0,0.0,0.0,0.0,0.0,0.0,0.0,0.0,0.0,0.0,0.0,0.0,0.0,0.0,0.0,0.0,0.0,0.0,0.0,0.0,0.0,-1.4365,0.0,0.0,0.0,0.0,0.0,0.0,0.0,0.0,0.0,0.0,0.0,0.0,0.0,0.0,0.0,0.0,0.0,0.0,0.0,0.0,0.0,0.0,0.0,-1.6769,-1.7842,-1.8659,-1.9217,-1.9585,-1.9547,-1.8958,-1.848,-1.7639,-1.6459,0.0,0.0,0.0,0.0,0.0,0.0,0.0,0.0,0.0,0.0,0.0,0.0,0.0,0.0,0.0,0.0,0.0,0.0,0.0,0.0,0.0,0.0,0.0,0.0,0.0,0.0,-0.6508,-0.7042,-0.7661,0.0,0.0,0.0,0.0,0.0,0.0,0.0,0.0,0.0,0.0,-1.337,-1.4291,-1.4327,-1.5166,-1.5854,-1.5872,-1.6102,-1.623,-1.6373,-1.6364,-1.6437,0.0,0.0,0.0,0.0,0.0,0.0,0.0,0.0,0.0,0.0,0.0,0.0,0.0,0.0,0.0,0.0,0.0,0.0,0.0,0.0,0.0,0.0,0.0,0.0,0.0,0.0,0.0,-1.6743,-1.6659,0.0,0.0,0.0,0.0,0.0,0.0,0.0,0.0,0.0,0.0,0.0,-1.7505,-1.7362,0.0,0.0,0.0,0.0,0.0,0.0,0.0,0.0,0.0,0.0,0.0,0.0,-1.6163,-1.7226,-1.792,-1.8727,-1.956,-1.971,-1.956,-1.8995,-1.8493,-1.7325,-1.552,0.0,0.0,0.0,0.0,0.0,0.0,0.0,0.0,0.0,0.0,0.0,0.0,0.0,0.0,0.0,0.0,0.0,0.0,0.0,0.0,0.0,0.0,0.0,0.0,0.0,-0.7409,0.0,0.0,0.0,0.0,0.0,0.0,0.0,0.0,0.0,0.0,0.0,-1.1862,-1.2949,-1.3457,-1.4013,-1.471,-1.5494,-1.6035,0.0,0.0,0.0,0.0,0.0,0.0,0.0,0.0,0.0,0.0,0.0,0.0,0.0,0.0,-1.5003,-1.4077,-1.3809,-1.3711,-1.3721,0.0,0.0,0.0,0.0,0.0,0.0,0.0,0.0,0.0,0.0,0.0,0.0,0.0,0.0,-1.8712,0.0,-1.8063,0.0,0.0,0.0,0.0,0.0,0.0,0.0,0.0,-1.9085,-1.9319,-1.954,-1.9335,-1.9114,0.0,-1.8167,-1.6832,0.0,0.0,0.0,0.0,0.0,0.0,0.0,0.0,-1.6675,-1.7718,-1.8216,-1.8907,-1.9748,-1.9798,-1.9635,-1.9296,-1.8593,-1.7237,-1.5229,-1.4099,-1.2885,0.0,0.0,0.0,0.0,0.0,0.0,0.0,0.0,0.0,0.0,0.0,0.0,0.0,0.0,0.0,0.0,0.0,0.0,0.0,0.0,0.0,0.0,0.0,-0.8597,0.0,0.0,0.0,0.0,0.0,0.0,0.0,0.0,0.0,-1.1328,-1.1672,-1.2348,-1.3361,-1.3814,-1.4397,-1.5225,0.0,0.0,0.0,0.0,0.0,0.0,0.0,-1.7257,-1.7081,-1.7149,-1.7159,-1.6997,-1.6968,-1.693,-1.6787,0.0,0.0,-1.5071,-1.4811,-1.4821,-1.4811,-1.4811,-1.4811,-1.4811,-1.4859,-1.4916,0.0,0.0,0.0,0.0,0.0,0.0,0.0,0.0,-2.1067,-2.0683,0.0,-2.0428,0.0,0.0,0.0,0.0,0.0,0.0,0.0,0.0,-2.0882,-2.1251,-2.1206,-2.0933,-2.0702,-2.0535,-1.9844,-1.9061,-1.8236,-1.6573,0.0,0.0,0.0,0.0,0.0,0.0,-1.7238,-1.8216,-1.8744,-1.9221,-1.9773,-1.9798,-1.9786,-1.9723,-1.8744,-1.7426,-1.5793,-1.4702,-1.3846,-1.3185,-1.1161,0.0,0.0,0.0,0.0,0.0,0.0,0.0,0.0,0.0,0.0,0.0,0.0,0.0,0.0,0.0,0.0,0.0,0.0,0.0,0.0,-0.8815,0.0,0.0,0.0,0.0,0.0,0.0,0.0,0.0,0.0,0.0,-1.2094,-1.2568,-1.317,-1.3476,0.0,0.0,0.0,0.0,-1.7133,-1.7647,-1.7794,-1.7942,-1.8304,-1.8387,-1.8387,-1.8618,0.0,0.0,-1.8071,-1.7996,-1.7854,-1.7486,-1.742,-1.7166,-1.6383,-1.623,-1.6182,-1.6192,-1.6135,-1.6201,-1.6201,-1.6166,-1.6258,-2.9173,0.0,0.0,0.0,0.0,-2.4388,-2.3934,-2.378,-2.3413,-2.3218,-2.3179,-2.2949,0.0,0.0,0.0,0.0,0.0,0.0,-2.1969,-2.2211,-2.2328,-2.2428,-2.2606,-2.2519,-2.2366,-2.2135,-2.1295,-2.0788,-2.0515,-1.9024,-1.7738,-1.6578,0.0,0.0,0.0,0.0,-1.8078,-1.8707,-1.8945,-1.9271,-1.9798,-1.9798,-1.9623,-1.9246,-1.8568,-1.7601,-1.6321,-1.5229,-1.4199,-1.3235,-1.2221,0.0,0.0,0.0,0.0,0.0,0.0,0.0,0.0,0.0,0.0,0.0,0.0,0.0,0.0,0.0,0.0,0.0,0.0,0.0,-0.9489,-1.0031,-1.0593,0.0,0.0,0.0,0.0,0.0,0.0,0.0,0.0,0.0,-1.353,-1.3561,-1.3739,0.0,0.0,-1.5357,-1.603,-1.6612,-1.694,-1.7128,0.0,0.0,0.0,-1.7886,-1.7952,-1.8035,-1.8258,-1.8516,-1.8486,-1.8375,-1.8265,-1.8143,-1.7979,-1.7833,-1.7592,-1.7058,-1.6666,-1.6581,-1.6438,-1.6239,-1.623,-1.622,-1.6303,-3.1795,-2.9613,-2.8528,-2.7753,-2.715,-2.6569,-2.6224,-2.6035,-2.5889,-2.58,-2.5696,-2.5243,-2.5002,-2.4852,-2.4311,0.0,0.0,0.0,-2.3223,-2.337,-2.3523,-2.3687,-2.377,-2.3702,-2.3497,-2.325,-2.2243,-2.1692,-2.1639,-2.0745,-1.9812,-1.8874,0.0,0.0,-1.7806,-1.8254,-1.8694,-1.8983,-1.9233,-1.9497,-1.9798,-1.9798,-1.956,-1.8983,-1.8493,-1.7777,-1.6886,-1.5781,-1.4789,-1.391,-1.311,-1.2146,0.0,0.0,0.0,0.0,0.0,0.0,0.0,0.0,0.0,0.0,0.0,-0.6968,0.0,0.0,0.0,0.0,-0.9239,-1.0038,-1.0967,-1.1407,0.0,0.0,0.0,0.0,0.0,0.0,0.0,-1.3644,-1.3547,-1.3768,-1.4302,-1.439,-1.4467,-1.4751,-1.5087,-1.5507,-1.6167,0.0,-1.6953,-1.7174,-1.751,-1.7803,-1.803,-1.8204,-1.8404,-1.8565,-1.8828,-1.8921,-1.8852,-1.8825,-1.8693,-1.8556,-1.8452,-1.8375,-1.8366,-1.7789,-1.7343,-1.7334,-1.7042,-1.6875,-1.6943,-1.7011,-1.7079,-3.389,-3.2832,-3.1357,-3.0133,-2.9218,-2.8824,-2.8568,-2.8455,-2.8373,-2.824,-2.8016,-2.7342,-2.6939,-2.6732,-2.5584,0.0,-2.504,-2.4501,-2.4221,-2.4094,-2.4694,-2.4926,-2.474,-2.4553,-2.4334,-2.4158,-2.2894,-2.2197,-2.2099,-2.1873,-2.1767,-2.1703,-1.9674,-1.8599,-1.8505,-1.8982,-1.9221,-1.9183,-1.9648,-1.9849,-1.9798,-1.9798,-1.9572,-1.9058,-1.8555,-1.8016,-1.7451,-1.6358,-1.5505,-1.4979,-1.3935,-1.306,-1.2447,0.0,0.0,0.0,0.0,0.0,0.0,0.0,0.0,0.0,0.0,0.0,0.0,0.0,0.0,0.0,-1.104,0.0,-1.2297,-1.2867,0.0,0.0,0.0,-1.3877,-1.4622,-1.4175,-1.4073,-1.4693,0.0,0.0,-1.472,0.0,-1.5188,-1.5091,-1.5444,-1.5779,-1.6166,-1.6644,-1.7078,-1.7588,-1.7882,-1.8254,-1.8676,-1.8911,-1.9164,-1.9472,-1.9768,-1.9556,-1.9247,-1.9168,-1.9053,-1.8762,-1.8709,-1.8709,-1.8709,-1.8373,-1.8106,-1.8113,-1.7904,-1.7757,-1.7935,-1.8055,-1.8174,-3.5691,-3.5038,-3.4435,-3.2714,-3.0389,-3.0088,-2.9884,-2.9715,-2.9538,-2.938,-2.9313,-2.9042,-2.8808,-2.8459,-2.7958,-2.7533,-2.7228,-2.6863,-2.6464,-2.6099,-2.6121,-2.5881,-2.5529,-2.5467,-2.5283,-2.4983,-2.4144,-2.3692,-2.3593,-2.264,-2.2166,-2.2115,-2.1222,-2.0756,-2.0715,-2.084,-2.0903,-2.0903,-2.0614,-2.025,-1.9823,-1.9798,-1.9748,-1.961,-1.9095,-1.8581,-1.8016,-1.6923,-1.607,-1.5517,-1.4839,-1.4036,-1.306,-1.2626,0.0,0.0,0.0,0.0,0.0,0.0,0.0,0.0,0.0,-0.9339,-0.945,0.0,-1.0845,0.0,-1.2305,-1.3223,-1.3643,-1.3901,0.0,0.0,-1.5081,-1.5132,-1.542,-1.5446,-1.5518,-1.5477,-1.5146,-1.5134,-1.5564,-1.545,-1.5551,-1.6004,-1.6032,-1.6171,-1.6431,-1.7085,-1.7523,-1.7672,-1.8014,-1.8311,-1.8479,-1.8683,-1.8982,-1.923,-1.9256,-1.9204,-1.9118,-1.9101,-1.9075,-1.8989,-1.8981,-1.8981,-1.8963,-1.8819,-1.8614,-1.8464,-1.7986,-1.7596,-1.7671,-1.768,-1.7746,-3.6778,-3.6214,-3.5561,-3.4242,-3.2578,-3.2252,-3.2048,-3.1881,-3.1656,-3.1501,-3.1414,-3.0604,-2.977,-2.8876,-2.8581,-2.8197,-2.7879,-2.744,-2.7023,-2.6702,-2.6698,-2.6443,-2.6076,-2.6076,-2.5884,-2.5537,-2.4862,-2.4545,-2.4432,-2.3477,-2.3062,-2.3037,-2.2498,-2.2221,-2.2209,-2.1744,-2.1481,-2.1481,-2.0995,-2.0514,-2.02,-1.9936,-1.9798,-1.9786,-1.9309,-1.8769,-1.8216,-1.7363,-1.6534,-1.5743,-1.5404,-1.4852,-1.4023,-1.3791,-1.3312,0.0,0.0,0.0,0.0,0.0,0.0,0.0,0.0,0.0,0.0,0.0,-1.2357,0.0,-1.4014,-1.4824,-1.5244,-1.5446,-1.5847,-1.6608,-1.6492,-1.6378,-1.6484,-1.6409,-1.6338,-1.6434,-1.5874,-1.5767,-1.6423,-1.6019,-1.5799,-1.6154,-1.6168,-1.6265,-1.6598,-1.7067,-1.7358,-1.7437,-1.7692,-1.8088,-1.8409,-1.8861,-1.9154,-1.9323,-1.9314,-1.9272,-1.9104,-1.9062,-1.9011,-1.8843,-1.8801,-1.8801,-1.8801,-1.8724,-1.8562,-1.849,-1.8175,-1.7906,-1.7873,-1.7881,-1.7958,-3.7452,-3.6942,-3.5868,-3.5347,-3.5132,-3.4691,-3.4317,-3.3985,-3.3789,-3.3592,-3.3363,-3.1945,-3.0514,-2.9073,-2.8699,-2.8379,-2.8012,-2.7465,-2.7074,-2.6733,-2.6927,-2.6843,-2.6478,-2.6478,-2.6334,-2.5965,-2.5367,-2.505,-2.4895,-2.4368,-2.4067,-2.3979,-2.3489,-2.3153,-2.304,-2.2171,-2.1669,-2.1581,-2.1117,-2.0815,-2.0706,-2.0162,-1.9874,-1.9786,-1.9359,-1.8869,-1.8329,-1.7852,-1.7112,-1.6095,-1.5957,-1.5655,-1.5116,-1.4883,-1.4506,0.0,-1.366,0.0,0.0,0.0,0.0,0.0,0.0,0.0,0.0,-1.309,-1.3967,-1.4988,-1.5762,-1.6436,-1.6934,-1.7108,-1.7504,-1.8048,-1.7968,-1.7733,-1.7619,-1.7209,-1.705,-1.7449,-1.6692,-1.6446,-1.7026,-1.6522,-1.6092,-1.6192,-1.6203,-1.633,-1.6661,-1.6892,-1.7092,-1.7039,-1.7297,-1.7822,-1.8425,-1.8985,-1.9363,-1.9371,-1.9347,-1.9281,-1.8873,-1.8816,-1.8807,-1.8433,-1.8392,-1.8368,-1.8344,-1.8352,-1.8335,-1.8278,-1.83,-1.8327,-1.8348,-1.8351,-1.844,-3.8237,-3.7652,-3.7367,-3.6951,-3.6549,-3.6245,-3.5294,-3.3985,-3.3668,-3.3423,-3.3208,-3.28,-3.2302,-3.1681,-3.0927,-3.0247,-2.9778,-2.887,-2.822,-2.7811,-2.7709,-2.7366,-2.6925,-2.6857,-2.671,-2.6332,-2.5791,-2.5448,-2.5448,-2.4908,-2.4443,-2.4004,-2.3891,-2.3602,-2.309,0.0,0.0,0.0,-2.2058,-2.1568,-2.0702,-2.0564,-2.0275,-1.9823,-1.9698,0.0,-1.8907,-1.8769,-1.8417,-1.7765,-1.7313,0.0,0.0,0.0,0.0,0.0,0.0,0.0,0.0,0.0,0.0,0.0,-1.5289,-1.515,-1.4501,-1.521,-1.5891,-1.6309,-1.6836,-1.7441,-1.8134,-1.8151,-1.826,-1.8521,-1.8957,-1.9008,-1.847,-1.8521,-1.8642,-1.8319,-1.7486,-1.7026,-1.74,-1.686,-1.6507,-1.6722,-1.6657,-1.6563,-1.6593,-1.6928,-1.7328,-1.7535,-1.7751,-1.7988,-1.8164,-1.8319,-1.8465,-1.8365,-1.8365,-1.8334,-1.8356,-1.8249,-1.8264,-1.814,-1.8164,-1.8148,-1.8148,-1.8171,-1.8131,-1.7799,-1.7932,-1.8073,-1.8341,-1.8272,-1.8328,-3.8455,0.0,-3.7759,-3.7421,0.0,-3.6616,-3.5921,-3.4971,-3.4708,-3.4262,-3.3698,-3.3539,-3.3108,-3.2483,-3.1846,-3.1239,-3.0675,-2.9738,-2.9021,-2.8559,-2.8053,-2.7523,-2.7024,-2.7024,-2.682,-2.6521,-2.6163,-2.6025,-2.6,-2.546,-2.5059,-2.4782,-2.4268,-2.3853,-2.3565,-2.3288,-2.2927,-2.2723,-2.2447,-2.2046,-2.1481,-2.0995,-2.0526,-2.0238,0.0,0.0,0.0,0.0,0.0,0.0,0.0,0.0,0.0,0.0,0.0,-1.6593,-1.6357,-1.6346,-1.6621,-1.6671,-1.6667,-1.6822,-1.7513,-1.7328,-1.6028,-1.6769,-1.7367,-1.7475,-1.8007,-1.8584,-1.9189,-1.9399,-1.9551,-1.9668,-2.0108,-2.007,-1.9377,-1.9268,-1.9144,-1.8792,-1.8033,-1.7543,-1.7781,-1.7099,-1.6693,-1.6756,-1.6494,-1.6298,-1.6407,-1.6683,-1.7052,-1.7347,-1.7527,-1.78,-1.79,-1.7994,-1.8087,-1.8087,-1.8087,-1.8087,-1.8087,-1.8087,-1.8087,-1.8087,-1.8087,-1.8087,-1.8087,-1.8087,-1.8025,-1.788,-1.7919,-1.8071,-1.8393,-1.8319,-1.8219,-3.8583,-3.8132,-3.786,-3.7464,-3.6999,-3.6693,-3.6352,-3.5973,0.0,0.0,0.0,-3.4203,-3.3651,-3.2817,-3.2378,-3.1863,-3.1274,-3.0262,-2.9482,-2.8986,-2.8186,-2.7523,-2.7011,-2.7024,-2.682,-2.6521,-2.6521,-2.6521,-2.6508,-2.5975,-2.5699,-2.5523,-2.4707,-2.418,-2.4041,-2.3439,-2.3125,-2.3173,-2.2686,-2.241,-2.2297,-2.143,-2.0957,-2.0869,-2.025,-1.9748,-1.9346,-1.9221,-1.8957,-1.8518,-1.8405,-1.8355,-1.8355,-1.8246,-1.8127,-1.8142,-1.7982,-1.8022,-1.8253,-1.8049,-1.8153,-1.8731,-1.9315,-1.8912,-1.7338,-1.8056,-1.8606,-1.8606,-1.9128,-1.959,-2.0098,-2.0459,-2.0701,-2.0723,-2.1049,-2.096,-2.0045,-1.9764,-1.96,-1.9148,-1.8497,-1.804,-1.8025,-1.7225,-1.6588,-1.6487,-1.6211,-1.5832,-1.6123,-1.64,-1.6683,-1.6972,-1.7059,-1.7239,-1.7434,-1.7628,-1.78,-1.7714,-1.78,-1.78,-1.78,-1.78,-1.7807,-1.7714,-1.78,-1.7807,-1.78,-1.7807,-1.79,-1.79,-1.7994,-1.8087,-1.8334,-1.83,-1.8248,-3.8639,-3.8335,-3.7992,-3.7626,-3.7134,-3.6999,-3.6569,-3.5988,-3.5683,-3.5365,-3.508,-3.4868,-3.4545,-3.4109,-3.3159,-3.25,-3.1887,-3.0441,-2.9549,0.0,-2.8199,-2.7536,-2.7024,-2.7024,-2.6807,-2.6521,-2.6521,-2.6521,-2.6508,-2.6433,-2.6088,-2.5636,-2.5435,-2.4973,-2.4203,-2.3609,-2.339,-2.3509,-2.317,-2.2727,-2.2322,-2.2159,-2.1845,-2.1368,-2.0828,-2.0514,-2.0479,-1.9962,-1.966,-1.9572,-1.9158,-1.892,-1.8858,-1.887,-1.9008,-1.9317,-1.9617,-1.9903,-2.0177,-1.9908,-1.9817,-2.0042,-1.9944,-1.9488,-1.8837,-1.9341,-1.9775,-1.9895,-1.9895,-2.0166,-2.0918,-2.1103,-2.1167,-2.1151,-2.1476,-2.1302,-2.0437,-2.0439,-2.0193,-1.9555,-1.884,-1.828,-1.8064,-1.7246,-1.6683,-1.6581,-1.6109,-1.5825,-1.5927,-1.6305,-1.6581,-1.6676,-1.6676,-1.6676,-1.6871,-1.6777,-1.6871,-1.6777,-1.6871,-1.6958,-1.6958,-1.6958,-1.6965,-1.6871,-1.6965,-1.6871,-1.6871,-1.6972,-1.7167,-1.7254,-1.7441,-1.7815,-1.8094,-1.8241,-1.8541,-3.875,-3.8488,-3.8132,-3.7711,-3.7298,-3.6907,-3.6429,-3.5973,-3.5718,-3.5539,-3.5359,-3.5001,-3.4802,-3.4572,-3.384,-3.3235,-3.2834,-3.1514,-3.0406,-2.959,-2.8812,-2.7958,-2.7227,-2.7024,-2.6888,-2.6589,-2.6521,-2.6521,-2.6521,-2.6602,-2.6451,-2.6186,-2.6029,-2.5548,-2.4823,-2.4236,-2.4016,-2.4064,-2.3603,-2.3251,-2.301,-2.2647,-2.2311,-2.2116,-2.1461,-2.1104,-2.1104,-2.0865,-2.0715,-2.0715,-2.0501,-2.0363,-2.0351,-2.0363,-2.0423,-2.0511,-2.0582,-2.0738,-2.0983,-2.1075,-2.1192,-2.1464,-2.1281,-2.101,-2.0523,-2.0422,-2.0394,-2.0372,-2.0562,-2.086,-2.1211,-2.165,-2.1845,-2.1777,-2.1997,-2.1798,-2.1201,-2.0971,-2.0555,-1.9845,-1.9196,-1.8727,-1.8172,-1.7426,-1.6864,-1.6676,-1.6109,-1.5825,-1.5825,-1.6021,-1.6211,-1.6312,-1.64,-1.6494,-1.6588,-1.6588,-1.6588,-1.6588,-1.6588,-1.6588,-1.6588,-1.6588,-1.6588,-1.6588,-1.6588,-1.6588,-1.6588,-1.6683,-1.6784,-1.6979,-1.7167,-1.7441,-1.7815,-1.8373,-1.8891,-3.8931,-3.8623,-3.8286,-3.7886,-3.7298,-3.6723,-3.6352,-3.6037,-3.5816,-3.5638,-3.5489,-3.5133,-3.492,-3.4868,-3.4278,-3.3882,-3.3437,-3.2375,-3.1268,-3.0131,-2.9361,-2.8437,-2.7387,-2.7134,-2.6943,-2.6794,-2.6671,-2.6589,-2.6602,-2.6726,-2.6794,-2.6744,-2.6381,-2.6,-2.5614,-2.506,-2.4774,-2.4693,-2.4219,-2.3875,-2.3616,-2.3076,-2.2827,-2.2776,-2.2141,-2.1794,-2.1725,-2.1612,-2.1536,-2.1493,-2.1481,-2.1481,-2.1493,-2.1606,-2.1625,-2.1524,-2.1453,-2.1528,-2.174,-2.2034,-2.2317,-2.2594,-2.2417,-2.2241,-2.1912,-2.1522,-2.1124,-2.0913,-2.1222,-2.143,-2.1572,-2.209,-2.2464,-2.2313,-2.233,-2.2138,-2.1731,-2.1275,-2.0727,-2.0019,-1.9463,-1.8912,-1.8265,-1.7613,-1.7052,-1.6588,-1.6116,-1.5825,-1.5825,-1.5825,-1.5927,-1.6028,-1.613,-1.6123,-1.64,-1.64,-1.64,-1.64,-1.64,-1.64,-1.64,-1.6393,-1.6393,-1.64,-1.6393,-1.64,-1.64,-1.6494,-1.6588,-1.6784,-1.6979,-1.7167,-1.7721,-1.855,-1.9214,-3.9094,-3.875,-3.8488,-3.7902,-3.7194,-3.6723,-3.6414,-3.6148,-3.5816,-3.5703,-3.5623,-3.5329,-3.5082,-3.4868,-3.4467,-3.4088,-3.3563,-3.2513,-3.1488,-3.0351,-2.9416,-2.8437,-2.7562,-2.7335,-2.7134,-2.7011,-2.6956,-2.6943,-2.6956,-2.6943,-2.7024,-2.6879,-2.646,-2.6362,-2.6466,-2.5994,-2.5581,-2.5336,-2.5256,-2.4728,-2.3654,-2.3518,-2.3492,-2.3492,-2.3,-2.2592,-2.2477,-2.1982,-2.166,-2.1481,-2.1518,-2.1506,-2.1556,-2.197,-2.2234,-2.2272,-2.2533,-2.2764,-2.2862,-2.297,-2.3141,-2.327,-2.282,-2.255,-2.2584,-2.2569,-2.2356,-2.1827,-2.1561,-2.1836,-2.2285,-2.248,-2.2609,-2.2737,-2.2482,-2.2176,-2.182,-2.1275,-2.0727,-2.0019,-1.9563,-1.8912,-1.8272,-1.7613,-1.7052,-1.6407,-1.6028,-1.5825,-1.5825,-1.5825,-1.5825,-1.5832,-1.5832,-1.5832,-1.5927,-1.592,-1.592,-1.5927,-1.5927,-1.592,-1.592,-1.592,-1.592,-1.6015,-1.5927,-1.592,-1.6021,-1.6021,-1.6312,-1.6595,-1.6878,-1.716,-1.79,-1.8643,-1.9239,-3.9202,-3.8914,-3.8639,-3.8059,-3.7298,-3.6907,-3.6616,-3.6352,-3.6022,-3.5831,-3.5688,-3.5474,-3.5213,-3.4868,-3.4534,-3.4157,-3.373,-3.3114,-3.1972,-3.061,-3.0038,-2.9107,-2.7934,-2.7536,-2.7403,-2.7268,-2.7079,-2.7024,-2.7024,-2.7214,-2.7403,-2.7603,-2.7433,-2.7394,-2.7471,-2.6916,-2.6555,-2.6454,-2.6121,-2.5707,-2.5174,-2.432,-2.3878,-2.3734,-2.3469,-2.3224,-2.3153,-2.2936,-2.2763,-2.2647,-2.2647,-2.2602,-2.246,-2.2673,-2.2949,-2.3288,-2.358,-2.3806,-2.408,-2.3974,-2.3896,-2.4047,-2.358,-2.3172,-2.2767,-2.2839,-2.2741,-2.2312,-2.2401,-2.2575,-2.2565,-2.2734,-2.2872,-2.294,-2.2608,-2.2353,-2.2176,-2.1454,-2.0817,-2.0382,-1.9845,-1.9196,-1.8357,-1.752,-1.6864,-1.64,-1.6116,-1.5825,-1.5825,-1.5825,-1.5825,-1.5825,-1.5825,-1.5825,-1.5825,-1.5825,-1.5825,-1.5825,-1.5825,-1.5825,-1.5825,-1.5825,-1.5825,-1.5825,-1.5825,-1.5825,-1.5825,-1.5927,-1.6028,-1.6407,-1.6784,-1.7261,-1.7994,-1.855,-1.9104,-3.9362,-3.904,-3.8711,-3.8116,-3.7492,-3.721,-3.6923,-3.6538,-3.6226,-3.6037,-3.5767,-3.5604,-3.5344,-3.4935,-3.4668,-3.4361,-3.402,-3.3605,-3.2597,-3.1198,-3.0651,-2.9686,-2.8505,-2.7934,-2.7669,-2.7603,-2.7416,-2.7281,-2.7348,-2.7536,-2.7802,-2.8131,-2.8131,-2.8197,-2.8274,-2.7857,-2.7574,-2.7449,-2.7058,-2.6714,-2.6398,-2.5482,-2.4741,-2.436,-2.4001,-2.3865,-2.3747,-2.376,-2.3628,-2.345,-2.339,-2.3406,-2.3424,-2.3364,-2.3627,-2.4192,-2.4474,-2.4681,-2.4871,-2.4675,-2.4578,-2.4587,-2.4189,-2.3604,-2.3099,-2.311,-2.3119,-2.2727,-2.3119,-2.3188,-2.281,-2.2959,-2.3125,-2.3057,-2.2706,-2.2441,-2.2344,-2.1535,-2.0916,-2.0654,-2.0027,-1.9304,-1.845,-1.7426,-1.6588,-1.6494,-1.6116,-1.5825,-1.5825,-1.5825,-1.5825,-1.5825,-1.5825,-1.5825,-1.5825,-1.5825,-1.5825,-1.5825,-1.5825,-1.5825,-1.5825,-1.5825,-1.5825,-1.5825,-1.5825,-1.5825,-1.5825,-1.5832,-1.5927,-1.6312,-1.6697,-1.7254,-1.7994,-1.845,-1.892,-3.952,-3.9218,-3.8655,-3.8164,-3.7685,-3.7433,-3.7134,-3.6723,-3.6538,-3.6289,-3.5973,-3.5767,-3.5509,-3.5213,-3.4935,-3.4668,-3.4332,-3.3799,-3.3085,-3.2162,-3.1021,-3.0093,-2.9428,-2.8544,-2.8079,-2.8079,-2.8013,-2.8013,-2.8013,-2.8066,-2.8131,-2.83,-2.8352,-2.8481,-2.8739,-2.8684,-2.8551,-2.8236,-2.814,-2.7789,-2.7174,-2.7023,-2.637,-2.5514,-2.4824,-2.4482,-2.4178,-2.4093,-2.3962,-2.3654,-2.3586,-2.3682,-2.4064,-2.4029,-2.423,-2.4693,-2.5099,-2.5197,-2.5105,-2.5196,-2.5063,-2.4778,-2.4273,-2.3751,-2.3345,-2.3544,-2.3503,-2.3103,-2.3466,-2.3501,-2.3153,-2.3096,-2.3144,-2.3047,-2.2696,-2.2432,-2.2441,-2.1535,-2.1006,-2.0654,-2.0027,-1.9204,-1.8272,-1.7239,-1.6683,-1.6494,-1.6109,-1.5825,-1.5825,-1.5825,-1.5825,-1.5825,-1.5825,-1.5825,-1.5825,-1.5825,-1.5825,-1.5825,-1.5825,-1.5825,-1.5825,-1.5825,-1.5825,-1.5825,-1.5825,-1.5825,-1.5825,-1.592,-1.6116,-1.6407,-1.669,-1.7246,-1.7994,-1.8265,-1.8827,-3.9642,-3.9272,-3.8766,-3.8375,-3.8107,-3.761,-3.7222,-3.7013,-3.6662,-3.6352,-3.6085,-3.5816,-3.5623,-3.5524,-3.5198,-3.4817,-3.4414,-3.4059,-3.3374,-3.2396,-3.1509,-3.0657,-2.9786,-2.8975,-2.856,-2.856,-2.8471,-2.8457,-2.8573,-2.8573,-2.8638,-2.8817,-2.8867,-2.8994,-2.9121,-2.9275,-2.9213,-2.9108,-2.908,-2.8982,-2.8655,-2.8185,-2.7718,-2.7316,-2.6383,-2.5788,-2.5501,-2.544,-2.5245,-2.5,-2.489,-2.4807,-2.476,-2.4962,-2.5096,-2.5347,-2.566,-2.5834,-2.564,-2.5496,-2.5265,-2.4861,-2.4345,-2.3971,-2.3796,-2.3748,-2.3682,-2.3629,-2.3724,-2.3647,-2.3406,-2.3232,-2.3144,-2.3047,-2.2706,-2.2441,-2.2255,-2.1624,-2.0997,-2.0736,-1.9837,-1.8827,-1.8179,-1.7246,-1.6588,-1.6581,-1.6116,-1.5825,-1.5825,-1.5825,-1.5825,-1.5825,-1.5825,-1.5825,-1.5825,-1.5825,-1.5825,-1.5825,-1.5825,-1.5825,-1.5825,-1.5825,-1.5825,-1.5825,-1.5825,-1.5825,-1.5825,-1.5825,-1.6021,-1.64,-1.6784,-1.7153,-1.79,-1.8265,-1.8735,-3.9642,-3.9272,-3.886,-3.8583,-3.8335,-3.7828,-3.7476,-3.7238,-3.6862,-3.6538,-3.6289,-3.5943,-3.5752,-3.5623,-3.5329,-3.5016,-3.4616,-3.4332,-3.3747,-3.2868,-3.2023,-3.1152,-3.0415,-2.9444,-2.8931,-2.8881,-2.883,-2.883,-2.8931,-2.8994,-2.9071,-2.9324,-2.9435,-2.9498,-2.9574,-2.9727,-2.9741,-2.9741,-2.9741,-2.9789,-2.967,-2.9256,-2.8881,-2.8764,-2.7988,-2.7223,-2.6518,-2.6356,-2.6171,-2.591,-2.5735,-2.5574,-2.5408,-2.5772,-2.5942,-2.5925,-2.617,-2.6188,-2.591,-2.5758,-2.5407,-2.4861,-2.4429,-2.4186,-2.4082,-2.3935,-2.3847,-2.3898,-2.3835,-2.3754,-2.3493,-2.3232,-2.3144,-2.3047,-2.2706,-2.2441,-2.2344,-2.1544,-2.0907,-2.0464,-1.9554,-1.8727,-1.8079,-1.7239,-1.6683,-1.6588,-1.6116,-1.5825,-1.5825,-1.5825,-1.5825,-1.5825,-1.5825,-1.5825,-1.5825,-1.5825,-1.5825,-1.5825,-1.5825,-1.5825,-1.5825,-1.5825,-1.5825,-1.5825,-1.5825,-1.5825,-1.5825,-1.5825,-1.6109,-1.6494,-1.6683,-1.6965,-1.7613,-1.8172,-1.868,-3.9573,-3.9325,-3.9094,-3.8766,-3.8448,-3.8189,-3.7828,-3.7417,-3.7105,-3.68,-3.6492,-3.6163,-3.5894,-3.5703,-3.5394,-3.5213,-3.5082,-3.4683,-3.4317,-3.3858,-3.2516,-3.1683,-3.1368,-3.0065,-2.9303,-2.9149,-2.9085,-2.9212,-2.931,-2.9373,-2.9498,-2.9747,-2.9808,-2.9946,-3.0111,-3.0125,-3.0125,-3.0111,-3.0172,-3.0111,-3.0111,-3.004,-2.9936,-2.9752,-2.9538,-2.8636,-2.6992,-2.6877,-2.6701,-2.6303,-2.6028,-2.5895,-2.6008,-2.6371,-2.6607,-2.6445,-2.644,-2.6314,-2.598,-2.591,-2.5548,-2.4861,-2.4429,-2.4209,-2.4247,-2.3978,-2.3879,-2.4065,-2.3931,-2.3764,-2.3503,-2.3232,-2.3144,-2.3047,-2.2696,-2.2441,-2.2255,-2.1535,-2.0645,-1.9845,-1.9112,-1.8643,-1.8087,-1.7239,-1.6683,-1.6494,-1.6109,-1.5825,-1.5825,-1.5825,-1.5825,-1.5825,-1.5825,-1.5825,-1.5825,-1.5825,-1.5825,-1.5825,-1.5825,-1.5825,-1.5825,-1.5825,-1.5825,-1.5825,-1.5825,-1.5825,-1.5825,-1.5825,-1.6116,-1.64,-1.6581,-1.6958,-1.7613,-1.8234,-1.8537,-3.9729,-3.952,-3.9325,-3.8985,-3.8655,-3.8432,-3.8033,-3.7626,-3.7373,-3.7013,-3.6662,-3.6414,-3.6163,-3.591,-3.5638,-3.5394,-3.5213,-3.5016,-3.4735,-3.4187,-3.3197,-3.2368,-3.1738,-3.092,-3.0262,-2.986,-2.9803,-2.9789,-2.9851,-2.9851,-2.996,-3.0129,-3.0326,-3.0447,-3.0582,-3.0717,-3.0776,-3.0776,-3.0776,-3.0776,-3.0776,-3.0582,-3.0401,-3.0326,-3.0097,-2.9501,-2.8809,-2.8269,-2.7954,-2.7749,-2.7442,-2.7,-2.6742,-2.6705,-2.6658,-2.6521,-2.6521,-2.6314,-2.598,-2.591,-2.5548,-2.4921,-2.4429,-2.434,-2.4481,-2.4119,-2.4006,-2.4251,-2.4029,-2.3667,-2.3493,-2.3232,-2.3135,-2.3144,-2.2696,-2.2353,-2.2255,-2.1535,-2.0645,-1.9754,-1.9112,-1.8643,-1.8087,-1.7239,-1.6588,-1.6588,-1.6116,-1.5825,-1.5825,-1.5825,-1.5825,-1.5825,-1.5825,-1.5825,-1.5825,-1.5825,-1.5825,-1.5825,-1.5825,-1.5825,-1.5825,-1.5825,-1.5825,-1.5825,-1.5825,-1.5825,-1.5825,-1.592,-1.6116,-1.64,-1.6588,-1.7153,-1.79,-1.8164,-1.8367,-3.9849,-3.9746,-3.9468,-3.9218,-3.8931,-3.86,-3.8262,-3.7934,-3.7551,-3.7178,-3.6907,-3.66,-3.6304,-3.6037,-3.5767,-3.5574,-3.5359,-3.5228,-3.5001,-3.4581,-3.3812,-3.2977,-3.2091,-3.1146,-3.0525,-3.0197,-3.0158,-3.0219,-3.028,-3.0341,-3.0462,-3.0582,-3.0702,-3.0836,-3.0881,-3.1028,-3.1087,-3.1087,-3.1087,-3.1087,-3.1087,-3.0895,-3.0762,-3.0628,-3.0401,-3.0158,-2.9837,-2.9289,-2.8844,-2.8587,-2.8118,-2.7523,-2.7079,-2.6875,-2.6726,-2.6533,-2.6396,-2.6258,-2.591,-2.5758,-2.5489,-2.4861,-2.4345,-2.4265,-2.4448,-2.4147,-2.3987,-2.4268,-2.4013,-2.3667,-2.3406,-2.3232,-2.3047,-2.2969,-2.2618,-2.2264,-2.19,-2.1275,-2.0564,-1.9754,-1.902,-1.855,-1.7994,-1.7246,-1.6683,-1.6494,-1.6116,-1.5825,-1.5825,-1.5825,-1.5825,-1.5825,-1.5825,-1.5825,-1.5825,-1.5825,-1.5825,-1.5825,-1.5825,-1.5825,-1.5825,-1.5825,-1.5825,-1.5825,-1.5825,-1.5825,-1.5825,-1.5825,-1.592,-1.6211,-1.6683,-1.7153,-1.7684,-1.7796,-1.8068,-3.9901,-3.9849,-3.959,-3.9448,-3.9202,-3.8805,-3.8528,-3.8278,-3.7786,-3.7358,-3.7118,-3.6723,-3.6367,-3.6037,-3.5816,-3.5653,-3.5489,-3.5294,-3.5213,-3.4934,-3.428,-3.3404,-3.2489,-3.1094,-3.038,-3.0233,-3.0326,-3.0447,-3.0642,-3.0702,-3.0895,-3.1087,-3.1058,-3.1132,-3.1205,-3.1146,-3.1205,-3.1264,-3.1205,-3.1205,-3.1205,-3.1132,-3.0999,-3.0821,-3.0702,-3.0507,-3.0251,-2.9713,-2.9226,-2.8651,-2.8118,-2.7603,-2.7146,-2.7024,-2.6807,-2.6521,-2.6339,-2.6131,-2.591,-2.5535,-2.5194,-2.479,-2.4307,-2.4093,-2.4425,-2.4089,-2.3885,-2.4159,-2.3927,-2.358,-2.3222,-2.3057,-2.296,-2.2706,-2.2451,-2.1989,-2.1168,-2.0826,-2.0292,-1.9671,-1.8928,-1.8357,-1.8087,-1.7153,-1.6683,-1.6494,-1.6116,-1.5825,-1.5825,-1.5825,-1.5825,-1.5825,-1.5825,-1.5825,-1.5825,-1.5825,-1.5825,-1.5825,-1.5825,-1.5825,-1.5825,-1.5825,-1.5825,-1.5825,-1.5825,-1.5825,-1.5825,-1.5825,-1.6015,-1.64,-1.677,-1.7145,-1.7402,-1.7675,-1.7858,-4.0003,-3.9918,-3.9729,-3.952,-3.9255,-3.8969,-3.8711,-3.8391,-3.8075,-3.7711,-3.7358,-3.7044,-3.6677,-3.6352,-3.6037,-3.5831,-3.5653,-3.5489,-3.5439,-3.5344,-3.4999,-3.4021,-3.2805,-3.1526,-3.085,-3.0836,-3.0821,-3.0895,-3.0955,-3.1014,-3.1132,-3.1234,-3.1336,-3.1467,-3.1597,-3.1712,-3.1754,-3.1769,-3.1655,-3.1612,-3.1569,-3.1351,-3.1234,-3.1176,-3.0866,-3.0702,-3.0447,-2.9761,-2.9135,-2.8651,-2.8276,-2.7736,-2.7268,-2.7079,-2.6875,-2.6533,-2.6339,-2.6131,-2.591,-2.5535,-2.5111,-2.4634,-2.4116,-2.4041,-2.4198,-2.3977,-2.3876,-2.3876,-2.3841,-2.358,-2.3232,-2.2969,-2.2618,-2.2087,-2.1919,-2.1642,-2.1087,-2.0645,-2.011,-1.9379,-1.8819,-1.8365,-1.7807,-1.7153,-1.6588,-1.6494,-1.6204,-1.5825,-1.5825,-1.5825,-1.5825,-1.5825,-1.5825,-1.5825,-1.5825,-1.5825,-1.5825,-1.5825,-1.5825,-1.5825,-1.5825,-1.5825,-1.5825,-1.5825,-1.5825,-1.5825,-1.5825,-1.5825,-1.6204,-1.6459,-1.6626,-1.6865,-1.7408,-1.7666,-1.7793,-4.0087,-3.9986,-3.9849,-3.9677,-3.9484,-3.9202,-3.8931,-3.8544,-3.823,-3.7886,-3.7508,-3.7181,-3.6816,-3.6492,-3.6178,-3.5894,-3.5703,-3.5554,-3.5504,-3.5385,-3.4733,-3.3921,-3.2874,-3.1707,-3.1087,-3.1087,-3.1132,-3.1176,-3.119,-3.1307,-3.1439,-3.1524,-3.1625,-3.1754,-3.1826,-3.194,-3.2012,-3.1996,-3.1883,-3.1883,-3.1841,-3.1655,-3.1452,-3.1336,-3.1102,-3.0776,-3.0401,-2.9761,-2.9198,-2.8702,-2.8327,-2.7881,-2.7335,-2.7079,-2.6875,-2.6533,-2.627,-2.598,-2.584,-2.5407,-2.4909,-2.449,-2.4043,-2.3969,-2.3978,-2.3828,-2.3628,-2.3766,-2.3734,-2.3406,-2.3057,-2.2706,-2.2264,-2.182,-2.1463,-2.1105,-2.0727,-2.0382,-1.9828,-1.9188,-1.8635,-1.8179,-1.7621,-1.6958,-1.6588,-1.6407,-1.6109,-1.592,-1.5825,-1.5825,-1.5825,-1.5825,-1.5825,-1.5825,-1.5825,-1.5825,-1.5825,-1.5825,-1.5825,-1.5825,-1.5825,-1.5825,-1.5825,-1.5825,-1.5825,-1.5825,-1.5825,-1.5798,-1.6014,-1.6175,-1.6348,-1.665,-1.7146,-1.7478,-1.7605,-4.0087,-4.0087,-3.9935,-3.9849,-3.9677,-3.9432,-3.9094,-3.875,-3.8343,-3.796,-3.7642,-3.7181,-3.6877,-3.6538,-3.6178,-3.5894,-3.5767,-3.5554,-3.5489,-3.513,-3.4319,-3.3436,-3.3025,-3.1812,-3.1249,-3.1205,-3.1292,-3.1351,-3.1424,-3.167,-3.1784,-3.1826,-3.194,-3.2053,-3.2094,-3.2094,-3.2109,-3.2109,-3.2094,-3.2038,-3.2012,-3.1841,-3.1655,-3.1509,-3.1234,-3.0776,-3.0233,-2.9727,-2.9338,-2.8803,-2.8379,-2.7881,-2.7416,-2.7146,-2.6807,-2.6465,-2.6119,-2.591,-2.5758,-2.5206,-2.4718,-2.4345,-2.3897,-2.3729,-2.3888,-2.3668,-2.3536,-2.376,-2.358,-2.3232,-2.2706,-2.2274,-2.1919,-2.1553,-2.1015,-2.0564,-2.0201,-1.9928,-1.9563,-1.8827,-1.8365,-1.7807,-1.734,-1.6871,-1.6494,-1.6312,-1.6021,-1.5825,-1.5825,-1.5825,-1.5825,-1.5825,-1.5825,-1.5825,-1.5825,-1.5825,-1.5825,-1.5825,-1.5825,-1.5825,-1.5825,-1.5825,-1.5825,-1.5825,-1.5825,-1.5825,-1.5825,-1.5859,-1.5919,-1.5989,-1.6097,-1.6494,-1.6853,-1.7124,-1.7296,-4.0087,-4.007,-3.9935,-3.9833,-3.9694,-3.9554,-3.9202,-3.875,-3.8488,-3.8164,-3.7759,-3.7241,-3.6954,-3.6816,-3.6304,-3.5973,-3.591,-3.5619,-3.5489,-3.5325,-3.4128,-3.3559,-3.3108,-3.205,-3.1468,-3.1409,-3.1612,-3.167,-3.1727,-3.1826,-3.194,-3.1981,-3.2191,-3.2287,-3.2358,-3.2539,-3.2609,-3.2484,-3.2358,-3.2247,-3.215,-3.1955,-3.1784,-3.1655,-3.1322,-3.0776,-3.0172,-2.9803,-2.9338,-2.8817,-2.8327,-2.7881,-2.7469,-2.7146,-2.6752,-2.6339,-2.605,-2.5758,-2.5394,-2.5064,-2.4574,-2.4043,-2.3649,-2.3492,-2.3758,-2.3405,-2.3433,-2.3609,-2.3406,-2.2969,-2.2362,-2.2008,-2.1562,-2.1015,-2.0654,-2.0019,-1.9371,-1.9104,-1.892,-1.855,-1.8087,-1.7636,-1.7167,-1.6784,-1.6501,-1.6218,-1.6021,-1.5825,-1.5825,-1.5825,-1.5825,-1.5825,-1.5825,-1.5825,-1.5825,-1.5825,-1.5825,-1.5825,-1.5825,-1.5825,-1.5825,-1.5825,-1.5825,-1.5825,-1.5825,-1.5812,-1.5738,-1.5565,-1.5589,-1.5762,-1.5986,-1.6176,-1.6451,-1.6784,-1.7159,-4.0087,-4.007,-4.0037,-3.9884,-3.9729,-3.9642,-3.9309,-3.8805,-3.86,-3.8262,-3.786,-3.7345,-3.7044,-3.6938,-3.6304,-3.5988,-3.5925,-3.5668,-3.5489,-3.5205,-3.4158,-3.3529,-3.323,-3.2273,-3.1467,-3.1524,-3.1655,-3.1784,-3.1841,-3.2053,-3.2206,-3.2191,-3.2484,-3.2648,-3.2648,-3.2827,-3.2827,-3.2773,-3.2664,-3.2594,-3.2373,-3.2191,-3.1811,-3.1597,-3.1264,-3.0776,-3.0172,-2.9803,-2.9324,-2.8817,-2.8249,-2.7802,-2.7403,-2.7066,-2.6671,-2.627,-2.5828,-2.5535,-2.5253,-2.4838,-2.4273,-2.3824,-2.3383,-2.334,-2.3372,-2.3163,-2.3102,-2.3312,-2.3135,-2.2696,-2.1998,-2.175,-2.1203,-2.0654,-2.0201,-1.9654,-1.9012,-1.8827,-1.855,-1.8172,-1.78,-1.7347,-1.6972,-1.6595,-1.6312,-1.6028,-1.5927,-1.5825,-1.5825,-1.5825,-1.5825,-1.5825,-1.5825,-1.5825,-1.5825,-1.5825,-1.5825,-1.5825,-1.5825,-1.5825,-1.5825,-1.5825,-1.5825,-1.5792,-1.5738,-1.5625,-1.5531,-1.5443,-1.5312,-1.5466,-1.5637,-1.5893,-1.6167,-1.6522,-1.6929,-4.0087,-4.0087,-4.0087,-3.9918,-3.9729,-3.9677,-3.9345,-3.8805,-3.8639,-3.8319,-3.786,-3.7389,-3.7105,-3.6862,-3.6289,-3.5973,-3.5861,-3.5668,-3.5489,-3.531,-3.4113,-3.3589,-3.3185,-3.2273,-3.1597,-3.1597,-3.1769,-3.1841,-3.1996,-3.2247,-3.2468,-3.2523,-3.2757,-3.2935,-3.3005,-3.3005,-3.3058,-3.3005,-3.2951,-3.2827,-3.2594,-3.2398,-3.2007,-3.1452,-3.1132,-3.0717,-3.0172,-2.9727,-2.9275,-2.8739,-2.817,-2.7656,-2.7201,-2.6863,-2.6452,-2.6119,-2.5606,-2.5241,-2.4957,-2.4539,-2.4043,-2.3593,-2.315,-2.2949,-2.296,-2.2829,-2.2832,-2.2801,-2.2707,-2.2353,-2.1741,-2.1293,-2.0835,-2.0283,-1.9737,-1.9279,-1.8827,-1.8635,-1.8172,-1.7807,-1.7434,-1.7066,-1.669,-1.6407,-1.6123,-1.5933,-1.5832,-1.5825,-1.5825,-1.5825,-1.5825,-1.5825,-1.5825,-1.5825,-1.5825,-1.5825,-1.5825,-1.5825,-1.5825,-1.5812,-1.5798,-1.5705,-1.5671,-1.5658,-1.5598,-1.5464,-1.5284,-1.5064,-1.5007,-1.5085,-1.5283,-1.5447,-1.5829,-1.6268,-1.6738,-4.0087,-4.0087,-4.0087,-3.9935,-3.9729,-3.9677,-3.9345,-3.8805,-3.8544,-3.8221,-3.7876,-3.7285,-3.706,-3.6816,-3.6289,-3.5861,-3.5683,-3.5489,-3.5489,-3.5265,-3.4173,-3.3514,-3.3245,-3.2315,-3.1757,-3.1769,-3.1883,-3.2094,-3.2247,-3.2468,-3.2687,-3.2973,-3.3134,-3.324,-3.3346,-3.3519,-3.3414,-3.3272,-3.3203,-3.3043,-3.2703,-3.2413,-3.2048,-3.1336,-3.1073,-3.0597,-3.0097,-2.9651,-2.9135,-2.8638,-2.8118,-2.7443,-2.6918,-2.6564,-2.6151,-2.5746,-2.5394,-2.5028,-2.4539,-2.4261,-2.3824,-2.3235,-2.2703,-2.255,-2.2542,-2.2433,-2.2399,-2.2417,-2.2202,-2.1741,-2.1482,-2.0934,-2.0292,-1.9737,-1.9279,-1.8635,-1.8087,-1.7807,-1.7613,-1.734,-1.7066,-1.6885,-1.6501,-1.6218,-1.6028,-1.5832,-1.5832,-1.5825,-1.5825,-1.5825,-1.5825,-1.5825,-1.5825,-1.5825,-1.5825,-1.5825,-1.5825,-1.5825,-1.5818,-1.5792,-1.5725,-1.5558,-1.5484,-1.5371,-1.5317,-1.5237,-1.503,-1.479,-1.4878,-1.5026,-1.5043,-1.507,-1.5702,-1.6245,-1.6648,-4.0087,-4.0087,-4.0087,-3.9935,-3.9729,-3.9677,-3.9345,-3.8805,-3.86,-3.8262,-3.7876,-3.7345,-3.706,-3.6816,-3.6304,-3.5797,-3.5554,-3.5489,-3.5489,-3.5205,-3.4188,-3.3499,-3.335,-3.2344,-3.1977,-3.194,-3.2079,-3.2247,-3.2398,-3.2757,-3.2973,-3.3187,-3.3398,-3.3555,-3.3607,-3.3658,-3.3658,-3.3503,-3.3414,-3.3256,-3.2812,-3.2468,-3.1894,-3.1437,-3.0984,-3.0522,-2.996,-2.9463,-2.8881,-2.83,-2.7709,-2.7095,-2.662,-2.607,-2.5721,-2.5453,-2.5111,-2.4694,-2.4189,-2.3897,-2.3298,-2.2927,-2.2402,-2.2091,-2.2135,-2.2038,-2.2045,-2.1996,-2.1813,-2.1293,-2.0843,-2.0382,-1.9837,-1.9279,-1.8735,-1.8179,-1.7613,-1.734,-1.7059,-1.6871,-1.6595,-1.6501,-1.6312,-1.6123,-1.5933,-1.5832,-1.5825,-1.5825,-1.5825,-1.5825,-1.5825,-1.5825,-1.5825,-1.5825,-1.5825,-1.5825,-1.5772,-1.5765,-1.5752,-1.5725,-1.5591,-1.5398,-1.5144,-1.4937,-1.491,-1.491,-1.4756,-1.4509,-1.4654,-1.4815,-1.4867,-1.502,-1.5763,-1.6335,-1.6656,-4.0087,-4.0087,-4.0087,-3.9935,-3.9729,-3.9677,-3.9345,-3.886,-3.8655,-3.8319,-3.786,-3.7389,-3.7105,-3.6877,-3.6367,-3.5797,-3.5489,-3.5489,-3.5489,-3.522,-3.4143,-3.3499,-3.3201,-3.2553,-3.1955,-3.2135,-3.2302,-3.2468,-3.2633,-3.292,-3.3187,-3.3398,-3.3642,-3.3797,-3.3848,-3.3899,-3.3797,-3.3745,-3.3607,-3.3414,-3.292,-3.2373,-3.1811,-3.1437,-3.097,-3.0447,-2.9884,-2.9324,-2.8688,-2.8105,-2.743,-2.6769,-2.6289,-2.5652,-2.5241,-2.504,-2.4622,-2.4345,-2.3824,-2.3372,-2.2852,-2.2478,-2.1949,-2.1706,-2.155,-2.1452,-2.1485,-2.1526,-2.1266,-2.0925,-2.0382,-1.992,-1.9371,-1.8819,-1.8272,-1.7807,-1.734,-1.6972,-1.6697,-1.6414,-1.6218,-1.6116,-1.6021,-1.6021,-1.5832,-1.5832,-1.5825,-1.5825,-1.5825,-1.5825,-1.5825,-1.5825,-1.5825,-1.5825,-1.5825,-1.5825,-1.5738,-1.5638,-1.5605,-1.5565,-1.5391,-1.5197,-1.4923,-1.4656,-1.4509,-1.4482,-1.4349,-1.4381,-1.4484,-1.4585,-1.4685,-1.5075,-1.5831,-1.6252,-1.65,-4.0087,-4.0087,-4.0087,-3.9935,-3.9729,-3.9677,-3.9345,-3.8805,-3.8544,-3.8221,-3.7876,-3.7301,-3.7015,-3.6816,-3.6304,-3.5797,-3.5554,-3.5489,-3.5489,-3.5295,-3.4158,-3.3546,-3.3457,-3.2488,-3.217,-3.2302,-3.2468,-3.2664,-3.2881,-3.315,-3.3398,-3.3642,-3.3899,-3.4101,-3.4151,-3.4151,-3.4151,-3.405,-3.3797,-3.3314,-3.2726,-3.2247,-3.1754,-3.1336,-3.0851,-3.0312,-2.9685,-2.9121,-2.8481,-2.7973,-2.7297,-2.6633,-2.6025,-2.5382,-2.4814,-2.4467,-2.4189,-2.3909,-2.3298,-2.2852,-2.2402,-2.1949,-2.1502,-2.1158,-2.0908,-2.0737,-2.0819,-2.1108,-2.0766,-2.0357,-1.982,-1.9379,-1.8727,-1.8265,-1.7707,-1.734,-1.6972,-1.6683,-1.6414,-1.6224,-1.6028,-1.5927,-1.5825,-1.5825,-1.5825,-1.5825,-1.5825,-1.5825,-1.5825,-1.5825,-1.5825,-1.5825,-1.5825,-1.5825,-1.5765,-1.5778,-1.5658,-1.5518,-1.5424,-1.5351,-1.513,-1.4917,-1.4723,-1.4482,-1.4309,-1.4202,-1.4195,-1.424,-1.4348,-1.4496,-1.465,-1.5242,-1.5922,-1.617,-1.6417,-4.0087,-4.0087,-4.0087,-3.9918,-3.9746,-3.9677,-3.9345,-3.8805,-3.8504,-3.8164,-3.7759,-3.7241,-3.6816,-3.6429,-3.5973,-3.5733,-3.5554,-3.5489,-3.5489,-3.522,-3.4218,-3.3622,-3.3412,-3.2622,-3.215,-3.2413,-3.2648,-3.2881,-3.3112,-3.3361,-3.3555,-3.3899,-3.4117,-3.425,-3.4399,-3.4366,-3.4267,-3.4101,-3.3745,-3.3224,-3.2602,-3.212,-3.1625,-3.1146,-3.0613,-3.0007,-2.9387,-2.8739,-2.8091,-2.743,-2.6769,-2.6082,-2.5453,-2.4886,-2.4322,-2.374,-2.3446,-2.315,-2.2841,-2.2402,-2.1949,-2.1492,-2.1061,-2.0684,-2.0292,-2.0044,-2.0054,-2.028,-2.0112,-1.9757,-1.9298,-1.8912,-1.8357,-1.7792,-1.7311,-1.6965,-1.669,-1.6407,-1.6218,-1.6028,-1.5933,-1.5832,-1.5825,-1.5825,-1.5825,-1.5825,-1.5825,-1.5825,-1.5825,-1.5825,-1.5825,-1.5825,-1.5825,-1.5825,-1.5738,-1.5685,-1.5524,-1.5371,-1.5177,-1.5064,-1.4816,-1.4603,-1.4462,-1.4342,-1.4195,-1.4115,-1.4088,-1.4173,-1.425,-1.4496,-1.4734,-1.5325,-1.5839,-1.617,-1.65,-4.0087,-4.0087,-4.0087,-3.9935,-3.9677,-3.9625,-3.9292,-3.8788,-3.8432,-3.8107,-3.7658,-3.7121,-3.6554,-3.61,-3.5831,-3.5653,-3.5489,-3.5489,-3.5489,-3.5055,-3.4277,-3.3697,-3.3381,-3.2695,-3.2206,-3.2523,-3.2773,-3.3043,-3.3346,-3.3539,-3.3797,-3.4101,-3.43,-3.4448,-3.4513,-3.4399,-3.4284,-3.405,-3.3607,-3.3065,-3.2547,-3.1951,-3.1437,-3.0851,-3.0312,-2.9651,-2.8972,-2.83,-2.755,-2.6892,-2.6151,-2.5535,-2.4957,-2.4311,-2.374,-2.3224,-2.2852,-2.2392,-2.209,-2.1787,-2.1415,-2.1031,-2.0498,-2.0046,-1.965,-1.9425,-1.9226,-1.9221,-1.9154,-1.8815,-1.8494,-1.8125,-1.7727,-1.7294,-1.6901,-1.656,-1.6298,-1.6069,-1.5981,-1.5927,-1.5832,-1.5832,-1.5825,-1.5825,-1.5825,-1.5825,-1.5825,-1.5825,-1.5818,-1.5818,-1.5805,-1.5792,-1.5671,-1.5658,-1.5598,-1.5504,-1.5364,-1.5184,-1.4983,-1.477,-1.4522,-1.4402,-1.4309,-1.4182,-1.4095,-1.4088,-1.4088,-1.4173,-1.4257,-1.4496,-1.4817,-1.5242,-1.5748,-1.6079,-1.6656,-4.0087,-4.007,-3.9952,-3.9833,-3.9677,-3.9432,-3.9148,-3.875,-3.8343,-3.796,-3.7524,-3.6907,-3.6367,-3.6037,-3.5767,-3.5589,-3.5489,-3.5489,-3.5429,-3.4996,-3.4218,-3.3713,-3.332,-3.2752,-3.2262,-3.2734,-3.2897,-3.315,-3.3555,-3.3729,-3.3899,-3.4117,-3.4448,-3.4594,-3.4594,-3.4448,-3.4151,-3.3848,-3.3398,-3.2958,-3.2382,-3.1766,-3.1204,-3.0613,-2.996,-2.9289,-2.8651,-2.7894,-2.7149,-2.6414,-2.5664,-2.504,-2.4394,-2.3728,-2.315,-2.2628,-2.2176,-2.1645,-2.1262,-2.1098,-2.0867,-2.0479,-1.9863,-1.925,-1.8887,-1.8754,-1.8455,-1.8178,-1.8202,-1.7834,-1.7463,-1.7124,-1.6948,-1.6557,-1.6352,-1.6151,-1.5899,-1.5852,-1.5785,-1.5792,-1.5798,-1.5758,-1.5825,-1.5825,-1.5825,-1.5825,-1.5825,-1.5825,-1.5798,-1.5785,-1.5772,-1.5712,-1.5511,-1.5431,-1.5384,-1.5244,-1.5017,-1.4843,-1.4663,-1.4456,-1.4235,-1.4162,-1.4182,-1.4142,-1.4088,-1.4088,-1.4088,-1.4088,-1.425,-1.4573,-1.4901,-1.5242,-1.5906,-1.6492,-1.7066,-4.0087,-4.0087,-3.9884,-3.9729,-3.9677,-3.9432,-3.9094,-3.8733,-3.8286,-3.7786,-3.7241,-3.6554,-3.6115,-3.5973,-3.5668,-3.5554,-3.5489,-3.5489,-3.525,-3.4696,-3.4025,-3.3502,-3.3063,-3.2703,-3.2277,-3.2788,-3.2897,-3.3134,-3.3642,-3.3848,-3.4101,-3.4349,-3.4546,-3.4643,-3.4643,-3.4415,-3.4,-3.3591,-3.3156,-3.2711,-3.2135,-3.1495,-3.0911,-3.0312,-2.9498,-2.8817,-2.8105,-2.7284,-2.6471,-2.5721,-2.5028,-2.4394,-2.3813,-2.315,-2.2553,-2.2025,-2.1492,-2.0954,-2.0489,-2.0411,-2.0255,-1.9539,-1.8984,-1.8434,-1.8193,-1.7941,-1.773,-1.7467,-1.735,-1.6969,-1.6727,-1.6655,-1.6468,-1.5958,-1.5672,-1.5599,-1.5562,-1.5517,-1.5478,-1.5524,-1.5585,-1.5605,-1.5712,-1.5825,-1.5825,-1.5825,-1.5825,-1.5812,-1.5752,-1.5651,-1.5591,-1.5491,-1.5291,-1.5164,-1.511,-1.4897,-1.4656,-1.4516,-1.4369,-1.4242,-1.4108,-1.4102,-1.4115,-1.4088,-1.4088,-1.4088,-1.4088,-1.4088,-1.425,-1.4573,-1.4817,-1.5068,-1.5906,-1.6746,-1.7392,-4.007,-4.0037,-3.9781,-3.9677,-3.9677,-3.9309,-3.8985,-3.8694,-3.823,-3.7669,-3.6954,-3.6304,-3.5988,-3.5925,-3.5683,-3.5504,-3.5415,-3.525,-3.4891,-3.4307,-3.3696,-3.3186,-3.2791,-3.2536,-3.2293,-3.2804,-3.2951,-3.3203,-3.371,-3.3848,-3.4101,-3.4349,-3.4562,-3.4643,-3.4594,-3.43,-3.3899,-3.3435,-3.298,-3.2477,-3.1894,-3.1204,-3.0478,-2.9808,-2.8994,-2.8287,-2.7497,-2.6688,-2.5918,-2.5158,-2.4455,-2.374,-2.315,-2.2553,-2.1873,-2.1339,-2.0876,-2.0323,-1.9863,-1.9618,-1.9469,-1.8834,-1.8345,-1.787,-1.7546,-1.7221,-1.7054,-1.6766,-1.6592,-1.636,-1.6031,-1.5878,-1.5782,-1.5383,-1.5369,-1.5298,-1.5194,-1.5137,-1.519,-1.5244,-1.5297,-1.5331,-1.5371,-1.5478,-1.5651,-1.5651,-1.5651,-1.5631,-1.5578,-1.5451,-1.5284,-1.5164,-1.501,-1.491,-1.4816,-1.4589,-1.4396,-1.4349,-1.4229,-1.4175,-1.4088,-1.4088,-1.4088,-1.4088,-1.4088,-1.4088,-1.4088,-1.4088,-1.4328,-1.4657,-1.4901,-1.5318,-1.5824,-1.6746,-1.731,-4.002,-3.9901,-3.9729,-3.9677,-3.9625,-3.9077,-3.875,-3.8583,-3.8091,-3.7524,-3.6954,-3.6304,-3.5988,-3.5925,-3.5619,-3.5429,-3.522,-3.4831,-3.4427,-3.3978,-3.32,-3.281,-3.2609,-3.2429,-3.2277,-3.2734,-3.2951,-3.315,-3.3658,-3.3813,-3.405,-3.425,-3.4399,-3.4497,-3.4659,-3.43,-3.3797,-3.3277,-3.2819,-3.2272,-3.158,-3.0777,-3.0054,-2.9296,-2.8468,-2.7696,-2.696,-2.607,-2.53,-2.4587,-2.3801,-2.315,-2.2628,-2.1873,-2.1262,-2.0867,-2.0245,-1.9627,-1.9082,-1.8825,-1.8425,-1.8112,-1.77,-1.7375,-1.6976,-1.6656,-1.6402,-1.6118,-1.574,-1.5467,-1.5247,-1.5042,-1.4995,-1.4925,-1.4906,-1.4878,-1.4858,-1.477,-1.4803,-1.4923,-1.4963,-1.4983,-1.4997,-1.5084,-1.5357,-1.5458,-1.5464,-1.5438,-1.5378,-1.5204,-1.4997,-1.487,-1.473,-1.4603,-1.4489,-1.4289,-1.4142,-1.4115,-1.4108,-1.4095,-1.4088,-1.4088,-1.4088,-1.4088,-1.4088,-1.4088,-1.4088,-1.4088,-1.4412,-1.465,-1.5235,-1.565,-1.6162,-1.6656,-1.7302,-4.0054,-3.9901,-3.9746,-3.9573,-3.9362,-3.8969,-3.8733,-3.8455,-3.7828,-3.727,-3.6938,-3.6289,-3.5988,-3.594,-3.5608,-3.525,-3.4816,-3.4681,-3.4262,-3.317,-3.2632,-3.2449,-3.2334,-3.222,-3.2277,-3.2609,-3.2827,-3.3043,-3.345,-3.3658,-3.3899,-3.4101,-3.4201,-3.425,-3.4201,-3.3899,-3.3419,-3.2926,-3.2437,-3.1894,-3.119,-3.0418,-2.9623,-2.8917,-2.7947,-2.7162,-2.6402,-2.5499,-2.4731,-2.4009,-2.315,-2.2478,-2.1949,-2.1195,-2.0566,-2.0001,-1.945,-1.8745,-1.8112,-1.7619,-1.7456,-1.7294,-1.7131,-1.6886,-1.6558,-1.6154,-1.5899,-1.5567,-1.5318,-1.4992,-1.4719,-1.4663,-1.4569,-1.4406,-1.4408,-1.4415,-1.4322,-1.4335,-1.4382,-1.4569,-1.4669,-1.479,-1.4843,-1.4783,-1.4977,-1.507,-1.5064,-1.5117,-1.5084,-1.4877,-1.4669,-1.4576,-1.4456,-1.4315,-1.4175,-1.4122,-1.4095,-1.4102,-1.4102,-1.4088,-1.4088,-1.4088,-1.4088,-1.4088,-1.4088,-1.4088,-1.4082,-1.4166,-1.4405,-1.4734,-1.5151,-1.5658,-1.6087,-1.6656,-1.7302,-3.9935,-3.9781,-3.9625,-3.9415,-3.9148,-3.8914,-3.8639,-3.8189,-3.7433,-3.7044,-3.6754,-3.6241,-3.5973,-3.5785,-3.5383,-3.4996,-3.4442,-3.3903,-3.3604,-3.2497,-3.2228,-3.2103,-3.1947,-3.1981,-3.2206,-3.2484,-3.2703,-3.2973,-3.3293,-3.3466,-3.371,-3.3848,-3.3899,-3.3848,-3.3745,-3.3487,-3.3118,-3.2617,-3.2007,-3.1437,-3.0718,-2.9931,-2.9121,-2.8338,-2.7484,-2.6552,-2.5779,-2.4933,-2.4082,-2.3361,-2.2628,-2.1807,-2.1195,-2.0489,-1.9854,-1.9292,-1.8496,-1.7861,-1.7302,-1.682,-1.6648,-1.6468,-1.6476,-1.6319,-1.6147,-1.5809,-1.5477,-1.5235,-1.4992,-1.4741,-1.4482,-1.4398,-1.4243,-1.4095,-1.4102,-1.4122,-1.4128,-1.4155,-1.4175,-1.4349,-1.4416,-1.4549,-1.4636,-1.4596,-1.4603,-1.4629,-1.4649,-1.4723,-1.4783,-1.4589,-1.4416,-1.4349,-1.4289,-1.4202,-1.4135,-1.4108,-1.4088,-1.4088,-1.4088,-1.4088,-1.4088,-1.4088,-1.4088,-1.4088,-1.4088,-1.4088,-1.4082,-1.4243,-1.4412,-1.4573,-1.4901,-1.5409,-1.6004,-1.6574,-1.7221,-3.9833,-3.9694,-3.9432,-3.9202,-3.8969,-3.875,-3.8303,-3.7685,-3.7241,-3.68,-3.6492,-3.6163,-3.5819,-3.5492,-3.4835,-3.4412,-3.4098,-3.311,-3.2677,-3.2302,-3.1898,-3.176,-3.1799,-3.194,-3.215,-3.2358,-3.2578,-3.2812,-3.324,-3.3293,-3.345,-3.3591,-3.3555,-3.345,-3.3293,-3.3027,-3.2687,-3.2176,-3.161,-3.097,-3.0251,-2.9373,-2.8532,-2.7749,-2.6892,-2.6013,-2.5229,-2.4383,-2.3582,-2.2852,-2.2035,-2.1262,-2.0557,-1.9913,-1.9283,-1.8576,-1.7619,-1.7131,-1.6648,-1.6245,-1.5914,-1.5733,-1.5824,-1.5741,-1.5567,-1.5311,-1.5144,-1.4894,-1.465,-1.4566,-1.4398,-1.4243,-1.4166,-1.4088,-1.4088,-1.4095,-1.4095,-1.4102,-1.4102,-1.4148,-1.4155,-1.4222,-1.4255,-1.4242,-1.4349,-1.4329,-1.4369,-1.4409,-1.4436,-1.4355,-1.4215,-1.4195,-1.4142,-1.4122,-1.4088,-1.4088,-1.4088,-1.4088,-1.4088,-1.4088,-1.4088,-1.4088,-1.4088,-1.4088,-1.4088,-1.4088,-1.4082,-1.4166,-1.4334,-1.4496,-1.4817,-1.5325,-1.5922,-1.6417,-1.6976,-3.9694,-3.9432,-3.9325,-3.9002,-3.8544,-3.8017,-3.7653,-3.7433,-3.7121,-3.6816,-3.6492,-3.6163,-3.5622,-3.4979,-3.4595,-3.3903,-3.326,-3.2677,-3.2243,-3.1884,-3.1586,-3.1627,-3.1769,-3.194,-3.2079,-3.2247,-3.2468,-3.2633,-3.2812,-3.2973,-3.315,-3.3256,-3.3187,-3.3027,-3.2687,-3.2413,-3.212,-3.1709,-3.119,-3.0539,-2.9747,-2.8867,-2.8012,-2.7149,-2.6277,-2.5453,-2.4527,-2.3728,-2.2927,-2.2101,-2.1339,-2.0566,-1.9696,-1.9063,-1.8434,-1.7367,-1.6804,-1.6402,-1.6072,-1.5733,-1.5484,-1.5159,-1.5151,-1.5068,-1.4901,-1.4901,-1.481,-1.4566,-1.4398,-1.4321,-1.4237,-1.4166,-1.4088,-1.4088,-1.4088,-1.4088,-1.4088,-1.4088,-1.4088,-1.4088,-1.4088,-1.4088,-1.4088,-1.4108,-1.4195,-1.4122,-1.4108,-1.4162,-1.4182,-1.4128,-1.4102,-1.4088,-1.4088,-1.4088,-1.4088,-1.4088,-1.4088,-1.4088,-1.4088,-1.4088,-1.4088,-1.4088,-1.4088,-1.4088,-1.4088,-1.4088,-1.4088,-1.4166,-1.425,-1.4489,-1.4817,-1.5325,-1.5831,-1.6327,-1.6902,-3.9537,-3.9272,-3.9056,-3.86,-3.8017,-3.7594,-3.7298,-3.7118,-3.6968,-3.6677,-3.6258,-3.5795,-3.5211,-3.463,-3.398,-3.326,-3.2617,-3.2228,-3.1869,-3.1704,-3.1467,-3.1524,-3.1712,-3.1841,-3.194,-3.2094,-3.2318,-3.2468,-3.2578,-3.2827,-3.2989,-3.2904,-3.2866,-3.2578,-3.2247,-3.191,-3.1495,-3.1073,-3.0584,-2.9993,-2.9247,-2.8352,-2.7471,-2.6595,-2.5639,-2.4731,-2.3886,-2.3001,-2.2176,-2.1339,-2.0557,-1.9775,-1.8895,-1.8184,-1.7546,-1.664,-1.6221,-1.5891,-1.5643,-1.5318,-1.5068,-1.4824,-1.465,-1.4566,-1.4566,-1.4566,-1.4398,-1.4321,-1.4321,-1.4243,-1.4166,-1.4088,-1.4088,-1.4088,-1.4088,-1.4088,-1.4088,-1.4088,-1.4088,-1.4088,-1.4088,-1.4088,-1.4088,-1.4088,-1.4088,-1.4088,-1.4088,-1.4108,-1.4128,-1.4108,-1.4095,-1.4088,-1.4088,-1.4088,-1.4088,-1.4088,-1.4088,-1.4088,-1.4088,-1.4088,-1.4088,-1.4088,-1.4088,-1.4088,-1.4088,-1.4088,-1.4088,-1.4082,-1.4166,-1.4489,-1.4817,-1.5242,-1.5831,-1.6327,-1.6902,-3.9272,-3.9164,-3.856,-3.796,-3.7417,-3.7358,-3.7011,-3.6646,-3.6507,-3.6306,-3.5793,-3.526,-3.4725,-3.398,-3.3215,-3.2691,-3.2213,-3.1795,-3.1631,-3.1467,-3.1467,-3.1524,-3.1597,-3.1712,-3.1826,-3.1883,-3.2053,-3.2262,-3.2413,-3.2539,-3.2648,-3.2547,-3.2398,-3.2176,-3.1868,-3.1437,-3.0955,-3.0372,-2.9856,-2.9296,-2.8597,-2.7749,-2.6744,-2.5975,-2.4992,-2.3998,-2.3213,-2.2327,-2.1339,-2.0547,-1.9687,-1.8984,-1.8023,-1.7204,-1.664,-1.6229,-1.5726,-1.5477,-1.5228,-1.4985,-1.4734,-1.4482,-1.4398,-1.4321,-1.4328,-1.4321,-1.4237,-1.4243,-1.4166,-1.4166,-1.4088,-1.4088,-1.4088,-1.4088,-1.4088,-1.4088,-1.4088,-1.4088,-1.4088,-1.4088,-1.4088,-1.4088,-1.4088,-1.4088,-1.4088,-1.4088,-1.4088,-1.4088,-1.4088,-1.4088,-1.4088,-1.4088,-1.4088,-1.4088,-1.4088,-1.4088,-1.4088,-1.4088,-1.4088,-1.4088,-1.4088,-1.4088,-1.4088,-1.4088,-1.4088,-1.4088,-1.4088,-1.4166,-1.4243,-1.4573,-1.4908,-1.5242,-1.5748,-1.6327,-1.6902,-3.9002,-3.856,-3.7902,-3.7535,-3.7358,-3.7013,-3.6459,-3.5798,-3.563,-3.5431,-3.5169,-3.4817,-3.4074,-3.3066,-3.2706,-3.2258,-3.175,-3.1631,-3.1497,-3.1467,-3.1467,-3.1467,-3.1524,-3.1655,-3.1784,-3.1841,-3.194,-3.2053,-3.215,-3.2206,-3.2221,-3.2135,-3.1966,-3.1739,-3.1409,-3.097,-3.0358,-2.9775,-2.9121,-2.8532,-2.7894,-2.7229,-2.6346,-2.5441,-2.4371,-2.3423,-2.2542,-2.1634,-2.0702,-1.9913,-1.9063,-1.8103,-1.7139,-1.6312,-1.5899,-1.565,-1.5318,-1.5068,-1.4901,-1.465,-1.4482,-1.4321,-1.4243,-1.4166,-1.4173,-1.4166,-1.4159,-1.4082,-1.4088,-1.4088,-1.4088,-1.4088,-1.4088,-1.4088,-1.4088,-1.4088,-1.4088,-1.4088,-1.4088,-1.4088,-1.4088,-1.4088,-1.4088,-1.4088,-1.4088,-1.4088,-1.4088,-1.4088,-1.4088,-1.4088,-1.4088,-1.4088,-1.4088,-1.4088,-1.4088,-1.4088,-1.4088,-1.4088,-1.4088,-1.4088,-1.4088,-1.4088,-1.4088,-1.4088,-1.4088,-1.4088,-1.4166,-1.4243,-1.4405,-1.4657,-1.4992,-1.5325,-1.5831,-1.6409,-1.6902,-3.8531,-3.7818,-3.6915,-3.64,-3.6166,-3.5869,-3.5413,-3.494,-3.4653,-3.4364,-3.4061,-3.3864,-3.3352,-3.2422,-3.2243,-3.1988,-3.1511,-3.1482,-3.1467,-3.1467,-3.1467,-3.1467,-3.1524,-3.1597,-3.1612,-3.1727,-3.1841,-3.194,-3.194,-3.1868,-3.1853,-3.1739,-3.1495,-3.1204,-3.0866,-3.0358,-2.987,-2.9162,-2.843,-2.7762,-2.7229,-2.6483,-2.5721,-2.4802,-2.379,-2.2841,-2.1928,-2.1011,-2.0079,-1.9125,-1.8175,-1.7286,-1.6394,-1.5899,-1.5484,-1.5242,-1.4992,-1.4741,-1.4573,-1.4405,-1.4321,-1.4243,-1.4166,-1.4088,-1.4088,-1.4166,-1.4166,-1.4088,-1.4088,-1.4088,-1.4088,-1.4088,-1.4088,-1.4088,-1.4088,-1.4088,-1.4088,-1.4088,-1.4088,-1.4088,-1.4088,-1.4088,-1.4088,-1.4088,-1.4088,-1.4088,-1.4088,-1.4088,-1.4088,-1.4088,-1.4088,-1.4088,-1.4088,-1.4088,-1.4088,-1.4088,-1.4088,-1.4088,-1.4088,-1.4088,-1.4088,-1.4088,-1.4088,-1.4088,-1.4088,-1.4088,-1.4166,-1.4321,-1.4489,-1.4657,-1.5075,-1.5409,-1.5989,-1.6492,-1.6976,-3.7711,-3.6932,-3.5816,-3.5055,-3.4694,-3.4549,-3.4312,-3.4042,-3.3743,-3.3261,-3.2749,-3.2704,-3.2526,-3.2183,-3.1795,-3.1586,-3.1467,-3.1467,-3.1467,-3.1467,-3.1467,-3.1467,-3.1467,-3.1524,-3.1539,-3.1597,-3.1655,-3.1769,-3.1811,-3.1682,-3.1552,-3.1364,-3.1073,-3.0718,-3.0251,-2.9822,-2.9387,-2.8638,-2.7908,-2.7162,-2.6414,-2.5664,-2.5087,-2.4215,-2.3265,-2.2231,-2.1308,-2.0382,-1.946,-1.8496,-1.7538,-1.6632,-1.5982,-1.5484,-1.5235,-1.4992,-1.4657,-1.4482,-1.4321,-1.425,-1.4166,-1.4088,-1.4088,-1.4088,-1.4088,-1.4088,-1.4088,-1.4088,-1.4088,-1.4088,-1.4088,-1.4088,-1.4088,-1.4088,-1.4088,-1.4088,-1.4088,-1.4088,-1.4088,-1.4088,-1.4088,-1.4088,-1.4088,-1.4088,-1.4088,-1.4088,-1.4088,-1.4088,-1.4088,-1.4088,-1.4088,-1.4088,-1.4088,-1.4088,-1.4088,-1.4088,-1.4088,-1.4088,-1.4088,-1.4088,-1.4088,-1.4088,-1.4088,-1.4088,-1.4088,-1.4082,-1.4243,-1.4405,-1.4489,-1.4741,-1.5151,-1.5567,-1.6064,-1.6648,-1.7221,-3.6307,-3.5737,-3.5086,-3.4678,-3.4488,-3.4312,-3.38,-3.3123,-3.3019,-3.2524,-3.1957,-3.1734,-3.1719,-3.1676,-3.1571,-3.1467,-3.1467,-3.1467,-3.1467,-3.1467,-3.1467,-3.1467,-3.1467,-3.1467,-3.1467,-3.1524,-3.1524,-3.1524,-3.1524,-3.1394,-3.1219,-3.0984,-3.0807,-3.0372,-2.987,-2.9449,-2.8881,-2.8118,-2.7443,-2.6688,-2.6013,-2.5312,-2.4587,-2.3717,-2.2767,-2.17,-2.0702,-1.9696,-1.8913,-1.8031,-1.7139,-1.6229,-1.565,-1.5242,-1.4992,-1.4734,-1.4398,-1.4321,-1.4243,-1.4166,-1.4088,-1.4088,-1.4088,-1.4088,-1.4088,-1.4088,-1.4088,-1.4088,-1.4088,-1.4088,-1.4088,-1.4088,-1.4088,-1.4088,-1.4088,-1.4088,-1.4088,-1.4088,-1.4088,-1.4088,-1.4088,-1.4088,-1.4088,-1.4088,-1.4088,-1.4088,-1.4088,-1.4088,-1.4088,-1.4088,-1.4088,-1.4088,-1.4088,-1.4088,-1.4088,-1.4088,-1.4088,-1.4088,-1.4088,-1.4088,-1.4088,-1.4088,-1.4088,-1.4088,-1.4166,-1.4166,-1.4321,-1.4398,-1.4741,-1.4992,-1.5401,-1.5816,-1.6312,-1.6804,-1.7375]},{"header":{"parameterUnit":"m.s-1","parameterCategory":1,"la1":31.0,"la2":29.5877,"lo1":-88.7671,"lo2":-86.6584,"dy":0.0162,"dx":0.0185,"nx":115,"ny":88,"refTime":"2024-08-10T06:00:00:Z","depth":0,"parameterNumber":3,"parameterNumberName":"V-component_of_WINDS"},"data":[0.0,0.0,0.0,0.0,0.0,0.0,0.0,0.0,0.0,0.0,0.0,0.0,0.0,0.0,0.0,0.0,0.0,0.0,0.0,0.0,0.0,0.0,0.0,0.0,0.0,0.0,0.0,0.0,0.0,0.0,0.0,0.0,0.0,0.0,0.0,0.0,0.0,0.0,0.0,0.0,0.0,0.0,0.0,0.0,0.0,0.0,0.0,0.0,0.0,0.0,0.0,0.0,0.0,0.0,0.0,0.0,0.0,0.0,0.0,0.0,0.0,0.0,0.0,0.0,0.0,0.0,0.0,0.0,0.0,0.0,0.0,0.0,0.0,0.0,0.0,0.0,0.0,0.0,0.0,0.0,0.0,0.0,0.0,0.0,0.0,0.0,0.0,0.0,0.0,0.0,0.0,0.0,0.0,0.0,0.0,0.0,0.0,0.0,0.0,0.0,0.0,0.0,0.0,0.0,0.0,0.0,0.0,0.0,0.0,0.0,0.0,0.0,0.0,0.0,0.0,0.0,0.0,0.0,0.0,0.0,0.0,0.0,0.0,0.0,0.0,0.0,0.0,0.0,0.0,0.0,0.0,0.0,0.0,0.0,0.0,0.0,0.0,0.0,0.0,0.0,0.0,0.0,0.0,0.0,0.0,0.0,0.0,0.0,0.0,0.0,0.0,0.0,0.0,0.0,0.0,0.0,0.0,0.0,0.0,0.0,0.0,0.0,0.0,0.0,0.0,0.0,0.0,0.0,0.0,0.0,0.0,0.0,0.0,0.0,0.0,0.0,0.0,0.0,0.0,0.0,0.0,0.0,0.0,0.0,0.0,0.0,0.0,0.0,0.0,0.0,0.0,0.0,0.0,0.0,0.0,0.0,0.0,0.0,0.0,0.0,0.0,0.0,0.0,0.0,0.0,0.0,0.0,0.0,0.0,0.0,0.0,0.0,0.0,0.0,0.0,0.0,0.0,0.0,0.0,0.0,0.0,0.0,0.0,0.0,0.0,0.0,0.0,0.0,0.0,0.0,0.0,0.0,0.0,0.0,0.0,0.0,0.0,0.0,0.0,0.0,0.0,0.0,0.0,0.0,0.0,0.0,0.0,0.0,0.0,0.0,0.0,0.0,0.0,0.0,0.0,0.0,0.0,0.0,0.0,0.0,0.0,0.0,0.0,0.0,0.0,0.0,0.0,0.0,0.0,0.0,0.0,0.0,0.0,0.0,0.0,0.0,0.0,0.0,0.0,0.0,0.0,0.0,0.0,0.0,0.0,0.0,0.0,0.0,0.0,0.0,0.0,0.0,0.0,0.0,0.0,0.0,0.0,0.0,0.0,0.0,0.0,0.0,0.0,0.0,0.0,0.0,0.0,0.0,0.0,0.0,0.0,0.0,0.0,0.0,0.0,0.0,0.0,0.0,0.0,0.0,0.0,0.0,0.0,0.0,0.0,0.0,0.0,0.0,0.0,0.0,0.0,0.0,0.0,0.0,0.0,0.0,0.0,0.0,0.0,0.0,0.0,0.0,0.0,0.0,0.0,0.0,0.0,0.0,0.0,0.0,0.0,0.0,0.0,0.0,0.0,0.0,0.0,0.0,0.0,0.0,0.0,0.0,0.0,0.0,0.0,0.0,0.0,0.0,0.0,0.0,0.0,0.0,0.0,0.0,0.0,0.0,0.0,0.0,0.0,0.0,0.0,0.0,0.0,0.0,0.0,0.0,0.0,0.0,0.0,0.0,0.0,0.0,0.0,0.0,0.0,0.0,0.0,0.0,0.0,0.0,0.0,0.0,0.0,0.0,0.0,0.0,0.0,0.0,0.0,0.0,0.0,0.0,0.0,0.0,0.0,0.0,0.0,0.0,0.0,0.0,0.0,0.0,0.0,0.0,0.0,0.0,0.0,0.0,0.0,0.0,0.0,0.0,0.0,0.0,0.0,0.0,0.0,0.0,0.0,0.0,0.0,0.0,0.0,0.0,0.0,0.0,0.0,0.0,0.0,0.0,0.0,0.0,0.0,0.0,0.0,0.0,0.0,0.0,0.0,0.0,0.0,0.0,0.0,0.0,0.0,0.0,0.0,0.0,0.0,0.0,0.0,0.0,0.0,0.0,0.0,0.0,0.0,0.0,0.0,0.0,0.0,0.0,0.0,0.0,0.0,0.0,0.0,0.0,0.0,0.0,0.0,0.0,0.0,0.0,0.0,0.0,0.0,0.0,0.0,0.0,0.0,0.0,0.0,0.0,0.0,0.0,0.0,0.0,0.0,0.0,0.0,0.0,0.0,0.0,0.0,0.0,0.0,0.0,0.0,0.0,0.0,0.0,0.0,0.0,0.0,0.0,0.0,0.0,0.0,0.0,0.0,0.0,0.0,0.0,0.0,0.0,0.0,0.0,0.0,0.0,0.0,0.0,0.0,0.0,0.0,0.0,0.0,0.0,0.0,0.0,0.0,0.0,0.0,0.0,0.0,0.0,0.0,0.0,0.0,0.0,0.0,0.0,0.0,0.0,0.0,0.0,0.0,0.0,0.0,0.0,0.0,0.0,0.0,0.0,0.0,0.0,0.0,0.0,0.0,0.0,0.0,0.0,0.0,0.0,0.0,0.0,0.0,0.0,0.0,0.0,0.0,0.0,0.0,0.0,0.0,0.0,0.0,0.0,0.0,0.0,0.0,0.0,0.0,0.0,0.0,0.0,0.0,0.0,0.0,0.0,0.0,0.0,0.0,0.0,0.0,0.0,0.0,0.0,0.0,0.0,0.0,0.0,0.0,0.0,0.0,0.0,0.0,0.0,0.0,0.0,0.0,0.0,0.0,0.0,0.0,0.0,0.0,0.0,0.0,0.0,0.0,0.0,0.0,0.0,0.0,0.0,0.0,0.0,0.0,0.0,0.0,0.0,0.0,0.0,0.0,0.0,0.0,0.0,0.0,0.0,0.0,0.0,0.0,0.0,0.0,0.0,0.0,0.0,0.0,0.0,0.0,0.0,0.0,0.0,0.0,0.0,0.0,0.0,0.0,0.0,0.0,0.0,0.0,0.0,0.0,0.0,0.0,0.0,0.0,0.0,0.0,0.0,0.0,0.0,0.0,0.0,0.0,0.0,0.0,0.0,0.0,0.0,0.0,0.0,0.0,0.0,0.0,0.0,0.0,0.0,0.0,0.0,0.0,0.0,0.0,0.0,0.0,0.0,0.0,0.0,0.0,0.0,0.0,0.0,0.0,0.0,0.0,0.0,0.0,0.0,0.0,0.0,0.0,0.0,0.0,0.0,0.0,0.0,0.0,0.0,0.0,0.0,0.0,0.0,0.0,0.0,0.0,0.0,0.0,0.0,0.0,0.0,0.0,0.0,0.0,0.0,0.0,0.0,0.0,0.0,0.0,0.0,0.0,0.0,0.0,0.0,0.0,0.0,0.0,0.0,0.0,0.0,0.0,0.0,0.0,0.0,0.0,0.0,0.0,0.0,0.0,0.0,0.0,0.0,0.0,0.0,0.0,0.0,0.0,0.0,0.0,0.0,0.0,0.0,0.0,0.0,0.0,0.0,0.0,0.0,0.0,0.0,0.0,0.0,0.0,0.0,0.0,0.0,0.0,0.0,0.0,0.0,0.0,0.0,0.0,0.0,0.0,0.0,0.0,0.0,0.0,0.0,0.0,0.0,0.0,0.0,0.0,0.0,0.0,0.0,0.0,0.0,0.0,0.0,0.0,0.0,0.0,0.0,0.0,0.0,0.0,0.0,0.0,0.0,0.0,0.0,0.0,0.0,0.0,0.0,0.0,0.0,0.0,0.0,0.0,0.0,0.0,0.0,0.0,0.0,0.0,0.0,0.0,0.0,0.0,0.0,0.0,0.0,0.0,0.0,0.0,0.0,0.0,0.0,0.0,0.0,0.0,0.0,0.0,0.0,0.0,0.0,0.0,0.0,0.0,0.0,0.0,0.0,0.0,0.0,0.0,0.0,0.0,0.0,0.0,0.0,0.0,0.0,0.0,0.0,0.0,0.0,0.0,0.0,0.0,0.0,0.0,0.0,0.0,0.0,0.0,0.0,0.0,0.0,0.0,0.0,0.0,0.0,0.0,0.0,0.0,0.0,0.0,0.0,0.0,0.0,0.0,0.0,0.0,0.0,0.0,0.0,0.0,0.0,0.0,0.0,0.0,0.0,0.0,0.0,0.0,0.0,0.0,0.0,0.0,0.0,0.0,0.0,0.0,0.0,0.0,0.0,0.0,0.0,0.0,0.0,0.0,0.0,0.0,0.0,0.0,0.0,0.0,0.0,0.0,0.0,-0.8231,0.0,0.0,0.0,0.0,0.0,0.0,0.0,0.0,0.0,0.0,0.0,0.0,0.0,0.0,0.0,0.0,0.0,0.0,0.0,0.0,0.0,0.0,0.0,0.0,0.0,0.0,0.0,0.0,0.0,0.0,0.0,0.0,0.0,0.0,0.0,0.0,0.0,0.0,0.0,0.0,0.0,0.0,0.0,0.0,0.0,0.0,0.0,0.0,0.0,0.0,0.0,0.0,0.0,0.0,0.0,0.0,0.0,0.0,0.0,0.0,0.0,0.0,0.0,0.0,0.0,0.0,0.0,0.0,0.0,0.0,0.0,0.0,0.0,0.0,0.0,0.0,0.0,0.0,0.0,0.0,0.0,0.0,0.0,0.0,0.0,0.0,0.0,0.0,0.0,0.0,0.0,0.0,0.0,0.0,0.0,0.0,0.0,0.0,0.0,0.0,0.0,0.0,0.0,0.0,0.0,0.0,0.0,0.0,0.0,0.0,-0.8109,-0.8156,-0.829,-0.8432,-0.8584,0.0,0.0,0.0,0.0,0.0,0.0,0.0,0.0,0.0,0.0,0.0,0.0,0.0,0.0,0.0,0.0,0.0,0.0,0.0,0.0,0.0,0.0,0.0,0.0,0.0,0.0,0.0,0.0,0.0,0.0,0.0,0.0,0.0,0.0,0.0,0.0,0.0,0.0,0.0,0.0,0.0,0.0,0.0,0.0,0.0,0.0,0.0,0.0,0.0,0.0,0.0,0.0,0.0,0.0,0.0,0.0,0.0,0.0,0.0,0.0,0.0,0.0,0.0,0.0,0.0,0.0,0.0,0.0,0.0,0.0,0.0,0.0,0.0,0.0,0.0,0.0,0.0,0.0,0.0,0.0,0.0,0.0,0.0,0.0,0.0,0.0,0.0,0.0,0.0,0.0,0.0,0.0,0.0,0.0,0.0,0.0,0.0,0.0,0.0,0.0,0.0,0.0,0.0,0.0,0.0,0.0,0.0,0.0,0.0,0.0,0.0,0.0,-0.8533,-0.8673,-0.8876,0.0,0.0,0.0,0.0,0.0,0.0,0.0,0.0,0.0,0.0,0.0,0.0,0.0,0.0,0.0,0.0,0.0,0.0,0.0,0.0,0.0,0.0,0.0,0.0,0.0,0.0,0.0,0.0,0.0,0.0,0.0,0.0,0.0,0.0,0.0,0.0,0.0,0.0,0.0,0.0,0.0,0.0,0.0,0.0,0.0,0.0,0.0,0.0,0.0,0.0,0.0,0.0,0.0,0.0,0.0,0.0,0.0,0.0,0.0,0.0,0.0,0.0,0.0,0.0,0.0,0.0,0.0,0.0,0.0,0.0,0.0,0.0,0.0,0.0,0.0,0.0,0.0,0.0,0.0,0.0,0.0,0.0,0.0,0.0,0.0,0.0,0.0,0.0,0.0,0.0,0.0,0.0,0.0,0.0,0.0,0.0,0.0,0.0,0.0,0.0,0.0,0.0,0.0,0.0,0.0,0.0,0.0,0.0,0.0,0.0,-0.8544,-0.8662,-0.8745,0.0,-0.9189,0.0,0.0,0.0,0.0,0.0,0.0,0.0,0.0,0.0,0.0,0.0,0.0,0.0,0.0,0.0,0.0,0.0,0.0,0.0,0.0,0.0,0.0,0.0,0.0,0.0,0.0,0.0,0.0,0.0,0.0,0.0,0.0,0.0,0.0,0.0,0.0,0.0,0.0,0.0,0.0,0.0,0.0,0.0,0.0,0.0,0.0,0.0,0.0,0.0,0.0,0.0,0.0,0.0,0.0,0.0,0.0,0.0,0.0,0.0,0.0,0.0,0.0,0.0,0.0,0.0,0.0,0.0,0.0,0.0,0.0,0.0,0.0,0.0,0.0,0.0,0.0,0.0,0.0,0.0,0.0,0.0,0.0,0.0,0.0,0.0,0.0,0.0,0.0,0.0,0.0,0.0,0.0,0.0,0.0,0.0,0.0,0.0,0.0,0.0,0.0,0.0,0.0,0.0,0.0,0.0,0.0,0.0,0.0,0.0,0.0,0.0,-0.8944,-0.9124,-0.9286,0.0,0.0,0.0,0.0,0.0,0.0,0.0,0.0,0.0,0.0,0.0,0.0,0.0,0.0,0.0,0.0,0.0,0.0,0.0,0.0,0.0,0.0,0.0,0.0,0.0,0.0,0.0,0.0,0.0,0.0,0.0,0.0,0.0,0.0,0.0,0.0,0.0,0.0,0.0,0.0,0.0,0.0,0.0,0.0,0.0,0.0,0.0,0.0,0.0,0.0,0.0,0.0,0.0,0.0,0.0,0.0,0.0,0.0,0.0,0.0,0.0,0.0,0.0,0.0,0.0,0.0,0.0,0.0,0.0,0.0,0.0,0.0,0.0,0.0,0.0,0.0,0.0,0.0,0.0,0.0,0.0,0.0,0.0,0.0,0.0,0.0,0.0,0.0,0.0,0.0,0.0,0.0,0.0,0.0,0.0,0.0,0.0,0.0,0.0,0.0,0.0,0.0,0.0,0.0,0.0,0.0,0.0,0.0,0.0,0.0,-0.8971,0.0,-0.9217,-0.9444,-0.9564,-0.9617,0.0,0.0,0.0,0.0,0.0,0.0,0.0,0.0,0.0,0.0,0.0,0.0,0.0,0.0,0.0,0.0,0.0,0.0,0.0,0.0,0.0,0.0,0.0,0.0,0.0,0.0,0.0,0.0,0.0,0.0,0.0,0.0,0.0,0.0,0.0,0.0,0.0,0.0,0.0,0.0,0.0,0.0,0.0,0.0,0.0,0.0,0.0,0.0,0.0,0.0,0.0,0.0,0.0,0.0,0.0,0.0,0.0,0.0,0.0,0.0,0.0,0.0,0.0,0.0,0.0,0.0,0.0,0.0,0.0,0.0,0.0,0.0,0.0,0.0,0.0,0.0,0.0,0.0,0.0,0.0,0.0,0.0,0.0,0.0,0.0,0.0,0.0,0.0,0.0,0.0,0.0,0.0,0.0,0.0,0.0,0.0,0.0,0.0,0.0,0.0,0.0,0.0,0.0,0.0,0.0,0.0,0.0,0.0,0.0,-0.9201,-0.9282,-0.947,-0.9617,-0.9762,0.0,0.0,0.0,0.0,0.0,0.0,0.0,0.0,0.0,0.0,0.0,0.0,0.0,0.0,0.0,0.0,0.0,0.0,0.0,0.0,0.0,0.0,0.0,0.0,0.0,0.0,0.0,0.0,0.0,0.0,0.0,0.0,0.0,0.0,0.0,0.0,0.0,0.0,0.0,0.0,0.0,0.0,0.0,0.0,0.0,0.0,0.0,0.0,0.0,0.0,0.0,0.0,0.0,0.0,0.0,0.0,0.0,0.0,0.0,0.0,0.0,0.0,0.0,0.0,0.0,0.0,0.0,0.0,0.0,0.0,0.0,0.0,0.0,0.0,0.0,0.0,0.0,0.0,0.0,0.0,0.0,0.0,0.0,0.0,0.0,0.0,0.0,0.0,0.0,0.0,0.0,0.0,0.0,0.0,0.0,0.0,0.0,0.0,0.0,0.0,0.0,0.0,0.0,0.0,0.0,0.0,0.0,0.0,0.0,-0.9824,-1.0312,-1.0399,0.0,-1.0281,-1.0216,0.0,0.0,0.0,0.0,0.0,0.0,0.0,0.0,0.0,0.0,0.0,0.0,0.0,0.0,0.0,0.0,0.0,0.0,0.0,0.0,0.0,0.0,0.0,0.0,0.0,0.0,0.0,0.0,0.0,0.0,0.0,0.0,0.0,0.0,0.0,0.0,0.0,0.0,0.0,0.0,0.0,0.0,0.0,0.0,0.0,0.0,0.0,0.0,0.0,0.0,0.0,0.0,0.0,0.0,0.0,0.0,0.0,0.0,0.0,0.0,0.0,0.0,0.0,0.0,0.0,0.0,0.0,0.0,0.0,0.0,0.0,0.0,0.0,0.0,0.0,0.0,0.0,0.0,0.0,0.0,0.0,0.0,0.0,0.0,0.0,0.0,0.0,0.0,0.0,0.0,0.0,0.0,0.0,0.0,0.0,0.0,0.0,0.0,0.0,0.0,0.0,0.0,0.0,0.0,0.0,0.0,0.0,0.0,0.0,-1.0563,0.0,-1.1221,0.0,-1.0834,-1.0668,0.0,0.0,0.0,0.0,0.0,0.0,0.0,0.0,0.0,0.0,0.0,0.0,0.0,0.0,0.0,0.0,0.0,0.0,0.0,0.0,0.0,0.0,0.0,0.0,0.0,0.0,0.0,0.0,0.0,0.0,0.0,0.0,0.0,0.0,0.0,0.0,0.0,0.0,0.0,0.0,0.0,0.0,0.0,0.0,0.0,0.0,0.0,0.0,0.0,0.0,0.0,0.0,0.0,0.0,0.0,0.0,0.0,0.0,0.0,0.0,0.0,0.0,0.0,0.0,0.0,0.0,0.0,0.0,0.0,0.0,0.0,0.0,0.0,0.0,0.0,0.0,0.0,0.0,0.0,0.0,0.0,0.0,0.0,0.0,0.0,0.0,0.0,0.0,0.0,0.0,0.0,0.0,0.0,0.0,0.0,0.0,0.0,0.0,0.0,0.0,0.0,0.0,0.0,0.0,0.0,0.0,0.0,0.0,0.0,-1.1363,-1.1504,-1.159,-1.1575,-1.1258,-1.1077,0.0,0.0,0.0,0.0,0.0,0.0,0.0,0.0,0.0,0.0,0.0,0.0,0.0,0.0,0.0,0.0,0.0,0.0,0.0,0.0,0.0,0.0,0.0,0.0,0.0,0.0,0.0,0.0,0.0,0.0,0.0,0.0,0.0,0.0,0.0,0.0,0.0,0.0,0.0,0.0,0.0,0.0,0.0,0.0,0.0,0.0,0.0,0.0,0.0,0.0,0.0,0.0,0.0,0.0,0.0,0.0,0.0,0.0,0.0,0.0,0.0,0.0,0.0,0.0,0.0,0.0,0.0,0.0,0.0,0.0,0.0,0.0,0.0,0.0,0.0,0.0,0.0,0.0,0.0,0.0,0.0,0.0,0.0,0.0,0.0,0.0,0.0,0.0,0.0,0.0,0.0,0.0,0.0,0.0,0.0,0.0,0.0,0.0,0.0,0.0,0.0,0.0,0.0,0.0,0.0,0.0,0.0,0.0,0.0,-1.2038,-1.2529,-1.2627,-1.226,-1.2285,-1.1955,0.0,0.0,0.0,0.0,0.0,0.0,0.0,0.0,0.0,0.0,0.0,0.0,0.0,0.0,0.0,0.0,0.0,0.0,0.0,0.0,0.0,0.0,0.0,0.0,0.0,0.0,0.0,0.0,0.0,0.0,0.0,0.0,0.0,0.0,0.0,0.0,0.0,0.0,0.0,0.0,0.0,0.0,0.0,0.0,0.0,0.0,0.0,0.0,0.0,0.0,0.0,0.0,0.0,0.0,0.0,0.0,0.0,0.0,0.0,0.0,0.0,0.0,0.0,0.0,0.0,0.0,0.0,0.0,0.0,0.0,0.0,0.0,0.0,0.0,0.0,0.0,0.0,0.0,0.0,0.0,0.0,0.0,0.0,0.0,0.0,0.0,0.0,0.0,0.0,0.0,0.0,0.0,0.0,0.0,0.0,0.0,0.0,0.0,0.0,0.0,0.0,0.0,0.0,0.0,0.0,0.0,0.0,0.0,0.0,-1.2985,-1.3449,-1.3531,-1.3187,-1.3201,-1.2738,-1.1734,0.0,0.0,0.0,0.0,0.0,0.0,0.0,0.0,0.0,0.0,0.0,0.0,0.0,0.0,0.0,0.0,0.0,0.0,0.0,0.0,0.0,0.0,0.0,0.0,0.0,0.0,0.0,0.0,0.0,0.0,0.0,0.0,0.0,0.0,0.0,0.0,0.0,0.0,0.0,0.0,0.0,0.0,0.0,0.0,0.0,0.0,0.0,0.0,0.0,0.0,0.0,0.0,0.0,0.0,0.0,0.0,0.0,0.0,0.0,0.0,0.0,0.0,0.0,0.0,0.0,0.0,0.0,0.0,0.0,0.0,0.0,0.0,0.0,0.0,0.0,0.0,0.0,0.0,0.0,0.0,0.0,0.0,0.0,0.0,0.0,0.0,0.0,0.0,0.0,0.0,0.0,0.0,0.0,0.0,0.0,0.0,0.0,0.0,0.0,0.0,0.0,0.0,0.0,0.0,0.0,0.0,0.0,0.0,-1.4306,-1.4319,-1.4343,-1.4351,-1.4046,-1.3401,0.0,0.0,0.0,0.0,0.0,0.0,0.0,0.0,0.0,0.0,0.0,0.0,0.0,0.0,0.0,0.0,0.0,0.0,0.0,0.0,0.0,0.0,0.0,0.0,0.0,0.0,0.0,0.0,0.0,0.0,0.0,0.0,0.0,0.0,0.0,0.0,0.0,0.0,0.0,0.0,0.0,0.0,0.0,0.0,0.0,0.0,0.0,0.0,0.0,0.0,0.0,0.0,0.0,0.0,0.0,0.0,0.0,0.0,0.0,0.0,0.0,0.0,0.0,0.0,0.0,0.0,0.0,0.0,0.0,0.0,0.0,0.0,0.0,0.0,0.0,0.0,0.0,0.0,0.0,0.0,0.0,0.0,0.0,0.0,0.0,0.0,0.0,0.0,0.0,0.0,0.0,0.0,0.0,0.0,0.0,0.0,0.0,0.0,0.0,0.0,0.0,0.0,0.0,0.0,0.0,0.0,0.0,0.0,0.0,-1.5386,-1.5594,-1.5505,-1.5129,-1.4774,-1.4312,0.0,0.0,0.0,0.0,0.0,0.0,0.0,0.0,0.0,0.0,0.0,0.0,0.0,0.0,0.0,0.0,0.0,0.0,0.0,0.0,0.0,0.0,0.0,0.0,0.0,0.0,0.0,0.0,0.0,0.0,0.0,0.0,0.0,0.0,0.0,0.0,0.0,0.0,0.0,0.0,0.0,0.0,0.0,0.0,0.0,0.0,0.0,0.0,0.0,0.0,0.0,0.0,0.0,0.0,0.0,0.0,0.0,0.0,0.0,0.0,0.0,0.0,0.0,0.0,0.0,0.0,0.0,0.0,0.0,0.0,0.0,0.0,0.0,0.0,0.0,0.0,0.0,0.0,0.0,0.0,0.0,0.0,0.0,0.0,0.0,0.0,0.0,0.0,0.0,0.0,0.0,0.0,0.0,0.0,0.0,0.0,0.0,0.0,0.0,0.0,0.0,0.0,0.0,0.0,0.0,0.0,0.0,0.0,-1.5172,-1.6363,-1.6773,-1.687,-1.6584,-1.574,-1.494,0.0,0.0,0.0,0.0,0.0,0.0,0.0,0.0,0.0,0.0,0.0,0.0,0.0,0.0,0.0,0.0,0.0,0.0,0.0,0.0,0.0,0.0,0.0,0.0,0.0,0.0,0.0,0.0,0.0,0.0,0.0,0.0,0.0,0.0,0.0,0.0,0.0,0.0,0.0,0.0,0.0,0.0,0.0,0.0,0.0,0.0,0.0,0.0,0.0,0.0,0.0,0.0,0.0,0.0,0.0,0.0,0.0,0.0,0.0,0.0,0.0,0.0,0.0,0.0,0.0,0.0,0.0,0.0,0.0,0.0,0.0,0.0,0.0,0.0,0.0,0.0,0.0,0.0,0.0,0.0,0.0,0.0,0.0,0.0,0.0,0.0,0.0,0.0,0.0,0.0,0.0,0.0,0.0,0.0,0.0,0.0,0.0,0.0,0.0,0.0,0.0,0.0,0.0,0.0,0.0,0.0,0.0,0.0,-1.5917,-1.718,-1.7839,-1.8188,-1.8183,-1.6797,-1.5546,0.0,0.0,0.0,0.0,0.0,0.0,0.0,0.0,0.0,0.0,0.0,0.0,0.0,0.0,0.0,0.0,0.0,0.0,0.0,0.0,0.0,0.0,0.0,0.0,0.0,0.0,0.0,0.0,0.0,0.0,0.0,0.0,0.0,0.0,0.0,0.0,0.0,0.0,0.0,0.0,0.0,0.0,0.0,0.0,0.0,0.0,0.0,0.0,0.0,0.0,0.0,0.0,0.0,0.0,0.0,0.0,0.0,0.0,0.0,0.0,0.0,0.0,0.0,0.0,0.0,0.0,0.0,0.0,0.0,0.0,0.0,0.0,0.0,0.0,0.0,0.0,0.0,0.0,0.0,0.0,0.0,0.0,0.0,0.0,0.0,0.0,0.0,0.0,0.0,0.0,0.0,0.0,0.0,0.0,0.0,0.0,0.0,0.0,0.0,0.0,0.0,0.0,0.0,0.0,0.0,0.0,0.0,0.0,-1.6593,-1.7882,-1.8561,-1.8786,-1.8521,-1.7828,-1.6946,0.0,0.0,0.0,0.0,0.0,0.0,0.0,0.0,0.0,0.0,0.0,0.0,0.0,0.0,0.0,0.0,0.0,0.0,0.0,0.0,0.0,0.0,0.0,0.0,0.0,0.0,0.0,0.0,0.0,0.0,0.0,0.0,0.0,0.0,0.0,0.0,0.0,0.0,0.0,0.0,0.0,0.0,0.0,0.0,0.0,0.0,0.0,0.0,-1.4967,0.0,0.0,0.0,0.0,0.0,0.0,0.0,0.0,0.0,0.0,0.0,0.0,0.0,0.0,0.0,0.0,0.0,0.0,0.0,0.0,0.0,0.0,0.0,0.0,0.0,0.0,0.0,0.0,0.0,0.0,0.0,0.0,0.0,0.0,0.0,0.0,0.0,0.0,0.0,0.0,0.0,0.0,0.0,0.0,0.0,0.0,0.0,0.0,0.0,0.0,0.0,0.0,0.0,0.0,0.0,0.0,0.0,0.0,0.0,-1.7387,-1.8649,-1.9381,-1.9543,-1.9081,-1.9,-1.8176,0.0,0.0,0.0,0.0,0.0,0.0,0.0,0.0,0.0,0.0,0.0,0.0,0.0,0.0,0.0,0.0,0.0,0.0,0.0,0.0,0.0,0.0,0.0,0.0,0.0,0.0,0.0,0.0,0.0,0.0,0.0,0.0,0.0,0.0,0.0,0.0,0.0,0.0,0.0,0.0,0.0,0.0,0.0,0.0,0.0,0.0,0.0,0.0,0.0,0.0,0.0,0.0,0.0,0.0,0.0,0.0,0.0,0.0,0.0,0.0,0.0,0.0,0.0,0.0,0.0,0.0,0.0,0.0,0.0,0.0,0.0,0.0,0.0,0.0,0.0,0.0,0.0,0.0,0.0,0.0,0.0,0.0,0.0,0.0,0.0,0.0,0.0,0.0,0.0,0.0,0.0,0.0,0.0,0.0,0.0,0.0,0.0,0.0,0.0,0.0,0.0,0.0,0.0,0.0,0.0,0.0,0.0,-1.6903,-1.814,-1.9306,-2.0278,-2.0384,-1.9686,-1.9958,-1.8972,0.0,0.0,0.0,0.0,0.0,0.0,0.0,0.0,0.0,0.0,0.0,0.0,0.0,0.0,0.0,0.0,0.0,0.0,0.0,0.0,0.0,0.0,0.0,0.0,0.0,0.0,0.0,0.0,0.0,0.0,0.0,0.0,0.0,0.0,0.0,0.0,0.0,0.0,0.0,-1.4147,-1.5107,0.0,0.0,0.0,0.0,0.0,0.0,0.0,0.0,-1.5933,0.0,0.0,0.0,0.0,0.0,0.0,0.0,0.0,0.0,0.0,0.0,0.0,0.0,0.0,0.0,0.0,0.0,0.0,0.0,0.0,0.0,0.0,0.0,0.0,0.0,0.0,0.0,0.0,0.0,0.0,0.0,0.0,0.0,0.0,0.0,0.0,0.0,0.0,0.0,0.0,0.0,0.0,0.0,0.0,0.0,0.0,0.0,0.0,0.0,0.0,0.0,0.0,0.0,0.0,0.0,0.0,-1.5734,-1.7518,-1.8811,-1.9601,-2.0797,-2.0945,-1.9952,-1.9684,-1.8618,-1.6754,0.0,0.0,0.0,0.0,0.0,0.0,0.0,0.0,0.0,0.0,0.0,0.0,0.0,0.0,0.0,0.0,0.0,0.0,0.0,0.0,0.0,0.0,0.0,0.0,0.0,0.0,0.0,0.0,0.0,0.0,0.0,0.0,0.0,0.0,0.0,0.0,0.0,0.0,0.0,-1.5546,-1.6425,0.0,0.0,0.0,0.0,0.0,0.0,0.0,0.0,-1.7417,0.0,0.0,0.0,0.0,0.0,0.0,0.0,0.0,0.0,0.0,0.0,0.0,0.0,0.0,0.0,0.0,0.0,0.0,0.0,0.0,0.0,0.0,0.0,0.0,0.0,0.0,0.0,0.0,0.0,0.0,0.0,0.0,0.0,0.0,0.0,0.0,0.0,0.0,0.0,0.0,0.0,0.0,0.0,0.0,0.0,0.0,0.0,0.0,0.0,0.0,0.0,0.0,0.0,0.0,0.0,-1.5982,-1.8085,-1.9435,-1.988,-2.1218,-2.1365,-2.0213,-1.9781,-1.8754,0.0,0.0,0.0,0.0,0.0,0.0,0.0,0.0,0.0,0.0,0.0,0.0,0.0,0.0,0.0,0.0,0.0,0.0,0.0,0.0,0.0,0.0,0.0,0.0,0.0,0.0,0.0,0.0,0.0,0.0,0.0,0.0,0.0,0.0,0.0,0.0,0.0,0.0,0.0,0.0,-1.6855,-1.7822,-1.7828,0.0,0.0,0.0,0.0,0.0,0.0,-1.9174,-1.8785,0.0,0.0,0.0,0.0,0.0,0.0,0.0,0.0,0.0,0.0,0.0,0.0,0.0,0.0,0.0,0.0,0.0,0.0,0.0,0.0,0.0,0.0,0.0,0.0,0.0,0.0,0.0,0.0,0.0,0.0,0.0,0.0,0.0,0.0,0.0,0.0,0.0,0.0,0.0,0.0,0.0,0.0,0.0,0.0,0.0,0.0,0.0,0.0,0.0,0.0,0.0,0.0,0.0,0.0,0.0,-1.6213,-1.8632,-1.9954,-2.0126,-2.1552,-2.1685,-2.0429,-1.9804,-1.8765,0.0,0.0,0.0,0.0,0.0,0.0,0.0,0.0,0.0,0.0,0.0,0.0,0.0,0.0,0.0,0.0,0.0,0.0,0.0,0.0,0.0,0.0,0.0,0.0,0.0,0.0,0.0,0.0,0.0,0.0,0.0,0.0,0.0,0.0,0.0,0.0,0.0,0.0,0.0,0.0,0.0,-1.8944,-1.9096,-1.9773,0.0,0.0,0.0,0.0,-2.0264,-2.0103,0.0,0.0,0.0,0.0,0.0,0.0,0.0,0.0,0.0,0.0,0.0,0.0,0.0,0.0,0.0,0.0,0.0,0.0,0.0,0.0,0.0,0.0,0.0,0.0,0.0,0.0,0.0,0.0,0.0,0.0,0.0,0.0,0.0,0.0,0.0,0.0,0.0,0.0,0.0,0.0,0.0,0.0,0.0,0.0,0.0,0.0,0.0,0.0,0.0,0.0,0.0,0.0,0.0,0.0,0.0,0.0,-1.65,-1.8999,-2.0344,-2.0486,-2.1837,-2.1969,-2.0684,-1.9566,-1.8432,0.0,0.0,0.0,0.0,0.0,0.0,0.0,0.0,0.0,0.0,0.0,0.0,0.0,0.0,0.0,0.0,0.0,0.0,0.0,0.0,0.0,0.0,0.0,0.0,0.0,0.0,0.0,0.0,0.0,0.0,0.0,0.0,0.0,0.0,0.0,0.0,0.0,0.0,0.0,0.0,0.0,-1.9147,-1.9765,-2.0551,-2.1042,0.0,0.0,0.0,-2.1059,-2.0483,0.0,0.0,0.0,0.0,0.0,0.0,0.0,0.0,0.0,0.0,0.0,0.0,0.0,0.0,0.0,0.0,0.0,0.0,0.0,0.0,0.0,0.0,0.0,0.0,0.0,0.0,0.0,0.0,0.0,0.0,0.0,0.0,0.0,0.0,0.0,0.0,0.0,0.0,0.0,0.0,0.0,0.0,0.0,0.0,0.0,0.0,0.0,0.0,0.0,0.0,0.0,0.0,0.0,0.0,0.0,-1.5315,-1.6642,-1.9214,-2.0557,-2.0656,-2.2031,-2.2177,-2.0909,-1.9783,-1.8629,0.0,0.0,0.0,0.0,0.0,0.0,0.0,0.0,0.0,0.0,0.0,0.0,0.0,0.0,0.0,0.0,0.0,0.0,0.0,0.0,0.0,0.0,0.0,0.0,0.0,0.0,0.0,0.0,0.0,0.0,0.0,0.0,0.0,0.0,0.0,0.0,0.0,0.0,0.0,0.0,0.0,0.0,-2.1264,-2.2,0.0,0.0,0.0,-2.3083,-2.3083,0.0,0.0,0.0,0.0,0.0,0.0,0.0,0.0,0.0,0.0,0.0,0.0,0.0,0.0,0.0,0.0,0.0,0.0,0.0,0.0,0.0,0.0,0.0,0.0,0.0,0.0,0.0,0.0,0.0,0.0,0.0,0.0,0.0,0.0,0.0,0.0,0.0,0.0,0.0,0.0,0.0,0.0,0.0,0.0,0.0,0.0,0.0,0.0,0.0,0.0,0.0,0.0,0.0,0.0,0.0,0.0,0.0,-1.6823,-1.9452,-2.0824,-2.0838,-2.2251,-2.2396,-2.1131,-2.0138,0.0,0.0,0.0,0.0,0.0,0.0,0.0,0.0,0.0,0.0,0.0,0.0,0.0,0.0,0.0,0.0,0.0,0.0,0.0,0.0,0.0,0.0,0.0,0.0,0.0,0.0,0.0,0.0,0.0,0.0,0.0,0.0,0.0,0.0,0.0,0.0,0.0,0.0,0.0,0.0,0.0,0.0,-2.1881,-2.2603,-2.3294,-2.3879,0.0,0.0,-2.4523,-2.4523,-2.4019,-2.3477,0.0,0.0,0.0,0.0,0.0,0.0,0.0,0.0,0.0,0.0,0.0,0.0,0.0,0.0,0.0,0.0,0.0,0.0,0.0,0.0,0.0,0.0,0.0,0.0,0.0,0.0,0.0,0.0,0.0,0.0,0.0,0.0,0.0,0.0,0.0,0.0,0.0,0.0,0.0,0.0,0.0,0.0,0.0,0.0,0.0,0.0,0.0,0.0,0.0,0.0,0.0,0.0,0.0,0.0,0.0,-1.7121,-1.9701,-2.1087,-2.1211,-2.2554,-2.2671,-2.1392,-2.071,-1.945,0.0,0.0,0.0,0.0,0.0,0.0,0.0,0.0,0.0,0.0,0.0,0.0,0.0,0.0,0.0,0.0,0.0,0.0,0.0,0.0,0.0,0.0,0.0,0.0,0.0,0.0,0.0,0.0,0.0,0.0,0.0,0.0,0.0,0.0,0.0,0.0,0.0,0.0,0.0,0.0,0.0,-2.2696,-2.3437,-2.4083,-2.4547,0.0,0.0,-2.4523,-2.4523,-2.4489,-2.4391,-2.434,0.0,0.0,0.0,0.0,0.0,0.0,0.0,0.0,0.0,0.0,0.0,0.0,0.0,0.0,0.0,0.0,0.0,0.0,0.0,0.0,0.0,0.0,0.0,0.0,0.0,0.0,0.0,0.0,0.0,0.0,0.0,0.0,0.0,0.0,0.0,0.0,0.0,0.0,0.0,0.0,0.0,0.0,0.0,0.0,0.0,0.0,0.0,0.0,0.0,0.0,0.0,0.0,0.0,-1.6698,-1.7795,-2.0099,-2.1483,-2.1907,-2.2904,-2.2814,-2.1484,-2.0896,-1.9656,0.0,0.0,0.0,0.0,0.0,0.0,0.0,0.0,0.0,0.0,0.0,0.0,0.0,0.0,0.0,0.0,0.0,0.0,0.0,0.0,0.0,0.0,0.0,0.0,0.0,0.0,0.0,0.0,-1.0159,-1.1031,-1.2063,0.0,0.0,0.0,0.0,0.0,0.0,0.0,0.0,0.0,0.0,-2.3721,-2.491,-2.5641,0.0,0.0,-2.708,-2.7131,-2.6607,-2.615,-2.5693,-2.5253,-2.456,0.0,0.0,0.0,0.0,0.0,0.0,0.0,0.0,0.0,0.0,0.0,0.0,0.0,0.0,0.0,0.0,0.0,0.0,0.0,0.0,0.0,0.0,0.0,0.0,0.0,0.0,0.0,0.0,0.0,0.0,0.0,0.0,0.0,0.0,0.0,0.0,0.0,0.0,0.0,0.0,0.0,0.0,0.0,0.0,0.0,0.0,0.0,0.0,0.0,0.0,0.0,0.0,-1.7286,-1.8527,-2.0436,-2.1724,-2.233,-2.3109,-2.3016,-2.1887,-2.1311,-2.0168,0.0,0.0,0.0,0.0,0.0,0.0,0.0,0.0,0.0,0.0,0.0,0.0,0.0,0.0,0.0,0.0,0.0,0.0,0.0,0.0,0.0,0.0,0.0,0.0,0.0,0.0,0.0,0.0,-1.1169,-1.2459,-1.404,0.0,0.0,0.0,0.0,0.0,0.0,0.0,0.0,0.0,0.0,-2.5247,-2.6285,-2.7171,-2.7878,-2.8339,-2.8816,-2.8934,-2.8266,-2.7758,-2.7216,-2.6691,0.0,0.0,0.0,0.0,0.0,0.0,0.0,0.0,0.0,0.0,0.0,0.0,0.0,0.0,0.0,0.0,0.0,0.0,0.0,0.0,0.0,0.0,0.0,0.0,0.0,0.0,0.0,0.0,0.0,0.0,-1.0533,0.0,0.0,0.0,0.0,0.0,0.0,0.0,0.0,0.0,0.0,0.0,0.0,0.0,0.0,0.0,0.0,0.0,0.0,0.0,0.0,0.0,0.0,0.0,-1.9376,-2.0798,-2.1847,-2.25,-2.3238,-2.3295,-2.2694,-2.2024,-2.1021,-1.9615,0.0,0.0,0.0,0.0,0.0,0.0,0.0,0.0,0.0,0.0,0.0,0.0,0.0,0.0,0.0,0.0,0.0,0.0,0.0,0.0,0.0,0.0,0.0,0.0,0.0,0.0,-1.1104,-1.251,-1.4109,0.0,0.0,0.0,0.0,0.0,0.0,0.0,0.0,0.0,0.0,-2.5959,-2.7307,-2.7376,-2.8523,-2.9351,-2.9386,-2.935,-2.9279,-2.9087,-2.907,-2.9051,0.0,0.0,0.0,0.0,0.0,0.0,0.0,0.0,0.0,0.0,0.0,0.0,0.0,0.0,0.0,0.0,0.0,0.0,0.0,0.0,0.0,0.0,0.0,0.0,0.0,0.0,0.0,-1.1943,-1.1993,0.0,0.0,0.0,0.0,0.0,0.0,0.0,0.0,0.0,0.0,0.0,-1.6395,-1.6548,0.0,0.0,0.0,0.0,0.0,0.0,0.0,0.0,0.0,0.0,0.0,0.0,-1.8841,-2.0169,-2.1168,-2.2122,-2.3208,-2.349,-2.331,-2.2739,-2.2039,-2.0647,-1.8414,0.0,0.0,0.0,0.0,0.0,0.0,0.0,0.0,0.0,0.0,0.0,0.0,0.0,0.0,0.0,0.0,0.0,0.0,0.0,0.0,0.0,0.0,0.0,0.0,0.0,-1.2704,0.0,0.0,0.0,0.0,0.0,0.0,0.0,0.0,0.0,0.0,0.0,-2.4593,-2.6258,-2.714,-2.7954,-2.8871,-2.9763,-3.0317,0.0,0.0,0.0,0.0,0.0,0.0,0.0,0.0,0.0,0.0,0.0,0.0,0.0,0.0,-2.6653,-2.4506,-2.3917,-2.3748,-2.3765,0.0,0.0,0.0,0.0,0.0,0.0,0.0,0.0,0.0,0.0,0.0,0.0,0.0,0.0,-1.372,0.0,-1.3611,0.0,0.0,0.0,0.0,0.0,0.0,0.0,0.0,-1.7565,-1.8173,-1.8706,-1.8918,-1.9114,0.0,-1.8812,-1.7738,0.0,0.0,0.0,0.0,0.0,0.0,0.0,0.0,-1.9611,-2.0929,-2.171,-2.2532,-2.3535,-2.3595,-2.34,-2.2996,-2.2158,-2.0543,-1.8149,-1.6802,-1.5424,0.0,0.0,0.0,0.0,0.0,0.0,0.0,0.0,0.0,0.0,0.0,0.0,0.0,0.0,0.0,0.0,0.0,0.0,0.0,0.0,0.0,0.0,0.0,-1.5041,0.0,0.0,0.0,0.0,0.0,0.0,0.0,0.0,0.0,-2.4155,-2.503,-2.633,-2.8012,-2.8639,-2.9355,-3.0536,0.0,0.0,0.0,0.0,0.0,0.0,0.0,-3.1456,-3.0974,-3.0779,-3.064,-3.035,-3.0299,-3.0231,-2.9975,0.0,0.0,-2.6638,-2.6179,-2.6196,-2.6179,-2.6179,-2.6179,-2.6179,-2.6129,-2.6097,0.0,0.0,0.0,0.0,0.0,0.0,0.0,0.0,-1.566,-1.5586,0.0,-1.5888,0.0,0.0,0.0,0.0,0.0,0.0,0.0,0.0,-1.9903,-2.0702,-2.0748,-2.1024,-2.1251,-2.1358,-2.0911,-2.0441,-1.9901,-1.8166,0.0,0.0,0.0,0.0,0.0,0.0,-2.0363,-2.171,-2.2338,-2.3008,-2.3565,-2.3595,-2.358,-2.3505,-2.2338,-2.0767,-1.8822,-1.7443,-1.6428,-1.5784,-1.3301,0.0,0.0,0.0,0.0,0.0,0.0,0.0,0.0,0.0,0.0,0.0,0.0,0.0,0.0,0.0,0.0,0.0,0.0,0.0,0.0,-1.5501,0.0,0.0,0.0,0.0,0.0,0.0,0.0,0.0,0.0,0.0,-2.6233,-2.7262,-2.8404,-2.9231,0.0,0.0,0.0,0.0,-3.3445,-3.4081,-3.4181,-3.4103,-3.3888,-3.3865,-3.3865,-3.3761,0.0,0.0,-3.2769,-3.2633,-3.2376,-3.1709,-3.1589,-3.1127,-2.9708,-2.9279,-2.9194,-2.9211,-2.9108,-2.9228,-2.9228,-2.8867,-2.8883,-1.8945,0.0,0.0,0.0,0.0,-1.7638,-1.763,-1.7838,-1.7966,-1.8058,-1.8109,-1.8336,0.0,0.0,0.0,0.0,0.0,0.0,-2.0487,-2.117,-2.1751,-2.2428,-2.3105,-2.3217,-2.3364,-2.353,-2.3137,-2.2886,-2.2685,-2.1503,-2.0138,-1.8738,0.0,0.0,0.0,0.0,-2.1545,-2.2394,-2.2577,-2.2966,-2.3595,-2.3595,-2.3385,-2.2936,-2.2128,-2.0976,-1.945,-1.8149,-1.6922,-1.5844,-1.4629,0.0,0.0,0.0,0.0,0.0,0.0,0.0,0.0,0.0,0.0,0.0,0.0,0.0,0.0,0.0,0.0,0.0,0.0,0.0,-1.6353,-1.764,-1.8915,0.0,0.0,0.0,0.0,0.0,0.0,0.0,0.0,0.0,-3.0749,-3.082,-3.1041,0.0,0.0,-3.3504,-3.4182,-3.425,-3.4351,-3.4541,0.0,0.0,0.0,-3.4177,-3.412,-3.4098,-3.398,-3.375,-3.3522,-3.3494,-3.3465,-3.3242,-3.3287,-3.3188,-3.2741,-3.1253,-3.0221,-3.0067,-2.9655,-2.9296,-2.9279,-2.9262,-2.9261,-2.1144,-2.0257,-1.9698,-1.9614,-1.9817,-1.975,-1.9851,-2.0067,-2.0318,-2.0431,-2.0531,-2.0533,-2.061,-2.0761,-2.0856,0.0,0.0,0.0,-2.2231,-2.2865,-2.3626,-2.4315,-2.494,-2.4977,-2.5197,-2.5373,-2.4704,-2.4411,-2.4458,-2.3865,-2.2993,-2.1713,0.0,0.0,-2.1034,-2.1754,-2.2278,-2.2724,-2.2921,-2.3236,-2.3595,-2.3595,-2.331,-2.2724,-2.2039,-2.1186,-2.0124,-1.8807,-1.7625,-1.6578,-1.5694,-1.4539,0.0,0.0,0.0,0.0,0.0,0.0,0.0,0.0,0.0,0.0,0.0,-1.0938,0.0,0.0,0.0,0.0,-1.5843,-1.7299,-1.8995,-2.0161,0.0,0.0,0.0,0.0,0.0,0.0,0.0,-2.926,-3.0249,-3.1476,-3.3288,-3.3696,-3.3876,-3.3924,-3.4288,-3.4829,-3.5474,0.0,-3.5344,-3.5606,-3.5507,-3.5514,-3.5771,-3.5727,-3.5734,-3.6047,-3.5976,-3.5773,-3.5456,-3.5404,-3.5341,-3.5082,-3.5071,-3.5111,-3.5094,-3.3632,-3.2276,-3.1926,-3.1551,-3.1242,-3.1205,-3.1168,-3.1131,-2.2859,-2.2883,-2.2264,-2.1793,-2.1423,-2.1918,-2.2219,-2.2332,-2.2468,-2.2665,-2.2788,-2.2439,-2.2405,-2.2531,-2.2635,0.0,-2.2745,-2.3353,-2.3699,-2.3884,-2.546,-2.6266,-2.6415,-2.6562,-2.6789,-2.6948,-2.5877,-2.5423,-2.5534,-2.5497,-2.5485,-2.5411,-2.3035,-2.1873,-2.2054,-2.2622,-2.2906,-2.2963,-2.3415,-2.3655,-2.3595,-2.3595,-2.3325,-2.2813,-2.2113,-2.147,-2.0797,-1.9495,-1.8478,-1.7772,-1.6608,-1.5634,-1.4899,0.0,0.0,0.0,0.0,0.0,0.0,0.0,0.0,0.0,0.0,0.0,0.0,0.0,0.0,0.0,-1.893,0.0,-2.1407,-2.2858,0.0,0.0,0.0,-2.7235,-2.8697,-2.9224,-3.0008,-3.1508,0.0,0.0,-3.4469,0.0,-3.6666,-3.5987,-3.5731,-3.5862,-3.6524,-3.6523,-3.6624,-3.7291,-3.7281,-3.7426,-3.7872,-3.793,-3.8021,-3.8632,-3.9007,-3.8589,-3.7979,-3.7823,-3.7596,-3.7021,-3.6917,-3.6917,-3.6917,-3.6255,-3.5536,-3.4609,-3.4211,-3.4112,-3.3908,-3.3778,-3.3648,-2.3961,-2.4534,-2.4676,-2.3987,-2.2796,-2.3191,-2.3453,-2.3636,-2.3919,-2.4112,-2.4163,-2.4154,-2.428,-2.463,-2.4845,-2.5229,-2.5614,-2.5941,-2.6348,-2.6791,-2.7286,-2.7754,-2.8105,-2.8161,-2.8327,-2.8488,-2.7897,-2.7617,-2.7624,-2.6743,-2.6299,-2.624,-2.5179,-2.4627,-2.4687,-2.4837,-2.4911,-2.4911,-2.4567,-2.4133,-2.3625,-2.3595,-2.3535,-2.337,-2.2757,-2.2143,-2.147,-2.0168,-1.9151,-1.8493,-1.7685,-1.6727,-1.5634,-1.5385,0.0,0.0,0.0,0.0,0.0,0.0,0.0,0.0,0.0,-1.473,-1.5649,0.0,-1.832,0.0,-2.1312,-2.2902,-2.363,-2.4696,0.0,0.0,-2.8215,-2.9225,-3.0263,-3.1668,-3.2717,-3.319,-3.422,-3.5439,-3.689,-3.753,-3.8249,-3.9118,-3.8705,-3.833,-3.8474,-3.8829,-3.9126,-3.9231,-3.9075,-3.9045,-3.9181,-3.9171,-3.9135,-3.921,-3.9263,-3.9157,-3.8982,-3.8947,-3.8894,-3.8719,-3.8702,-3.8702,-3.8666,-3.8585,-3.8164,-3.7236,-3.5684,-3.4349,-3.431,-3.4328,-3.4272,-2.469,-2.5475,-2.5718,-2.5338,-2.4661,-2.5085,-2.5378,-2.5587,-2.5864,-2.6083,-2.6127,-2.5908,-2.5651,-2.5547,-2.5847,-2.6294,-2.6688,-2.7083,-2.7499,-2.7893,-2.8381,-2.8857,-2.9216,-2.9216,-2.9386,-2.9637,-2.9109,-2.8866,-2.886,-2.7979,-2.7485,-2.7455,-2.6811,-2.6482,-2.6467,-2.5914,-2.56,-2.56,-2.491,-2.4448,-2.4073,-2.3759,-2.3595,-2.358,-2.3011,-2.2368,-2.171,-2.0692,-1.9705,-1.8762,-1.8358,-1.77,-1.6712,-1.6804,-1.6438,0.0,0.0,0.0,0.0,0.0,0.0,0.0,0.0,0.0,0.0,0.0,-2.0874,0.0,-2.4272,-2.5676,-2.6404,-2.7301,-2.8442,-2.9962,-3.0693,-3.1461,-3.2351,-3.3458,-3.4447,-3.5243,-3.6076,-3.7144,-3.869,-3.9155,-3.9601,-4.049,-4.0526,-4.0256,-3.9824,-3.9965,-4.0159,-4.0103,-3.9971,-3.9921,-4.0162,-4.0447,-4.0612,-4.051,-4.0493,-4.0405,-4.0052,-3.9964,-3.9858,-3.9506,-3.9417,-3.9417,-3.9417,-3.9476,-3.9358,-3.8765,-3.7681,-3.651,-3.5654,-3.5475,-3.5436,-2.5262,-2.5867,-2.606,-2.6275,-2.6594,-2.7103,-2.7419,-2.752,-2.773,-2.7938,-2.8119,-2.7525,-2.6878,-2.6293,-2.6529,-2.6813,-2.7169,-2.7585,-2.7914,-2.8294,-2.9129,-2.9682,-3.006,-3.006,-3.016,-3.0401,-2.9833,-2.959,-2.9669,-2.9041,-2.8682,-2.8577,-2.7993,-2.7715,-2.758,-2.6422,-2.5824,-2.5719,-2.5166,-2.4807,-2.4567,-2.4029,-2.3684,-2.358,-2.3071,-2.2488,-2.1844,-2.1276,-2.0393,-1.9181,-1.9016,-1.8657,-1.8014,-1.8055,-1.7834,0.0,-1.7484,0.0,0.0,0.0,0.0,0.0,0.0,0.0,0.0,-2.1893,-2.3712,-2.583,-2.73,-2.8467,-2.933,-3.0085,-3.1096,-3.2559,-3.3093,-3.3706,-3.4579,-3.5089,-3.5947,-3.7421,-3.7935,-3.8744,-4.011,-4.0637,-4.0851,-4.1105,-4.1667,-4.1723,-4.0981,-4.0781,-4.076,-4.0634,-4.0504,-4.0745,-4.1141,-4.1659,-4.2002,-4.2019,-4.1966,-4.1824,-4.1174,-4.1049,-4.0795,-4.0215,-4.0126,-4.0073,-4.002,-4.0037,-4.0002,-3.9878,-3.9696,-3.908,-3.7619,-3.7009,-3.6986,-2.567,-2.6487,-2.6653,-2.7094,-2.7667,-2.8064,-2.7948,-2.752,-2.7877,-2.817,-2.8363,-2.8388,-2.8453,-2.8651,-2.8463,-2.8704,-2.9135,-2.8996,-2.9223,-2.9693,-2.9975,-3.0393,-3.0837,-3.0896,-3.0998,-3.1243,-3.06,-3.0328,-3.0328,-2.9684,-2.9131,-2.8607,-2.8472,-2.8128,-2.764,0.0,0.0,0.0,-2.6288,-2.5704,-2.4672,-2.4507,-2.4163,-2.3625,-2.3475,0.0,-2.2532,-2.2368,-2.1949,-2.1171,-2.0632,0.0,0.0,0.0,0.0,0.0,0.0,0.0,0.0,0.0,0.0,0.0,-2.2882,-2.344,-2.332,-2.5313,-2.7112,-2.8247,-2.9161,-3.0209,-3.1568,-3.1919,-3.244,-3.3413,-3.4734,-3.5749,-3.6249,-3.7556,-3.8649,-3.9062,-3.9506,-4.011,-4.0991,-4.1469,-4.1905,-4.245,-4.2832,-4.2868,-4.2668,-4.2431,-4.2354,-4.2332,-4.2073,-4.2121,-4.2279,-4.2382,-4.2468,-4.249,-4.249,-4.2418,-4.2217,-4.2221,-4.2257,-4.197,-4.2024,-4.1988,-4.1988,-4.2042,-4.1697,-4.1181,-4.0996,-4.0592,-3.9332,-3.8523,-3.7998,-2.5695,0.0,-2.6809,-2.7313,0.0,-2.8351,-2.8445,-2.8319,-2.8611,-2.875,-2.8781,-2.9027,-2.9163,-2.9248,-2.931,-2.9645,-3.0145,-2.9868,-3.0052,-3.0492,-3.0348,-3.0568,-3.1087,-3.1087,-3.1264,-3.1467,-3.118,-3.1016,-3.0986,-3.0342,-2.9864,-2.9535,-2.8921,-2.8427,-2.8083,-2.7754,-2.7445,-2.7081,-2.6752,-2.6273,-2.56,-2.491,-2.4462,-2.4118,0.0,0.0,0.0,0.0,0.0,0.0,0.0,0.0,0.0,0.0,0.0,-2.0491,-2.0656,-2.1111,-2.1957,-2.253,-2.3258,-2.4248,-2.6211,-2.6939,-2.5775,-2.7908,-2.9484,-2.9964,-3.1033,-3.2188,-3.3237,-3.377,-3.4381,-3.5301,-3.6464,-3.7352,-3.7826,-3.8646,-3.9469,-4.007,-4.0503,-4.1079,-4.189,-4.2321,-4.265,-4.3087,-4.3251,-4.3304,-4.3305,-4.3178,-4.3013,-4.2936,-4.2842,-4.2709,-4.2688,-4.2649,-4.2609,-4.2609,-4.2609,-4.2609,-4.2609,-4.2609,-4.2609,-4.2609,-4.2609,-4.2609,-4.2609,-4.2609,-4.2465,-4.2124,-4.1959,-4.1809,-4.1069,-3.9966,-3.885,-2.5538,-2.6207,-2.6633,-2.7219,-2.7881,-2.8283,-2.8657,-2.9131,0.0,0.0,0.0,-2.9602,-2.9641,-2.9549,-2.9799,-3.0236,-3.0733,-3.0394,-3.053,-3.0948,-3.0492,-3.0568,-3.1073,-3.1087,-3.1264,-3.1467,-3.1467,-3.1467,-3.1452,-3.0956,-3.0627,-3.0417,-2.9445,-2.8816,-2.8525,-2.7934,-2.756,-2.7494,-2.7036,-2.6707,-2.6572,-2.554,-2.4866,-2.4761,-2.4133,-2.3535,-2.3056,-2.2906,-2.2592,-2.2069,-2.1934,-2.1874,-2.1874,-2.1939,-2.2088,-2.2303,-2.2607,-2.3172,-2.4004,-2.428,-2.51,-2.675,-2.8906,-2.9543,-2.8018,-3.0051,-3.1429,-3.1587,-3.2799,-3.3931,-3.481,-3.5436,-3.622,-3.7194,-3.7974,-3.8603,-3.9129,-3.9425,-3.9964,-4.0831,-4.1301,-4.1737,-4.2465,-4.2902,-4.3214,-4.3232,-4.3358,-4.3497,-4.3411,-4.3286,-4.3178,-4.3086,-4.3031,-4.2938,-4.288,-4.2822,-4.2709,-4.2765,-4.2709,-4.2709,-4.2709,-4.2709,-4.2727,-4.2765,-4.2709,-4.2727,-4.2709,-4.2727,-4.2688,-4.2688,-4.2649,-4.2609,-4.2418,-4.1346,-4.0042,-2.5454,-2.5979,-2.6479,-2.6962,-2.7603,-2.7881,-2.8443,-2.9143,-2.9546,-2.9806,-2.9961,-3.0177,-3.0428,-3.0712,-3.0652,-3.0841,-3.1335,-3.0574,-3.0465,0.0,-3.0506,-3.0582,-3.1087,-3.1087,-3.1249,-3.1467,-3.1467,-3.1467,-3.1452,-3.1362,-3.1091,-3.0552,-3.0313,-2.963,-2.8464,-2.7765,-2.7386,-2.7284,-2.7369,-2.7205,-2.6602,-2.6408,-2.6033,-2.5465,-2.4822,-2.4448,-2.4298,-2.3789,-2.343,-2.3325,-2.2832,-2.2547,-2.2574,-2.2589,-2.2855,-2.3538,-2.4225,-2.5022,-2.5826,-2.6181,-2.715,-2.9026,-2.9708,-3.0009,-3.0145,-3.1716,-3.3074,-3.3775,-3.4115,-3.4928,-3.6231,-3.6552,-3.7034,-3.7962,-3.8743,-3.9439,-3.9894,-4.055,-4.1174,-4.1697,-4.2068,-4.2293,-4.2555,-4.2956,-4.3178,-4.3196,-4.3375,-4.3479,-4.3463,-4.3322,-4.3196,-4.316,-4.316,-4.316,-4.3105,-4.3142,-4.3105,-4.3142,-4.3105,-4.305,-4.305,-4.305,-4.3068,-4.3105,-4.3068,-4.3105,-4.3105,-4.3086,-4.303,-4.2974,-4.2899,-4.2745,-4.2627,-4.2203,-4.1645,-2.5285,-2.5717,-2.6207,-2.6775,-2.7348,-2.7938,-2.859,-2.9131,-2.9443,-2.9689,-2.9934,-3.0292,-3.052,-3.0722,-3.1008,-3.1401,-3.1707,-3.1241,-3.1212,-3.1318,-3.0897,-3.078,-3.091,-3.1087,-3.1205,-3.1409,-3.1467,-3.1467,-3.1467,-3.1424,-3.1245,-3.0932,-3.0476,-2.9781,-2.8808,-2.8127,-2.775,-2.7682,-2.7513,-2.7223,-2.6941,-2.6634,-2.6355,-2.6009,-2.5463,-2.5151,-2.5151,-2.4866,-2.4687,-2.4687,-2.4433,-2.4268,-2.4253,-2.4268,-2.4447,-2.4882,-2.5303,-2.5955,-2.6857,-2.7968,-2.9169,-3.0511,-3.1255,-3.1743,-3.206,-3.3001,-3.3773,-3.4242,-3.5082,-3.5949,-3.6738,-3.7499,-3.8221,-3.8687,-3.9481,-4.0147,-4.051,-4.0937,-4.1453,-4.1841,-4.2121,-4.231,-4.2552,-4.2862,-4.3087,-4.316,-4.3375,-4.3479,-4.3479,-4.3428,-4.3358,-4.334,-4.3286,-4.3251,-4.3214,-4.3214,-4.3214,-4.3214,-4.3214,-4.3214,-4.3214,-4.3214,-4.3214,-4.3214,-4.3214,-4.3214,-4.3214,-4.3178,-4.316,-4.3104,-4.303,-4.2899,-4.2745,-4.2508,-4.1937,-2.5041,-2.5443,-2.5946,-2.6528,-2.7348,-2.8179,-2.8657,-2.9052,-2.9263,-2.9509,-2.9779,-3.0139,-3.0355,-3.0444,-3.1136,-3.1596,-3.1869,-3.1815,-3.168,-3.1613,-3.1212,-3.0898,-3.082,-3.094,-3.1132,-3.1234,-3.1366,-3.1409,-3.1424,-3.1292,-3.1234,-3.1175,-3.0482,-2.9778,-2.9207,-2.8576,-2.8125,-2.791,-2.7495,-2.7225,-2.7167,-2.6781,-2.6609,-2.655,-2.6039,-2.5744,-2.5777,-2.5642,-2.5553,-2.5615,-2.56,-2.56,-2.5615,-2.5749,-2.5886,-2.5995,-2.6257,-2.6824,-2.7827,-2.9373,-3.0717,-3.1529,-3.2465,-3.3129,-3.3581,-3.411,-3.4472,-3.4806,-3.5849,-3.6747,-3.7364,-3.8261,-3.9105,-3.9438,-4.0078,-4.0563,-4.0871,-4.1088,-4.1346,-4.1736,-4.1977,-4.2228,-4.2512,-4.2786,-4.3013,-4.3214,-4.3393,-4.3479,-4.3479,-4.3479,-4.3463,-4.3446,-4.3429,-4.3411,-4.3286,-4.3286,-4.3286,-4.3286,-4.3286,-4.3286,-4.3286,-4.3268,-4.3268,-4.3286,-4.3268,-4.3286,-4.3286,-4.3251,-4.3214,-4.316,-4.3104,-4.303,-4.2783,-4.2409,-4.1919,-2.4786,-2.5285,-2.5717,-2.6539,-2.7522,-2.8179,-2.8578,-2.8882,-2.9263,-2.9431,-2.9496,-2.9908,-3.0228,-3.0444,-3.0898,-3.1373,-3.185,-3.1673,-3.1488,-3.1429,-3.1133,-3.0898,-3.0611,-3.0762,-3.094,-3.1073,-3.1146,-3.1132,-3.1146,-3.1132,-3.1087,-3.1058,-3.0439,-2.9928,-2.9522,-2.8869,-2.8163,-2.7408,-2.7322,-2.7223,-2.7211,-2.7174,-2.7144,-2.7144,-2.6459,-2.6219,-2.6317,-2.5738,-2.5473,-2.56,-2.5644,-2.563,-2.5689,-2.6183,-2.6497,-2.6542,-2.7214,-2.8111,-2.9131,-3.0208,-3.113,-3.2029,-3.259,-3.3274,-3.4121,-3.5087,-3.5777,-3.6148,-3.6421,-3.7256,-3.8599,-3.8937,-3.9359,-3.9983,-4.0351,-4.0631,-4.0823,-4.1088,-4.1346,-4.1736,-4.1952,-4.2228,-4.253,-4.2786,-4.3013,-4.3305,-4.3446,-4.3479,-4.3479,-4.3479,-4.3479,-4.3497,-4.3497,-4.3497,-4.3463,-4.3444,-4.3444,-4.3463,-4.3463,-4.3444,-4.3444,-4.3444,-4.3444,-4.341,-4.3463,-4.3444,-4.3428,-4.3428,-4.334,-4.3233,-4.3123,-4.3012,-4.2688,-4.2369,-4.1973,-2.4615,-2.5031,-2.5454,-2.6279,-2.7348,-2.7938,-2.8351,-2.8657,-2.904,-2.9275,-2.9419,-2.9767,-3.0075,-3.0444,-3.0823,-3.1299,-3.173,-3.1839,-3.1694,-3.1285,-3.1242,-3.0941,-3.0352,-3.0582,-3.0702,-3.0821,-3.1014,-3.1087,-3.1087,-3.0895,-3.0702,-3.0522,-3.0201,-3.0026,-2.9849,-2.9245,-2.8727,-2.8368,-2.8011,-2.781,-2.7715,-2.7249,-2.6989,-2.7063,-2.688,-2.6834,-2.687,-2.6618,-2.6535,-2.6634,-2.6634,-2.6698,-2.6767,-2.7021,-2.735,-2.7754,-2.8604,-2.9529,-3.0409,-3.0963,-3.1711,-3.2646,-3.3057,-3.3558,-3.4234,-3.5168,-3.6042,-3.695,-3.7466,-3.8135,-3.8888,-3.9377,-3.9816,-4.0137,-4.037,-4.0534,-4.0631,-4.0995,-4.13,-4.156,-4.1841,-4.2121,-4.2472,-4.2824,-4.3087,-4.3286,-4.3393,-4.3479,-4.3479,-4.3479,-4.3479,-4.3479,-4.3479,-4.3479,-4.3479,-4.3479,-4.3479,-4.3479,-4.3479,-4.3479,-4.3479,-4.3479,-4.3479,-4.3479,-4.3479,-4.3479,-4.3479,-4.3463,-4.3446,-4.3305,-4.316,-4.2992,-4.2649,-4.2409,-4.2163,-2.4358,-2.4871,-2.538,-2.6196,-2.7115,-2.7534,-2.795,-2.8419,-2.8816,-2.9052,-2.9353,-2.9611,-2.9921,-3.0368,-3.0672,-3.1075,-3.1447,-3.189,-3.1755,-3.1198,-3.1327,-3.1011,-3.0301,-3.0352,-3.0462,-3.0522,-3.0717,-3.0836,-3.0776,-3.0582,-3.0341,-3.0036,-3.0036,-2.9974,-2.9794,-2.9355,-2.9057,-2.8799,-2.8389,-2.8151,-2.7939,-2.7326,-2.7,-2.7055,-2.701,-2.6974,-2.7078,-2.7093,-2.7181,-2.7335,-2.7386,-2.7527,-2.7793,-2.7844,-2.8158,-2.8831,-2.9689,-3.0479,-3.1128,-3.1582,-3.2175,-3.2926,-3.3293,-3.371,-3.4246,-3.5248,-3.6289,-3.7269,-3.8288,-3.8975,-3.931,-3.9766,-4.0054,-4.0138,-4.0337,-4.0485,-4.0517,-4.0931,-4.1272,-4.1426,-4.1754,-4.2115,-4.2432,-4.2862,-4.3214,-4.3251,-4.3393,-4.3479,-4.3479,-4.3479,-4.3479,-4.3479,-4.3479,-4.3479,-4.3479,-4.3479,-4.3479,-4.3479,-4.3479,-4.3479,-4.3479,-4.3479,-4.3479,-4.3479,-4.3479,-4.3479,-4.3479,-4.3497,-4.3463,-4.334,-4.3215,-4.2974,-4.2649,-4.2432,-4.2246,-2.41,-2.4625,-2.5464,-2.6229,-2.688,-2.7196,-2.7603,-2.8179,-2.8419,-2.8736,-2.9131,-2.9353,-2.9664,-3.0075,-3.0368,-3.0672,-3.1048,-3.1656,-3.1672,-3.1194,-3.1292,-3.1026,-3.0474,-3.0211,-3.0111,-3.0111,-3.0172,-3.0172,-3.0172,-3.0097,-3.0036,-2.9822,-2.9747,-2.9623,-2.9373,-2.9317,-2.8927,-2.836,-2.8263,-2.8033,-2.7652,-2.7499,-2.7426,-2.7242,-2.6737,-2.6601,-2.6852,-2.6875,-2.6966,-2.7211,-2.7373,-2.7728,-2.83,-2.851,-2.8876,-2.9559,-3.0313,-3.084,-3.1141,-3.1818,-3.2516,-3.2881,-3.3256,-3.3607,-3.4127,-3.557,-3.6715,-3.7153,-3.8671,-3.9698,-3.9902,-4.0003,-4.0087,-4.0121,-4.032,-4.0468,-4.0485,-4.0931,-4.1226,-4.1426,-4.1754,-4.2139,-4.253,-4.2938,-4.3178,-4.3251,-4.3375,-4.3479,-4.3479,-4.3479,-4.3479,-4.3479,-4.3479,-4.3479,-4.3479,-4.3479,-4.3479,-4.3479,-4.3479,-4.3479,-4.3479,-4.3479,-4.3479,-4.3479,-4.3479,-4.3479,-4.3479,-4.3444,-4.3393,-4.3305,-4.3196,-4.2956,-4.2649,-4.2512,-4.2287,-2.3937,-2.454,-2.5295,-2.5884,-2.6313,-2.6951,-2.7418,-2.7765,-2.8259,-2.8657,-2.8961,-2.9263,-2.9496,-2.9677,-3.0062,-3.0533,-3.0986,-3.1347,-3.1395,-3.1148,-3.0829,-3.0524,-3.0179,-2.9743,-2.9574,-2.9574,-2.9741,-2.9727,-2.9588,-2.9588,-2.9526,-2.9324,-2.9247,-2.9121,-2.8994,-2.8894,-2.8707,-2.8479,-2.8452,-2.8356,-2.816,-2.7941,-2.7718,-2.7676,-2.744,-2.7413,-2.7707,-2.7763,-2.7914,-2.8134,-2.8257,-2.8537,-2.899,-2.9486,-2.9909,-3.0208,-3.099,-3.1479,-3.1663,-3.2053,-3.2484,-3.2843,-3.3203,-3.3762,-3.4623,-3.588,-3.6995,-3.7814,-3.8904,-3.9747,-3.9935,-4.0037,-4.0087,-4.0121,-4.0337,-4.0485,-4.0566,-4.0884,-4.1209,-4.1363,-4.1823,-4.2287,-4.257,-4.2956,-4.3214,-4.3196,-4.3393,-4.3479,-4.3479,-4.3479,-4.3479,-4.3479,-4.3479,-4.3479,-4.3479,-4.3479,-4.3479,-4.3479,-4.3479,-4.3479,-4.3479,-4.3479,-4.3479,-4.3479,-4.3479,-4.3479,-4.3479,-4.3479,-4.3428,-4.3286,-4.316,-4.2994,-4.2688,-4.2512,-4.2328,-2.3937,-2.454,-2.5115,-2.5538,-2.5979,-2.661,-2.7103,-2.7429,-2.803,-2.8419,-2.8736,-2.9106,-2.9341,-2.9496,-2.9908,-3.0305,-3.0761,-3.1048,-3.1196,-3.1191,-3.0521,-3.0215,-3.0019,-2.9444,-2.9184,-2.9261,-2.9338,-2.9338,-2.9184,-2.9121,-2.9071,-2.8817,-2.8675,-2.861,-2.856,-2.8457,-2.8471,-2.8471,-2.8471,-2.8392,-2.8403,-2.813,-2.8012,-2.8021,-2.8111,-2.8068,-2.8067,-2.814,-2.8312,-2.8524,-2.8708,-2.9034,-2.9618,-3.0309,-3.078,-3.0896,-3.1327,-3.1769,-3.1996,-3.2094,-3.2373,-3.2843,-3.3165,-3.3752,-3.4876,-3.5991,-3.7075,-3.806,-3.9087,-3.9729,-3.9884,-4.0037,-4.0087,-4.0121,-4.0337,-4.0485,-4.0517,-4.0948,-4.1255,-4.1498,-4.1934,-4.231,-4.2591,-4.2938,-4.3178,-4.3214,-4.3393,-4.3479,-4.3479,-4.3479,-4.3479,-4.3479,-4.3479,-4.3479,-4.3479,-4.3479,-4.3479,-4.3479,-4.3479,-4.3479,-4.3479,-4.3479,-4.3479,-4.3479,-4.3479,-4.3479,-4.3479,-4.3479,-4.3375,-4.3251,-4.3178,-4.3068,-4.2786,-4.2552,-4.2203,-2.4013,-2.4454,-2.4786,-2.5295,-2.5812,-2.6124,-2.661,-2.7185,-2.7708,-2.8111,-2.851,-2.8895,-2.9197,-2.9431,-2.9831,-3.0075,-3.0228,-3.0685,-3.1035,-3.1162,-3.0455,-3.0198,-3.016,-2.9288,-2.8922,-2.9022,-2.9085,-2.8958,-2.8803,-2.8739,-2.861,-2.8352,-2.8287,-2.817,-2.8079,-2.8092,-2.8092,-2.8079,-2.8013,-2.8079,-2.8079,-2.8012,-2.8038,-2.8233,-2.84,-2.8263,-2.783,-2.7832,-2.8137,-2.8455,-2.8654,-2.9141,-3.0184,-3.0877,-3.1291,-3.1377,-3.1509,-3.164,-3.194,-3.1996,-3.2262,-3.2843,-3.3165,-3.3784,-3.4952,-3.6056,-3.7124,-3.814,-3.9051,-3.9746,-3.9901,-4.0037,-4.0087,-4.0121,-4.032,-4.0485,-4.0566,-4.0931,-4.1408,-4.1841,-4.2181,-4.2369,-4.2609,-4.2938,-4.3178,-4.3251,-4.3375,-4.3479,-4.3479,-4.3479,-4.3479,-4.3479,-4.3479,-4.3479,-4.3479,-4.3479,-4.3479,-4.3479,-4.3479,-4.3479,-4.3479,-4.3479,-4.3479,-4.3479,-4.3479,-4.3479,-4.3479,-4.3479,-4.3393,-4.3286,-4.3196,-4.305,-4.2786,-4.244,-4.1882,-2.3754,-2.41,-2.4454,-2.4956,-2.5464,-2.5801,-2.6385,-2.6962,-2.7278,-2.7765,-2.8259,-2.8578,-2.8895,-2.9209,-2.9509,-2.9831,-3.0075,-3.0305,-3.0596,-3.0917,-3.0553,-3.0184,-2.9856,-2.9215,-2.8717,-2.846,-2.8406,-2.8392,-2.8327,-2.8327,-2.8183,-2.7973,-2.7789,-2.7656,-2.7536,-2.7416,-2.7348,-2.7348,-2.7348,-2.7348,-2.7348,-2.7536,-2.7736,-2.7789,-2.8066,-2.8241,-2.831,-2.8767,-2.9073,-2.9242,-2.9557,-3.0119,-3.0763,-3.113,-3.1351,-3.1467,-3.1467,-3.164,-3.194,-3.1996,-3.2262,-3.2773,-3.3165,-3.4123,-3.5455,-3.6267,-3.7321,-3.8623,-3.9404,-3.9781,-3.9884,-4.0037,-4.007,-4.0087,-4.032,-4.0534,-4.0566,-4.0931,-4.1408,-4.1884,-4.2181,-4.2369,-4.2609,-4.2938,-4.3214,-4.3214,-4.3393,-4.3479,-4.3479,-4.3479,-4.3479,-4.3479,-4.3479,-4.3479,-4.3479,-4.3479,-4.3479,-4.3479,-4.3479,-4.3479,-4.3479,-4.3479,-4.3479,-4.3479,-4.3479,-4.3479,-4.3479,-4.3444,-4.3393,-4.3286,-4.3214,-4.2994,-4.2688,-4.2279,-4.1743,-2.359,-2.3764,-2.4186,-2.4625,-2.5041,-2.5549,-2.6052,-2.6561,-2.7033,-2.751,-2.7938,-2.8339,-2.8749,-2.9052,-2.9353,-2.9586,-2.9934,-3.0088,-3.0292,-3.0594,-3.0312,-2.9954,-2.9535,-2.8917,-2.8465,-2.8159,-2.8,-2.7934,-2.7868,-2.7802,-2.7669,-2.7536,-2.7403,-2.7281,-2.7201,-2.7092,-2.7024,-2.7024,-2.7024,-2.7024,-2.7024,-2.7214,-2.7335,-2.7456,-2.7736,-2.8,-2.8314,-2.8908,-2.9352,-2.9602,-3.0021,-3.0568,-3.1014,-3.119,-3.1292,-3.1482,-3.1597,-3.1712,-3.1996,-3.2094,-3.2333,-3.2843,-3.3203,-3.4176,-3.5739,-3.6482,-3.7472,-3.9027,-3.9573,-3.9781,-3.9935,-4.0037,-4.0121,-4.0188,-4.0387,-4.0583,-4.0758,-4.1088,-4.1471,-4.1884,-4.2222,-4.2409,-4.2649,-4.2956,-4.3178,-4.3251,-4.3393,-4.3479,-4.3479,-4.3479,-4.3479,-4.3479,-4.3479,-4.3479,-4.3479,-4.3479,-4.3479,-4.3479,-4.3479,-4.3479,-4.3479,-4.3479,-4.3479,-4.3479,-4.3479,-4.3479,-4.3479,-4.3479,-4.3444,-4.3358,-4.3178,-4.2994,-4.2693,-4.2181,-4.1554,-2.3503,-2.359,-2.4024,-2.4292,-2.4615,-2.52,-2.5622,-2.6063,-2.6704,-2.7267,-2.7592,-2.8179,-2.8669,-2.9052,-2.9263,-2.9521,-2.9779,-3.0011,-3.0075,-3.0101,-2.9931,-2.9684,-2.9125,-2.8368,-2.7961,-2.7947,-2.7789,-2.7656,-2.7469,-2.7403,-2.7214,-2.7024,-2.6998,-2.6943,-2.6888,-2.6956,-2.6888,-2.682,-2.6888,-2.6888,-2.6888,-2.6943,-2.7066,-2.7268,-2.7403,-2.759,-2.7842,-2.8444,-2.8972,-2.954,-3.0021,-3.0522,-3.0955,-3.1087,-3.1249,-3.1467,-3.167,-3.1841,-3.1996,-3.2247,-3.2539,-3.2897,-3.3303,-3.4249,-3.5873,-3.6568,-3.7491,-3.9232,-3.9625,-3.9833,-4.002,-4.0138,-4.0171,-4.0337,-4.0502,-4.071,-4.11,-4.1318,-4.1604,-4.1945,-4.2264,-4.2472,-4.2609,-4.2994,-4.3178,-4.3251,-4.3393,-4.3479,-4.3479,-4.3479,-4.3479,-4.3479,-4.3479,-4.3479,-4.3479,-4.3479,-4.3479,-4.3479,-4.3479,-4.3479,-4.3479,-4.3479,-4.3479,-4.3479,-4.3479,-4.3479,-4.3479,-4.3479,-4.341,-4.3286,-4.3123,-4.2975,-4.2535,-4.1893,-4.1071,-2.3329,-2.3513,-2.3754,-2.41,-2.4529,-2.4946,-2.538,-2.5895,-2.629,-2.6775,-2.7267,-2.7788,-2.8271,-2.8657,-2.9052,-2.9275,-2.9521,-2.9779,-2.9869,-2.9921,-3.0025,-2.9574,-2.8769,-2.7769,-2.7294,-2.7281,-2.7268,-2.7214,-2.7146,-2.7079,-2.6943,-2.6794,-2.6645,-2.6521,-2.6396,-2.6258,-2.6176,-2.6188,-2.6327,-2.6408,-2.649,-2.6658,-2.6794,-2.6863,-2.7188,-2.7403,-2.7656,-2.8365,-2.9008,-2.954,-2.9927,-3.0401,-3.0821,-3.1014,-3.119,-3.1482,-3.167,-3.1841,-3.1996,-3.2247,-3.2578,-3.2989,-3.3346,-3.4334,-3.6214,-3.6571,-3.7659,-3.9154,-3.9677,-3.9833,-4.0037,-4.0188,-4.0387,-4.068,-4.0793,-4.0918,-4.1163,-4.1408,-4.1692,-4.2037,-4.2269,-4.249,-4.2727,-4.2994,-4.3214,-4.3251,-4.3339,-4.3479,-4.3479,-4.3479,-4.3479,-4.3479,-4.3479,-4.3479,-4.3479,-4.3479,-4.3479,-4.3479,-4.3479,-4.3479,-4.3479,-4.3479,-4.3479,-4.3479,-4.3479,-4.3479,-4.3479,-4.3479,-4.3339,-4.3159,-4.3032,-4.2814,-4.2026,-4.1366,-4.0438,-2.3144,-2.3319,-2.359,-2.3841,-2.4196,-2.4615,-2.5041,-2.5633,-2.603,-2.6528,-2.7126,-2.7638,-2.8122,-2.851,-2.8907,-2.9197,-2.9431,-2.9702,-2.9792,-2.9691,-2.9404,-2.8971,-2.8451,-2.7562,-2.7024,-2.7024,-2.6943,-2.6863,-2.6875,-2.6739,-2.6615,-2.6452,-2.6302,-2.6176,-2.6119,-2.598,-2.5923,-2.591,-2.605,-2.605,-2.6131,-2.6327,-2.6508,-2.6645,-2.6918,-2.7348,-2.7736,-2.8365,-2.8944,-2.9463,-2.9851,-3.0294,-3.0762,-3.1014,-3.119,-3.1482,-3.1727,-3.194,-3.2053,-3.2373,-3.2757,-3.3096,-3.3398,-3.4551,-3.6056,-3.6692,-3.763,-3.9358,-3.9696,-3.9935,-4.0138,-4.0337,-4.0583,-4.0823,-4.1012,-4.1198,-4.1346,-4.156,-4.1805,-4.2103,-4.2351,-4.257,-4.2804,-4.305,-4.3214,-4.3305,-4.3375,-4.3444,-4.3479,-4.3479,-4.3479,-4.3479,-4.3479,-4.3479,-4.3479,-4.3479,-4.3479,-4.3479,-4.3479,-4.3479,-4.3479,-4.3479,-4.3479,-4.3479,-4.3479,-4.3479,-4.3479,-4.3406,-4.3118,-4.2975,-4.2867,-4.2268,-4.1394,-4.0682,-3.9774,-2.3144,-2.3144,-2.3406,-2.359,-2.3841,-2.4282,-2.4786,-2.5285,-2.5863,-2.6456,-2.6974,-2.7638,-2.8042,-2.8419,-2.8907,-2.9197,-2.9353,-2.9702,-2.9779,-2.9478,-2.8925,-2.8306,-2.8456,-2.7411,-2.6926,-2.6888,-2.6726,-2.6658,-2.6602,-2.6339,-2.6201,-2.6119,-2.598,-2.584,-2.5758,-2.5758,-2.577,-2.577,-2.5758,-2.5828,-2.5923,-2.6131,-2.6327,-2.644,-2.6794,-2.7348,-2.7947,-2.8457,-2.883,-2.931,-2.9775,-3.0294,-3.0717,-3.0955,-3.1249,-3.1539,-3.1826,-3.1996,-3.2094,-3.2554,-3.2951,-3.3203,-3.3503,-3.4526,-3.6092,-3.6795,-3.7665,-3.9543,-3.9833,-4.0037,-4.0337,-4.06,-4.0793,-4.0965,-4.1244,-4.1471,-4.1648,-4.178,-4.1952,-4.2287,-4.249,-4.2727,-4.2918,-4.3105,-4.3251,-4.334,-4.3428,-4.3479,-4.3479,-4.3479,-4.3479,-4.3479,-4.3479,-4.3479,-4.3479,-4.3479,-4.3479,-4.3479,-4.3479,-4.3479,-4.3479,-4.3479,-4.3479,-4.3479,-4.3479,-4.3479,-4.3479,-4.3279,-4.2862,-4.2481,-4.221,-4.1343,-4.0437,-3.9856,-3.9078,-2.3144,-2.3135,-2.3406,-2.358,-2.3851,-2.412,-2.4615,-2.5285,-2.5717,-2.6229,-2.6809,-2.7557,-2.7973,-2.8122,-2.8749,-2.9131,-2.9209,-2.9624,-2.9779,-2.9641,-2.8637,-2.816,-2.8028,-2.7132,-2.664,-2.6589,-2.6408,-2.6339,-2.627,-2.6119,-2.598,-2.5898,-2.5606,-2.5453,-2.5394,-2.5194,-2.5135,-2.5265,-2.5394,-2.5535,-2.5688,-2.5992,-2.6201,-2.6327,-2.6752,-2.7348,-2.8013,-2.8406,-2.883,-2.9324,-2.9851,-3.0294,-3.0642,-3.0955,-3.1322,-3.167,-3.1883,-3.2094,-3.2358,-3.2664,-3.3058,-3.3398,-3.3774,-3.4665,-3.6411,-3.6916,-3.7867,-3.9292,-3.9935,-4.0188,-4.0551,-4.0745,-4.0982,-4.1244,-4.1426,-4.1736,-4.2019,-4.2163,-4.2246,-4.2409,-4.2609,-4.284,-4.303,-4.316,-4.3269,-4.3376,-4.3428,-4.3479,-4.3479,-4.3479,-4.3479,-4.3479,-4.3479,-4.3479,-4.3479,-4.3479,-4.3479,-4.3479,-4.3479,-4.3479,-4.3479,-4.3479,-4.3479,-4.3479,-4.3479,-4.3442,-4.324,-4.2763,-4.2255,-4.1878,-4.1375,-4.0545,-3.9716,-3.9066,-3.854,-2.3144,-2.3135,-2.3232,-2.3493,-2.3754,-2.3937,-2.4444,-2.52,-2.5549,-2.6052,-2.6633,-2.7383,-2.7788,-2.7962,-2.8749,-2.9143,-2.9221,-2.9534,-2.9779,-2.9541,-2.8662,-2.8134,-2.7883,-2.708,-2.6521,-2.6452,-2.6327,-2.6201,-2.6131,-2.584,-2.5618,-2.5606,-2.5265,-2.5052,-2.5052,-2.4849,-2.4849,-2.4921,-2.5064,-2.5123,-2.5407,-2.5606,-2.6107,-2.6396,-2.682,-2.7348,-2.8013,-2.8406,-2.8817,-2.9324,-2.9898,-3.0341,-3.0702,-3.0999,-3.1366,-3.1727,-3.2038,-3.2247,-3.2468,-3.2812,-3.3256,-3.3555,-3.3864,-3.5096,-3.6335,-3.7069,-3.807,-3.9379,-4.007,-4.032,-4.0728,-4.0905,-4.1169,-4.1426,-4.1648,-4.1909,-4.2205,-4.2287,-4.2409,-4.2552,-4.2709,-4.2936,-4.3086,-4.3233,-4.334,-4.3446,-4.3463,-4.3479,-4.3479,-4.3479,-4.3479,-4.3479,-4.3479,-4.3479,-4.3479,-4.3479,-4.3479,-4.3479,-4.3479,-4.3479,-4.3479,-4.3479,-4.3479,-4.3387,-4.324,-4.2928,-4.2671,-4.2142,-4.1504,-4.0821,-4.0211,-3.9585,-3.903,-3.8456,-3.8023,-2.3144,-2.3144,-2.3144,-2.3396,-2.3754,-2.3841,-2.4348,-2.52,-2.5454,-2.5968,-2.6633,-2.729,-2.7708,-2.803,-2.8736,-2.9131,-2.93,-2.9534,-2.9779,-2.9628,-2.8624,-2.8185,-2.7846,-2.708,-2.6396,-2.6396,-2.6188,-2.6131,-2.591,-2.5535,-2.5253,-2.5182,-2.4909,-2.4706,-2.4646,-2.4646,-2.4574,-2.4646,-2.4718,-2.4849,-2.5123,-2.5312,-2.5804,-2.6508,-2.6943,-2.7416,-2.8013,-2.8457,-2.8894,-2.9373,-2.9946,-3.0447,-3.0881,-3.1176,-3.1524,-3.1826,-3.2191,-3.2453,-3.2672,-3.3011,-3.3398,-3.3694,-3.4,-3.5003,-3.6389,-3.7253,-3.8187,-3.9294,-4.0135,-4.0534,-4.0888,-4.1123,-4.1335,-4.1587,-4.1849,-4.2061,-4.2287,-4.2351,-4.2552,-4.2727,-4.288,-4.3049,-4.3196,-4.3305,-4.3411,-4.3481,-4.3497,-4.3479,-4.3479,-4.3479,-4.3479,-4.3479,-4.3479,-4.3479,-4.3479,-4.3479,-4.3479,-4.3479,-4.3479,-4.3442,-4.3406,-4.3149,-4.3057,-4.302,-4.2855,-4.2488,-4.1992,-4.1387,-4.0679,-3.9816,-3.9301,-3.8964,-3.8451,-3.7864,-3.7594,-2.3144,-2.3144,-2.3144,-2.3406,-2.3754,-2.3841,-2.4348,-2.52,-2.5633,-2.6146,-2.6644,-2.7464,-2.78,-2.8122,-2.8736,-2.93,-2.9546,-2.9779,-2.9779,-2.9591,-2.8674,-2.8122,-2.7896,-2.6876,-2.6295,-2.6188,-2.605,-2.5758,-2.5535,-2.5253,-2.4969,-2.4622,-2.4406,-2.4261,-2.4116,-2.3909,-2.4055,-2.4284,-2.4345,-2.4562,-2.4981,-2.5324,-2.5721,-2.6645,-2.7011,-2.7549,-2.8066,-2.8509,-2.9008,-2.9526,-3.0021,-3.0613,-3.1102,-3.1379,-3.1724,-3.2079,-3.2358,-3.2617,-3.3011,-3.324,-3.3555,-3.3965,-3.43,-3.489,-3.6075,-3.7151,-3.8216,-3.9221,-4.026,-4.0888,-4.1047,-4.1307,-4.1604,-4.1849,-4.2061,-4.2351,-4.2609,-4.2727,-4.2786,-4.2918,-4.3049,-4.3141,-4.3269,-4.3376,-4.3446,-4.3497,-4.3497,-4.3479,-4.3479,-4.3479,-4.3479,-4.3479,-4.3479,-4.3479,-4.3479,-4.3479,-4.3479,-4.3479,-4.3461,-4.3387,-4.3204,-4.2745,-4.2543,-4.2231,-4.2084,-4.1864,-4.1295,-4.0634,-4.0061,-3.94,-3.8933,-3.8503,-3.8144,-3.781,-3.7613,-2.3144,-2.3144,-2.3144,-2.3406,-2.3754,-2.3841,-2.4348,-2.52,-2.5549,-2.6052,-2.6644,-2.7383,-2.78,-2.8122,-2.8749,-2.9378,-2.9702,-2.9779,-2.9779,-2.9541,-2.8687,-2.8109,-2.7984,-2.6781,-2.6243,-2.598,-2.5746,-2.5535,-2.5312,-2.4909,-2.4622,-2.4334,-2.4043,-2.3824,-2.3751,-2.3677,-2.3677,-2.3897,-2.4055,-2.4273,-2.4838,-2.5253,-2.5943,-2.6496,-2.7053,-2.7603,-2.8183,-2.8702,-2.9261,-2.9822,-3.0372,-3.0896,-3.1306,-3.1766,-3.2048,-3.2287,-3.2578,-3.292,-3.3293,-3.3503,-3.3899,-3.4151,-3.4497,-3.5182,-3.6121,-3.7227,-3.8376,-3.9682,-4.0384,-4.1123,-4.1353,-4.156,-4.1823,-4.2061,-4.2328,-4.257,-4.2786,-4.2918,-4.3031,-4.3105,-4.3233,-4.3269,-4.334,-4.3411,-4.3481,-4.3497,-4.3479,-4.3479,-4.3479,-4.3479,-4.3479,-4.3479,-4.3479,-4.3479,-4.3479,-4.3479,-4.3332,-4.3314,-4.3277,-4.3204,-4.2837,-4.2304,-4.1607,-4.1038,-4.0965,-4.0965,-4.0543,-3.9863,-3.9456,-3.9104,-3.8729,-3.8376,-3.8056,-3.7793,-3.7631,-2.3144,-2.3144,-2.3144,-2.3406,-2.3754,-2.3841,-2.4348,-2.5115,-2.5464,-2.5968,-2.6633,-2.729,-2.7708,-2.8042,-2.8669,-2.9378,-2.9779,-2.9779,-2.9779,-2.9553,-2.8649,-2.8109,-2.7736,-2.6834,-2.5992,-2.5676,-2.5465,-2.5253,-2.504,-2.4694,-2.4334,-2.4043,-2.3666,-2.3446,-2.3372,-2.3298,-2.3446,-2.3519,-2.3751,-2.4055,-2.4694,-2.5407,-2.6107,-2.6496,-2.704,-2.7656,-2.8235,-2.8817,-2.9449,-3.0007,-3.0598,-3.1204,-3.161,-3.2104,-3.2453,-3.2633,-3.2973,-3.3203,-3.3555,-3.3848,-3.4201,-3.4448,-3.4787,-3.5421,-3.6223,-3.7343,-3.876,-4.0272,-4.1071,-4.129,-4.156,-4.1762,-4.2019,-4.2269,-4.253,-4.2727,-4.2918,-4.3086,-4.3215,-4.3323,-4.3376,-4.3393,-4.3428,-4.3428,-4.3497,-4.3497,-4.3479,-4.3479,-4.3479,-4.3479,-4.3479,-4.3479,-4.3479,-4.3479,-4.3479,-4.3479,-4.324,-4.2965,-4.2873,-4.2763,-4.2286,-4.1754,-4.1001,-4.0267,-3.9863,-3.979,-3.9423,-3.9245,-3.8999,-3.8752,-3.8506,-3.8271,-3.7985,-3.7828,-3.7721,-2.3144,-2.3144,-2.3144,-2.3406,-2.3754,-2.3841,-2.4348,-2.52,-2.5633,-2.6146,-2.6644,-2.7476,-2.7893,-2.8122,-2.8749,-2.9378,-2.9702,-2.9779,-2.9779,-2.9616,-2.8662,-2.8024,-2.7703,-2.6544,-2.5819,-2.5465,-2.5253,-2.5064,-2.4778,-2.4418,-2.4043,-2.3666,-2.3298,-2.3001,-2.2927,-2.2927,-2.2927,-2.3075,-2.3446,-2.4093,-2.4886,-2.5535,-2.6176,-2.6645,-2.7175,-2.7776,-2.8417,-2.8994,-2.9623,-3.0129,-3.0718,-3.1321,-3.1853,-3.2342,-3.278,-3.3065,-3.3293,-3.3519,-3.3899,-3.4201,-3.4497,-3.4787,-3.5088,-3.5388,-3.6214,-3.741,-3.8745,-3.9698,-4.0756,-4.1507,-4.1788,-4.2037,-4.231,-4.2512,-4.2747,-4.2918,-4.3086,-4.3178,-4.3323,-4.3394,-4.3446,-4.3463,-4.3479,-4.3479,-4.3479,-4.3479,-4.3479,-4.3479,-4.3479,-4.3479,-4.3479,-4.3479,-4.3479,-4.3479,-4.3314,-4.3351,-4.302,-4.2635,-4.2378,-4.2176,-4.157,-4.0983,-4.0451,-3.979,-3.9313,-3.9019,-3.9001,-3.886,-3.8632,-3.8515,-3.8415,-3.8204,-3.7969,-3.7864,-3.7757,-2.3144,-2.3144,-2.3144,-2.3396,-2.3764,-2.3841,-2.4348,-2.52,-2.5728,-2.6229,-2.6809,-2.7557,-2.8122,-2.859,-2.9131,-2.9456,-2.9702,-2.9779,-2.9779,-2.9553,-2.8712,-2.7963,-2.7543,-2.6535,-2.5688,-2.5324,-2.5052,-2.4778,-2.4502,-2.4127,-2.3824,-2.3298,-2.3012,-2.2777,-2.2553,-2.2639,-2.2788,-2.3001,-2.3519,-2.425,-2.5016,-2.5664,-2.6302,-2.6837,-2.7443,-2.8105,-2.8753,-2.9373,-2.9993,-3.0598,-3.1204,-3.1781,-3.2287,-3.2726,-3.3171,-3.3591,-3.3797,-3.4,-3.4184,-3.4497,-3.4787,-3.5071,-3.54,-3.5825,-3.6608,-3.7499,-3.8729,-4.0018,-4.0561,-4.119,-4.186,-4.2228,-4.2472,-4.2691,-4.2846,-4.3068,-4.3196,-4.3305,-4.3376,-4.3446,-4.3481,-4.3497,-4.3479,-4.3479,-4.3479,-4.3479,-4.3479,-4.3479,-4.3479,-4.3479,-4.3479,-4.3479,-4.3479,-4.3479,-4.324,-4.3094,-4.2653,-4.2231,-4.1699,-4.1387,-4.0708,-4.012,-3.9735,-3.9405,-3.9001,-3.8781,-3.8707,-3.8676,-3.8627,-3.8515,-3.8382,-3.8171,-3.8003,-3.7864,-3.7721,-2.3144,-2.3144,-2.3144,-2.3406,-2.3841,-2.3927,-2.4433,-2.5189,-2.5801,-2.6313,-2.6985,-2.7719,-2.8431,-2.8973,-2.9275,-2.9521,-2.9779,-2.9779,-2.9779,-2.9415,-2.8762,-2.8025,-2.7395,-2.6476,-2.5618,-2.5182,-2.4921,-2.4562,-2.4116,-2.3813,-2.3446,-2.3001,-2.2703,-2.2478,-2.2413,-2.2553,-2.2692,-2.3075,-2.3751,-2.4467,-2.5087,-2.5873,-2.6496,-2.7175,-2.7776,-2.8509,-2.9226,-2.9822,-3.0464,-3.1073,-3.1724,-3.2247,-3.2672,-3.3156,-3.3591,-3.3949,-3.4201,-3.448,-3.4675,-3.4866,-3.5118,-3.535,-3.5684,-3.6163,-3.6956,-3.7515,-3.8143,-3.9627,-4.0158,-4.0813,-4.1538,-4.1934,-4.2273,-4.2537,-4.2905,-4.3142,-4.3304,-4.3265,-4.3318,-4.3463,-4.3497,-4.3497,-4.3479,-4.3479,-4.3479,-4.3479,-4.3479,-4.3479,-4.3461,-4.3461,-4.3424,-4.3387,-4.3057,-4.302,-4.2855,-4.2598,-4.2213,-4.1717,-4.1167,-4.0579,-3.99,-3.957,-3.9313,-3.8964,-3.8726,-3.8707,-3.8707,-3.8676,-3.8645,-3.8515,-3.835,-3.8204,-3.802,-3.7881,-3.7631,-2.3144,-2.3135,-2.3416,-2.358,-2.3841,-2.4282,-2.47,-2.5285,-2.5863,-2.6456,-2.7138,-2.7938,-2.8669,-2.9052,-2.9353,-2.9599,-2.9779,-2.9779,-2.9729,-2.9365,-2.8712,-2.7914,-2.7224,-2.6404,-2.5548,-2.5004,-2.479,-2.4418,-2.3824,-2.3508,-2.3298,-2.3012,-2.2478,-2.2252,-2.2252,-2.2478,-2.2927,-2.3372,-2.4043,-2.4611,-2.53,-2.607,-2.6769,-2.7443,-2.8183,-2.8908,-2.954,-3.0176,-3.0822,-3.148,-3.212,-3.2633,-3.3118,-3.3575,-3.4,-3.4349,-3.4643,-3.4977,-3.5211,-3.5287,-3.5424,-3.565,-3.6019,-3.6395,-3.6869,-3.7615,-3.8262,-3.8762,-3.9483,-4.0057,-4.0646,-4.1086,-4.1686,-4.2032,-4.2322,-4.2629,-4.2807,-4.297,-4.3078,-4.3387,-4.3406,-4.3296,-4.3479,-4.3479,-4.3479,-4.3479,-4.3479,-4.3479,-4.3406,-4.3369,-4.3332,-4.3167,-4.2616,-4.2396,-4.2268,-4.1882,-4.1258,-4.0781,-4.0286,-3.9717,-3.9111,-3.8909,-3.8964,-3.8854,-3.8707,-3.8707,-3.8707,-3.8707,-3.8627,-3.8465,-3.8318,-3.8204,-3.7933,-3.7703,-3.7447,-2.3144,-2.3144,-2.3493,-2.3754,-2.3841,-2.4282,-2.4786,-2.5274,-2.5946,-2.6704,-2.7557,-2.8431,-2.8986,-2.9131,-2.9534,-2.9702,-2.9779,-2.9779,-2.9578,-2.9114,-2.8424,-2.774,-2.7013,-2.6247,-2.556,-2.4933,-2.479,-2.4406,-2.3666,-2.3372,-2.3001,-2.2628,-2.2327,-2.2176,-2.2176,-2.2563,-2.315,-2.374,-2.4311,-2.4874,-2.5676,-2.6427,-2.7108,-2.7776,-2.861,-2.9324,-3.0007,-3.0703,-3.1407,-3.2048,-3.2617,-3.3118,-3.3539,-3.4,-3.4399,-3.4739,-3.5071,-3.5396,-3.5667,-3.5711,-3.58,-3.6174,-3.6468,-3.6771,-3.6891,-3.7404,-3.8022,-3.8552,-3.8968,-3.9497,-4.0384,-4.0709,-4.1017,-4.1302,-4.164,-4.2001,-4.2182,-4.2344,-4.2525,-4.2653,-4.2818,-4.2873,-4.3167,-4.3479,-4.3479,-4.3479,-4.3479,-4.3442,-4.3277,-4.3002,-4.2837,-4.2561,-4.2011,-4.1662,-4.1515,-4.0928,-4.0267,-3.9882,-3.9478,-3.9129,-3.8762,-3.8744,-3.8781,-3.8707,-3.8707,-3.8707,-3.8707,-3.8707,-3.8627,-3.8465,-3.835,-3.8252,-3.7933,-3.7612,-3.7297,-2.3135,-2.3232,-2.3667,-2.3841,-2.3841,-2.4444,-2.4956,-2.5369,-2.603,-2.6869,-2.7973,-2.8749,-2.9143,-2.9221,-2.9546,-2.9792,-2.9716,-2.9578,-2.9277,-2.8787,-2.8149,-2.7478,-2.6791,-2.6113,-2.5572,-2.4945,-2.4718,-2.4345,-2.3604,-2.3372,-2.3001,-2.2628,-2.2338,-2.2176,-2.2252,-2.2703,-2.3298,-2.3959,-2.4515,-2.5146,-2.5943,-2.6769,-2.7564,-2.8287,-2.9121,-2.9808,-3.0539,-3.1248,-3.1864,-3.2492,-3.3049,-3.3591,-3.4,-3.4399,-3.4835,-3.5165,-3.5441,-3.5739,-3.6019,-3.6131,-3.6233,-3.6568,-3.6794,-3.7048,-3.7203,-3.7354,-3.7859,-3.8329,-3.8618,-3.9013,-3.9929,-4.0053,-4.0322,-4.0602,-4.1107,-4.1467,-4.1464,-4.1589,-4.1735,-4.1882,-4.2029,-4.2121,-4.2231,-4.2525,-4.3002,-4.3002,-4.3002,-4.2947,-4.28,-4.2451,-4.1992,-4.1662,-4.124,-4.0965,-4.0708,-4.0084,-3.9551,-3.9423,-3.9093,-3.8946,-3.8707,-3.8707,-3.8707,-3.8707,-3.8707,-3.8707,-3.8707,-3.8707,-3.8578,-3.8433,-3.8318,-3.8153,-3.7967,-3.7612,-3.7334,-2.3222,-2.3503,-2.3754,-2.3841,-2.3927,-2.4775,-2.5285,-2.5538,-2.6302,-2.7138,-2.7973,-2.8749,-2.9143,-2.9221,-2.9624,-2.9729,-2.9553,-2.9227,-2.8888,-2.8511,-2.7858,-2.7167,-2.6643,-2.6027,-2.556,-2.5004,-2.4718,-2.4418,-2.3677,-2.3457,-2.3075,-2.2777,-2.2553,-2.2402,-2.2187,-2.2703,-2.3446,-2.4177,-2.4731,-2.5441,-2.6264,-2.7229,-2.8026,-2.8789,-2.9608,-3.0358,-3.1014,-3.1766,-3.2382,-3.2926,-3.3523,-3.4,-3.4349,-3.4835,-3.5211,-3.5424,-3.5783,-3.6148,-3.6461,-3.655,-3.6753,-3.693,-3.7108,-3.7261,-3.7466,-3.7631,-3.7721,-3.8204,-3.8235,-3.8282,-3.8707,-3.9185,-3.9579,-3.9918,-4.0404,-4.0602,-4.0547,-4.0579,-4.0671,-4.1001,-4.1111,-4.1167,-4.1203,-4.1442,-4.2194,-4.247,-4.2488,-4.2415,-4.2249,-4.1772,-4.1203,-4.0855,-4.0469,-4.012,-3.9808,-3.9258,-3.8854,-3.8781,-3.8762,-3.8726,-3.8707,-3.8707,-3.8707,-3.8707,-3.8707,-3.8707,-3.8707,-3.8707,-3.8546,-3.8415,-3.8186,-3.8018,-3.7846,-3.7631,-3.7317,-2.3242,-2.3503,-2.3764,-2.4013,-2.4358,-2.4946,-2.5274,-2.5695,-2.661,-2.7452,-2.7962,-2.8736,-2.9143,-2.9234,-2.9484,-2.9578,-2.9214,-2.9101,-2.875,-2.7833,-2.7381,-2.6868,-2.63,-2.5975,-2.556,-2.5135,-2.4849,-2.4562,-2.397,-2.3677,-2.3298,-2.3001,-2.2852,-2.2777,-2.2852,-2.3298,-2.3948,-2.4587,-2.5229,-2.5943,-2.6756,-2.763,-2.8481,-2.917,-3.0101,-3.0837,-3.1465,-3.2201,-3.2819,-3.3351,-3.4,-3.4448,-3.4787,-3.5274,-3.5622,-3.5898,-3.6199,-3.6591,-3.693,-3.7147,-3.7223,-3.7299,-3.7374,-3.7485,-3.7631,-3.7828,-3.7915,-3.8052,-3.8153,-3.8303,-3.8597,-3.8702,-3.8967,-3.9048,-3.9318,-3.9337,-3.935,-3.9386,-3.9515,-4.0029,-4.0304,-4.0634,-4.0781,-4.0616,-4.1148,-4.1405,-4.1387,-4.1534,-4.1442,-4.0873,-4.0304,-4.0047,-3.9717,-3.9331,-3.8946,-3.8799,-3.8726,-3.8744,-3.8744,-3.8707,-3.8707,-3.8707,-3.8707,-3.8707,-3.8707,-3.8707,-3.8689,-3.8658,-3.8528,-3.8382,-3.8219,-3.8036,-3.7899,-3.7631,-3.7317,-2.3406,-2.3667,-2.3927,-2.4272,-2.47,-2.5031,-2.5454,-2.6124,-2.7196,-2.7788,-2.8203,-2.8828,-2.9131,-2.9238,-2.9297,-2.9365,-2.89,-2.8448,-2.8197,-2.7268,-2.7042,-2.6582,-2.6218,-2.5898,-2.5618,-2.5265,-2.4981,-2.4622,-2.4189,-2.3982,-2.3604,-2.3372,-2.3298,-2.3372,-2.3519,-2.3886,-2.4394,-2.5028,-2.5804,-2.6496,-2.7297,-2.8157,-2.8994,-2.9732,-3.0524,-3.1364,-3.1977,-3.2641,-3.3298,-3.3832,-3.4349,-3.4899,-3.5274,-3.5667,-3.6002,-3.6284,-3.6696,-3.7031,-3.7317,-3.7558,-3.7613,-3.765,-3.7667,-3.7757,-3.781,-3.7931,-3.8068,-3.8186,-3.8303,-3.8401,-3.8478,-3.851,-3.8609,-3.8726,-3.8744,-3.8799,-3.8817,-3.8891,-3.8946,-3.9423,-3.9606,-3.9974,-4.0212,-4.0102,-4.012,-4.0194,-4.0249,-4.0451,-4.0616,-4.0084,-3.9606,-3.9423,-3.9258,-3.9019,-3.8836,-3.8762,-3.8707,-3.8707,-3.8707,-3.8707,-3.8707,-3.8707,-3.8707,-3.8707,-3.8707,-3.8707,-3.8689,-3.8609,-3.8546,-3.8465,-3.8318,-3.8138,-3.7934,-3.7667,-3.7354,-2.358,-2.3851,-2.4282,-2.4615,-2.4946,-2.5285,-2.5957,-2.688,-2.7557,-2.8111,-2.851,-2.8895,-2.9135,-2.9257,-2.9101,-2.8875,-2.8612,-2.7783,-2.7419,-2.7105,-2.6766,-2.6414,-2.6213,-2.598,-2.5688,-2.5394,-2.5111,-2.4838,-2.4261,-2.4189,-2.397,-2.374,-2.3824,-2.397,-2.4189,-2.455,-2.4969,-2.5594,-2.6289,-2.704,-2.7842,-2.8739,-2.9546,-3.0283,-3.1073,-3.1838,-3.2437,-3.3102,-3.3678,-3.4201,-3.4756,-3.5211,-3.5605,-3.5924,-3.6266,-3.6655,-3.7147,-3.7374,-3.7613,-3.781,-3.7951,-3.7984,-3.7967,-3.8002,-3.8052,-3.8135,-3.8201,-3.83,-3.8415,-3.8446,-3.851,-3.8609,-3.8658,-3.8707,-3.8707,-3.8726,-3.8726,-3.8744,-3.8744,-3.8872,-3.8891,-3.9074,-3.9166,-3.9129,-3.9423,-3.9368,-3.9478,-3.9588,-3.9662,-3.9441,-3.9056,-3.9001,-3.8854,-3.8799,-3.8707,-3.8707,-3.8707,-3.8707,-3.8707,-3.8707,-3.8707,-3.8707,-3.8707,-3.8707,-3.8707,-3.8707,-3.8689,-3.8658,-3.8596,-3.8515,-3.835,-3.8171,-3.7969,-3.7757,-3.7466,-2.3851,-2.4282,-2.4454,-2.4967,-2.5633,-2.6373,-2.6857,-2.7196,-2.7719,-2.8122,-2.851,-2.8895,-2.8975,-2.8835,-2.89,-2.8448,-2.7908,-2.7419,-2.7055,-2.6753,-2.6622,-2.6421,-2.6188,-2.598,-2.5746,-2.5535,-2.5253,-2.504,-2.4838,-2.4622,-2.4418,-2.4273,-2.4334,-2.455,-2.4969,-2.5324,-2.5664,-2.6139,-2.6756,-2.7497,-2.8352,-2.9247,-3.004,-3.0822,-3.1595,-3.2287,-3.2996,-3.3575,-3.4151,-3.4691,-3.5165,-3.5622,-3.6088,-3.6426,-3.6771,-3.7243,-3.7522,-3.7721,-3.7863,-3.7984,-3.8086,-3.8238,-3.8219,-3.8252,-3.8318,-3.8318,-3.8332,-3.8446,-3.851,-3.8559,-3.859,-3.8658,-3.8707,-3.8707,-3.8707,-3.8707,-3.8707,-3.8707,-3.8707,-3.8707,-3.8707,-3.8707,-3.8707,-3.8762,-3.9001,-3.8799,-3.8762,-3.8909,-3.8964,-3.8817,-3.8744,-3.8707,-3.8707,-3.8707,-3.8707,-3.8707,-3.8707,-3.8707,-3.8707,-3.8707,-3.8707,-3.8707,-3.8707,-3.8707,-3.8707,-3.8707,-3.8707,-3.8658,-3.8627,-3.8496,-3.835,-3.8171,-3.7985,-3.7775,-3.7521,-2.411,-2.454,-2.4882,-2.5549,-2.6373,-2.694,-2.7348,-2.7592,-2.7857,-2.8271,-2.8712,-2.8729,-2.8768,-2.8674,-2.8387,-2.7908,-2.7369,-2.7042,-2.6741,-2.6603,-2.6521,-2.6452,-2.6258,-2.6131,-2.598,-2.5758,-2.5477,-2.5253,-2.5111,-2.4849,-2.4634,-2.4683,-2.4766,-2.5111,-2.5535,-2.5955,-2.6427,-2.6892,-2.7417,-2.8091,-2.8867,-2.9747,-3.051,-3.1276,-3.2089,-3.2819,-3.3487,-3.4101,-3.4643,-3.5165,-3.5605,-3.6045,-3.6492,-3.6873,-3.7203,-3.7595,-3.7756,-3.7897,-3.8,-3.8153,-3.8252,-3.8368,-3.8415,-3.8446,-3.8446,-3.8446,-3.851,-3.8559,-3.8559,-3.8609,-3.8658,-3.8707,-3.8707,-3.8707,-3.8707,-3.8707,-3.8707,-3.8707,-3.8707,-3.8707,-3.8707,-3.8707,-3.8707,-3.8707,-3.8707,-3.8707,-3.8707,-3.8762,-3.8817,-3.8762,-3.8726,-3.8707,-3.8707,-3.8707,-3.8707,-3.8707,-3.8707,-3.8707,-3.8707,-3.8707,-3.8707,-3.8707,-3.8707,-3.8707,-3.8707,-3.8707,-3.8707,-3.8689,-3.8658,-3.8496,-3.835,-3.8204,-3.7985,-3.7775,-3.7521,-2.454,-2.4711,-2.5644,-2.6456,-2.7185,-2.7267,-2.7637,-2.8119,-2.814,-2.8493,-2.8856,-2.8553,-2.8498,-2.8387,-2.7871,-2.7431,-2.703,-2.6798,-2.6659,-2.6521,-2.6521,-2.6452,-2.6396,-2.6258,-2.6119,-2.605,-2.584,-2.5548,-2.5324,-2.5194,-2.5052,-2.5087,-2.5312,-2.5594,-2.6037,-2.6496,-2.7027,-2.7709,-2.8208,-2.8789,-2.9484,-3.0283,-3.1175,-3.1792,-3.2571,-3.3335,-3.3933,-3.4546,-3.5165,-3.5588,-3.6071,-3.6468,-3.6952,-3.7319,-3.7595,-3.7774,-3.7966,-3.8068,-3.8168,-3.8285,-3.8382,-3.8478,-3.851,-3.8559,-3.8578,-3.8559,-3.859,-3.8609,-3.8658,-3.8658,-3.8707,-3.8707,-3.8707,-3.8707,-3.8707,-3.8707,-3.8707,-3.8707,-3.8707,-3.8707,-3.8707,-3.8707,-3.8707,-3.8707,-3.8707,-3.8707,-3.8707,-3.8707,-3.8707,-3.8707,-3.8707,-3.8707,-3.8707,-3.8707,-3.8707,-3.8707,-3.8707,-3.8707,-3.8707,-3.8707,-3.8707,-3.8707,-3.8707,-3.8707,-3.8707,-3.8707,-3.8707,-3.8658,-3.8609,-3.8465,-3.8336,-3.8204,-3.802,-3.7775,-3.7521,-2.4967,-2.5644,-2.6539,-2.7021,-2.7267,-2.7765,-2.785,-2.7843,-2.7963,-2.8183,-2.8479,-2.8447,-2.8213,-2.7745,-2.7444,-2.7067,-2.676,-2.6659,-2.6546,-2.6521,-2.6521,-2.6521,-2.6452,-2.6327,-2.6201,-2.6131,-2.598,-2.584,-2.5688,-2.5618,-2.563,-2.5676,-2.5886,-2.6164,-2.6589,-2.704,-2.7696,-2.8379,-2.8994,-2.9546,-3.0176,-3.0777,-3.1537,-3.2272,-3.3087,-3.3764,-3.4382,-3.4961,-3.5498,-3.5924,-3.6426,-3.6913,-3.7392,-3.7739,-3.7915,-3.8018,-3.8153,-3.8252,-3.8318,-3.8415,-3.8478,-3.8559,-3.8609,-3.8658,-3.8676,-3.8658,-3.864,-3.8689,-3.8707,-3.8707,-3.8707,-3.8707,-3.8707,-3.8707,-3.8707,-3.8707,-3.8707,-3.8707,-3.8707,-3.8707,-3.8707,-3.8707,-3.8707,-3.8707,-3.8707,-3.8707,-3.8707,-3.8707,-3.8707,-3.8707,-3.8707,-3.8707,-3.8707,-3.8707,-3.8707,-3.8707,-3.8707,-3.8707,-3.8707,-3.8707,-3.8707,-3.8707,-3.8707,-3.8707,-3.8707,-3.8707,-3.8658,-3.8609,-3.8528,-3.8433,-3.8303,-3.8171,-3.7985,-3.7739,-3.7521,-2.5262,-2.5628,-2.621,-2.669,-2.7006,-2.7399,-2.7543,-2.7545,-2.7812,-2.7828,-2.7705,-2.7792,-2.7615,-2.7205,-2.7055,-2.6841,-2.6559,-2.6533,-2.6521,-2.6521,-2.6521,-2.6521,-2.6452,-2.6396,-2.6408,-2.627,-2.6131,-2.598,-2.598,-2.6037,-2.6025,-2.6164,-2.6427,-2.6769,-2.7188,-2.7696,-2.8222,-2.9035,-2.9699,-3.0297,-3.0777,-3.1422,-3.2048,-3.2765,-3.3507,-3.4184,-3.4754,-3.5316,-3.5854,-3.635,-3.6856,-3.7281,-3.7703,-3.7915,-3.8086,-3.8204,-3.8303,-3.8401,-3.8465,-3.8528,-3.8559,-3.8609,-3.8658,-3.8707,-3.8707,-3.8658,-3.8658,-3.8707,-3.8707,-3.8707,-3.8707,-3.8707,-3.8707,-3.8707,-3.8707,-3.8707,-3.8707,-3.8707,-3.8707,-3.8707,-3.8707,-3.8707,-3.8707,-3.8707,-3.8707,-3.8707,-3.8707,-3.8707,-3.8707,-3.8707,-3.8707,-3.8707,-3.8707,-3.8707,-3.8707,-3.8707,-3.8707,-3.8707,-3.8707,-3.8707,-3.8707,-3.8707,-3.8707,-3.8707,-3.8707,-3.8707,-3.8658,-3.8559,-3.8496,-3.8433,-3.8271,-3.8138,-3.7898,-3.7703,-3.7466,-2.5437,-2.5264,-2.5665,-2.6177,-2.6621,-2.6872,-2.7049,-2.72,-2.757,-2.7418,-2.6996,-2.6959,-2.7051,-2.7005,-2.6798,-2.6622,-2.6521,-2.6521,-2.6521,-2.6521,-2.6521,-2.6521,-2.6521,-2.6452,-2.6465,-2.6396,-2.6327,-2.6188,-2.6107,-2.6233,-2.6358,-2.6552,-2.6892,-2.7297,-2.7842,-2.83,-2.8753,-2.9526,-3.019,-3.0837,-3.148,-3.212,-3.2547,-3.3177,-3.385,-3.4561,-3.5115,-3.5661,-3.6216,-3.6696,-3.7185,-3.7577,-3.788,-3.8086,-3.8186,-3.8303,-3.8433,-3.8478,-3.8559,-3.8627,-3.8658,-3.8707,-3.8707,-3.8707,-3.8707,-3.8707,-3.8707,-3.8707,-3.8707,-3.8707,-3.8707,-3.8707,-3.8707,-3.8707,-3.8707,-3.8707,-3.8707,-3.8707,-3.8707,-3.8707,-3.8707,-3.8707,-3.8707,-3.8707,-3.8707,-3.8707,-3.8707,-3.8707,-3.8707,-3.8707,-3.8707,-3.8707,-3.8707,-3.8707,-3.8707,-3.8707,-3.8707,-3.8707,-3.8707,-3.8707,-3.8707,-3.8707,-3.8707,-3.8707,-3.8707,-3.8689,-3.8609,-3.8528,-3.8496,-3.8401,-3.8219,-3.8052,-3.7845,-3.7613,-3.7354,-2.507,-2.5608,-2.62,-2.6609,-2.6824,-2.7049,-2.7127,-2.7063,-2.7098,-2.693,-2.6696,-2.6628,-2.6615,-2.6697,-2.6609,-2.6521,-2.6521,-2.6521,-2.6521,-2.6521,-2.6521,-2.6521,-2.6521,-2.6521,-2.6521,-2.6452,-2.6452,-2.6452,-2.6452,-2.6577,-2.6782,-2.7053,-2.7255,-2.7709,-2.8222,-2.8688,-2.9261,-3.0021,-3.0613,-3.1248,-3.1838,-3.2398,-3.2926,-3.3559,-3.4234,-3.4897,-3.5498,-3.6088,-3.6527,-3.697,-3.7392,-3.7774,-3.8018,-3.8204,-3.8303,-3.8382,-3.851,-3.8559,-3.8609,-3.8658,-3.8707,-3.8707,-3.8707,-3.8707,-3.8707,-3.8707,-3.8707,-3.8707,-3.8707,-3.8707,-3.8707,-3.8707,-3.8707,-3.8707,-3.8707,-3.8707,-3.8707,-3.8707,-3.8707,-3.8707,-3.8707,-3.8707,-3.8707,-3.8707,-3.8707,-3.8707,-3.8707,-3.8707,-3.8707,-3.8707,-3.8707,-3.8707,-3.8707,-3.8707,-3.8707,-3.8707,-3.8707,-3.8707,-3.8707,-3.8707,-3.8707,-3.8707,-3.8707,-3.8707,-3.8658,-3.8658,-3.8559,-3.851,-3.8401,-3.8303,-3.8119,-3.7949,-3.7739,-3.7522,-3.7261]}]]